<?xml version="1.0" encoding="UTF-8" standalone="no" ?>
<gpx xmlns="http://www.topografix.com/GPX/1/1" xmlns:xsi="http://www.w3.org/2001/XMLSchema-instance" xsi:schemaLocation="http://www.topografix.com/GPX/1/1 http://www.topografix.com/GPX/1/1/gpx.xsd" version="1.1" creator="VisuGPX - https://www.visugpx.com">
  <metadata>
    <name>Telethon 2013</name>
    <desc><![CDATA[Rando vtt au départ du stade de foot de Villeneuve-Loubet. Boucle qui emprunte pas mal de beau sentier et qui revient par la vanade.]]></desc>
  </metadata>
  <trk>
    <name><![CDATA[2013-12-08-01 telethon 2013]]></name>
    <trkseg>
      <trkpt lat="43.65509" lon="7.12833">
        <ele>-81.7</ele>
        <time>2013-12-08T07:06:10Z</time>
      </trkpt>
      <trkpt lat="43.65509" lon="7.12833">
        <ele>-81.7</ele>
        <time>2013-12-08T07:06:11Z</time>
      </trkpt>
      <trkpt lat="43.65518" lon="7.1283">
        <ele>21.8</ele>
        <time>2013-12-08T07:26:20Z</time>
      </trkpt>
      <trkpt lat="43.65528" lon="7.12827">
        <ele>21.7</ele>
        <time>2013-12-08T07:26:23Z</time>
      </trkpt>
      <trkpt lat="43.65539" lon="7.12825">
        <ele>22.7</ele>
        <time>2013-12-08T07:26:27Z</time>
      </trkpt>
      <trkpt lat="43.65548" lon="7.12819">
        <ele>21.8</ele>
        <time>2013-12-08T07:26:33Z</time>
      </trkpt>
      <trkpt lat="43.65557" lon="7.12813">
        <ele>21.5</ele>
        <time>2013-12-08T07:27:18Z</time>
      </trkpt>
      <trkpt lat="43.6555" lon="7.12821">
        <ele>20.8</ele>
        <time>2013-12-08T07:33:02Z</time>
      </trkpt>
      <trkpt lat="43.65541" lon="7.12827">
        <ele>21.8</ele>
        <time>2013-12-08T07:33:10Z</time>
      </trkpt>
      <trkpt lat="43.6553" lon="7.12828">
        <ele>21.1</ele>
        <time>2013-12-08T07:33:16Z</time>
      </trkpt>
      <trkpt lat="43.65526" lon="7.12816">
        <ele>21.9</ele>
        <time>2013-12-08T07:33:22Z</time>
      </trkpt>
      <trkpt lat="43.65529" lon="7.12804">
        <ele>21.5</ele>
        <time>2013-12-08T07:33:30Z</time>
      </trkpt>
      <trkpt lat="43.65531" lon="7.1279">
        <ele>21.5</ele>
        <time>2013-12-08T07:33:37Z</time>
      </trkpt>
      <trkpt lat="43.65537" lon="7.12777">
        <ele>20.6</ele>
        <time>2013-12-08T07:33:42Z</time>
      </trkpt>
      <trkpt lat="43.65541" lon="7.12764">
        <ele>20.8</ele>
        <time>2013-12-08T07:33:46Z</time>
      </trkpt>
      <trkpt lat="43.65548" lon="7.12753">
        <ele>21.3</ele>
        <time>2013-12-08T07:33:50Z</time>
      </trkpt>
      <trkpt lat="43.65553" lon="7.12739">
        <ele>21</ele>
        <time>2013-12-08T07:33:54Z</time>
      </trkpt>
      <trkpt lat="43.65553" lon="7.12727">
        <ele>21.5</ele>
        <time>2013-12-08T07:33:57Z</time>
      </trkpt>
      <trkpt lat="43.6555" lon="7.12714">
        <ele>21.9</ele>
        <time>2013-12-08T07:34:00Z</time>
      </trkpt>
      <trkpt lat="43.65549" lon="7.12702">
        <ele>22.4</ele>
        <time>2013-12-08T07:34:03Z</time>
      </trkpt>
      <trkpt lat="43.65549" lon="7.12689">
        <ele>22.9</ele>
        <time>2013-12-08T07:34:06Z</time>
      </trkpt>
      <trkpt lat="43.65553" lon="7.12673">
        <ele>22.3</ele>
        <time>2013-12-08T07:34:10Z</time>
      </trkpt>
      <trkpt lat="43.65562" lon="7.12655">
        <ele>22</ele>
        <time>2013-12-08T07:34:15Z</time>
      </trkpt>
      <trkpt lat="43.6557" lon="7.12643">
        <ele>22</ele>
        <time>2013-12-08T07:34:19Z</time>
      </trkpt>
      <trkpt lat="43.65577" lon="7.12632">
        <ele>23</ele>
        <time>2013-12-08T07:34:23Z</time>
      </trkpt>
      <trkpt lat="43.65583" lon="7.12622">
        <ele>23.9</ele>
        <time>2013-12-08T07:34:27Z</time>
      </trkpt>
      <trkpt lat="43.65589" lon="7.1261">
        <ele>24</ele>
        <time>2013-12-08T07:34:31Z</time>
      </trkpt>
      <trkpt lat="43.65596" lon="7.12597">
        <ele>23.3</ele>
        <time>2013-12-08T07:34:35Z</time>
      </trkpt>
      <trkpt lat="43.65602" lon="7.12587">
        <ele>23.1</ele>
        <time>2013-12-08T07:34:38Z</time>
      </trkpt>
      <trkpt lat="43.65607" lon="7.12577">
        <ele>23.8</ele>
        <time>2013-12-08T07:34:41Z</time>
      </trkpt>
      <trkpt lat="43.65613" lon="7.12567">
        <ele>22.9</ele>
        <time>2013-12-08T07:34:44Z</time>
      </trkpt>
      <trkpt lat="43.65619" lon="7.12553">
        <ele>23.3</ele>
        <time>2013-12-08T07:34:48Z</time>
      </trkpt>
      <trkpt lat="43.65624" lon="7.12543">
        <ele>23.5</ele>
        <time>2013-12-08T07:34:51Z</time>
      </trkpt>
      <trkpt lat="43.65628" lon="7.12532">
        <ele>23.2</ele>
        <time>2013-12-08T07:34:54Z</time>
      </trkpt>
      <trkpt lat="43.65634" lon="7.12519">
        <ele>23.8</ele>
        <time>2013-12-08T07:34:58Z</time>
      </trkpt>
      <trkpt lat="43.6564" lon="7.12507">
        <ele>23.8</ele>
        <time>2013-12-08T07:35:02Z</time>
      </trkpt>
      <trkpt lat="43.65644" lon="7.12492">
        <ele>24.5</ele>
        <time>2013-12-08T07:35:06Z</time>
      </trkpt>
      <trkpt lat="43.65637" lon="7.12467">
        <ele>23.9</ele>
        <time>2013-12-08T07:35:12Z</time>
      </trkpt>
      <trkpt lat="43.65633" lon="7.12454">
        <ele>23.8</ele>
        <time>2013-12-08T07:35:15Z</time>
      </trkpt>
      <trkpt lat="43.6563" lon="7.1244">
        <ele>23.9</ele>
        <time>2013-12-08T07:35:18Z</time>
      </trkpt>
      <trkpt lat="43.65627" lon="7.12427">
        <ele>23.6</ele>
        <time>2013-12-08T07:35:21Z</time>
      </trkpt>
      <trkpt lat="43.65625" lon="7.12411">
        <ele>24.5</ele>
        <time>2013-12-08T07:35:25Z</time>
      </trkpt>
      <trkpt lat="43.65624" lon="7.12398">
        <ele>24.8</ele>
        <time>2013-12-08T07:35:28Z</time>
      </trkpt>
      <trkpt lat="43.65623" lon="7.12384">
        <ele>23.5</ele>
        <time>2013-12-08T07:35:31Z</time>
      </trkpt>
      <trkpt lat="43.65618" lon="7.12372">
        <ele>23.3</ele>
        <time>2013-12-08T07:35:34Z</time>
      </trkpt>
      <trkpt lat="43.65609" lon="7.12364">
        <ele>23.3</ele>
        <time>2013-12-08T07:35:37Z</time>
      </trkpt>
      <trkpt lat="43.65599" lon="7.12359">
        <ele>23.5</ele>
        <time>2013-12-08T07:35:40Z</time>
      </trkpt>
      <trkpt lat="43.6559" lon="7.12354">
        <ele>23.5</ele>
        <time>2013-12-08T07:35:43Z</time>
      </trkpt>
      <trkpt lat="43.65588" lon="7.12342">
        <ele>24.2</ele>
        <time>2013-12-08T07:35:47Z</time>
      </trkpt>
      <trkpt lat="43.65593" lon="7.12328">
        <ele>24.8</ele>
        <time>2013-12-08T07:35:51Z</time>
      </trkpt>
      <trkpt lat="43.65596" lon="7.12316">
        <ele>24.3</ele>
        <time>2013-12-08T07:35:54Z</time>
      </trkpt>
      <trkpt lat="43.65599" lon="7.12303">
        <ele>24.1</ele>
        <time>2013-12-08T07:35:57Z</time>
      </trkpt>
      <trkpt lat="43.65603" lon="7.1229">
        <ele>24.2</ele>
        <time>2013-12-08T07:36:00Z</time>
      </trkpt>
      <trkpt lat="43.65605" lon="7.12276">
        <ele>24.4</ele>
        <time>2013-12-08T07:36:03Z</time>
      </trkpt>
      <trkpt lat="43.65608" lon="7.12261">
        <ele>24.7</ele>
        <time>2013-12-08T07:36:07Z</time>
      </trkpt>
      <trkpt lat="43.65614" lon="7.12232">
        <ele>23.9</ele>
        <time>2013-12-08T07:36:15Z</time>
      </trkpt>
      <trkpt lat="43.65616" lon="7.12219">
        <ele>23.5</ele>
        <time>2013-12-08T07:36:18Z</time>
      </trkpt>
      <trkpt lat="43.65619" lon="7.12206">
        <ele>23.7</ele>
        <time>2013-12-08T07:36:21Z</time>
      </trkpt>
      <trkpt lat="43.65621" lon="7.12193">
        <ele>23.4</ele>
        <time>2013-12-08T07:36:24Z</time>
      </trkpt>
      <trkpt lat="43.65624" lon="7.1218">
        <ele>24.1</ele>
        <time>2013-12-08T07:36:27Z</time>
      </trkpt>
      <trkpt lat="43.65627" lon="7.12168">
        <ele>25.7</ele>
        <time>2013-12-08T07:36:30Z</time>
      </trkpt>
      <trkpt lat="43.6563" lon="7.12156">
        <ele>25.3</ele>
        <time>2013-12-08T07:36:33Z</time>
      </trkpt>
      <trkpt lat="43.65634" lon="7.12144">
        <ele>26</ele>
        <time>2013-12-08T07:36:36Z</time>
      </trkpt>
      <trkpt lat="43.6564" lon="7.12131">
        <ele>26.1</ele>
        <time>2013-12-08T07:36:39Z</time>
      </trkpt>
      <trkpt lat="43.65646" lon="7.12115">
        <ele>25.2</ele>
        <time>2013-12-08T07:36:42Z</time>
      </trkpt>
      <trkpt lat="43.65652" lon="7.12098">
        <ele>24.8</ele>
        <time>2013-12-08T07:36:45Z</time>
      </trkpt>
      <trkpt lat="43.65662" lon="7.12086">
        <ele>24.2</ele>
        <time>2013-12-08T07:36:48Z</time>
      </trkpt>
      <trkpt lat="43.65671" lon="7.12074">
        <ele>24</ele>
        <time>2013-12-08T07:36:51Z</time>
      </trkpt>
      <trkpt lat="43.65682" lon="7.12072">
        <ele>23.6</ele>
        <time>2013-12-08T07:36:54Z</time>
      </trkpt>
      <trkpt lat="43.65694" lon="7.12073">
        <ele>23.8</ele>
        <time>2013-12-08T07:36:57Z</time>
      </trkpt>
      <trkpt lat="43.65704" lon="7.12067">
        <ele>22.9</ele>
        <time>2013-12-08T07:37:00Z</time>
      </trkpt>
      <trkpt lat="43.6571" lon="7.12056">
        <ele>22.9</ele>
        <time>2013-12-08T07:37:03Z</time>
      </trkpt>
      <trkpt lat="43.65718" lon="7.12047">
        <ele>23.9</ele>
        <time>2013-12-08T07:37:06Z</time>
      </trkpt>
      <trkpt lat="43.65725" lon="7.1204">
        <ele>24.2</ele>
        <time>2013-12-08T07:37:09Z</time>
      </trkpt>
      <trkpt lat="43.65746" lon="7.12041">
        <ele>25.2</ele>
        <time>2013-12-08T07:37:16Z</time>
      </trkpt>
      <trkpt lat="43.65757" lon="7.12041">
        <ele>25.3</ele>
        <time>2013-12-08T07:37:19Z</time>
      </trkpt>
      <trkpt lat="43.65768" lon="7.1204">
        <ele>25.7</ele>
        <time>2013-12-08T07:37:22Z</time>
      </trkpt>
      <trkpt lat="43.65778" lon="7.12038">
        <ele>25.5</ele>
        <time>2013-12-08T07:37:25Z</time>
      </trkpt>
      <trkpt lat="43.65788" lon="7.12033">
        <ele>25.5</ele>
        <time>2013-12-08T07:37:28Z</time>
      </trkpt>
      <trkpt lat="43.65798" lon="7.12027">
        <ele>26.1</ele>
        <time>2013-12-08T07:37:31Z</time>
      </trkpt>
      <trkpt lat="43.65806" lon="7.1202">
        <ele>25.7</ele>
        <time>2013-12-08T07:37:34Z</time>
      </trkpt>
      <trkpt lat="43.65817" lon="7.12013">
        <ele>24.7</ele>
        <time>2013-12-08T07:37:38Z</time>
      </trkpt>
      <trkpt lat="43.65827" lon="7.12003">
        <ele>24.2</ele>
        <time>2013-12-08T07:37:42Z</time>
      </trkpt>
      <trkpt lat="43.65835" lon="7.11995">
        <ele>24.3</ele>
        <time>2013-12-08T07:37:45Z</time>
      </trkpt>
      <trkpt lat="43.65843" lon="7.1199">
        <ele>23.9</ele>
        <time>2013-12-08T07:37:49Z</time>
      </trkpt>
      <trkpt lat="43.65852" lon="7.12">
        <ele>24.8</ele>
        <time>2013-12-08T07:37:54Z</time>
      </trkpt>
      <trkpt lat="43.6586" lon="7.12012">
        <ele>24.8</ele>
        <time>2013-12-08T07:37:58Z</time>
      </trkpt>
      <trkpt lat="43.65868" lon="7.12022">
        <ele>24.9</ele>
        <time>2013-12-08T07:38:01Z</time>
      </trkpt>
      <trkpt lat="43.65878" lon="7.12032">
        <ele>25.1</ele>
        <time>2013-12-08T07:38:04Z</time>
      </trkpt>
      <trkpt lat="43.65888" lon="7.12042">
        <ele>24.7</ele>
        <time>2013-12-08T07:38:07Z</time>
      </trkpt>
      <trkpt lat="43.65897" lon="7.12052">
        <ele>24.4</ele>
        <time>2013-12-08T07:38:10Z</time>
      </trkpt>
      <trkpt lat="43.65914" lon="7.12056">
        <ele>25.5</ele>
        <time>2013-12-08T07:38:18Z</time>
      </trkpt>
      <trkpt lat="43.65921" lon="7.12044">
        <ele>26.6</ele>
        <time>2013-12-08T07:38:22Z</time>
      </trkpt>
      <trkpt lat="43.65927" lon="7.12034">
        <ele>26.8</ele>
        <time>2013-12-08T07:38:25Z</time>
      </trkpt>
      <trkpt lat="43.65935" lon="7.12024">
        <ele>27.5</ele>
        <time>2013-12-08T07:38:28Z</time>
      </trkpt>
      <trkpt lat="43.65944" lon="7.12013">
        <ele>27.1</ele>
        <time>2013-12-08T07:38:31Z</time>
      </trkpt>
      <trkpt lat="43.65952" lon="7.12002">
        <ele>26.7</ele>
        <time>2013-12-08T07:38:34Z</time>
      </trkpt>
      <trkpt lat="43.6596" lon="7.11995">
        <ele>27.4</ele>
        <time>2013-12-08T07:38:36Z</time>
      </trkpt>
      <trkpt lat="43.65972" lon="7.11994">
        <ele>27.8</ele>
        <time>2013-12-08T07:38:39Z</time>
      </trkpt>
      <trkpt lat="43.65982" lon="7.11992">
        <ele>27.8</ele>
        <time>2013-12-08T07:38:42Z</time>
      </trkpt>
      <trkpt lat="43.65993" lon="7.11991">
        <ele>27.7</ele>
        <time>2013-12-08T07:38:45Z</time>
      </trkpt>
      <trkpt lat="43.66005" lon="7.11989">
        <ele>27.4</ele>
        <time>2013-12-08T07:38:48Z</time>
      </trkpt>
      <trkpt lat="43.66017" lon="7.11989">
        <ele>27</ele>
        <time>2013-12-08T07:38:51Z</time>
      </trkpt>
      <trkpt lat="43.66029" lon="7.11988">
        <ele>26.6</ele>
        <time>2013-12-08T07:38:54Z</time>
      </trkpt>
      <trkpt lat="43.66042" lon="7.11987">
        <ele>26.1</ele>
        <time>2013-12-08T07:38:57Z</time>
      </trkpt>
      <trkpt lat="43.66054" lon="7.11987">
        <ele>26.2</ele>
        <time>2013-12-08T07:39:00Z</time>
      </trkpt>
      <trkpt lat="43.66066" lon="7.11986">
        <ele>25.8</ele>
        <time>2013-12-08T07:39:03Z</time>
      </trkpt>
      <trkpt lat="43.66077" lon="7.11986">
        <ele>25.7</ele>
        <time>2013-12-08T07:39:06Z</time>
      </trkpt>
      <trkpt lat="43.66088" lon="7.11986">
        <ele>24.9</ele>
        <time>2013-12-08T07:39:09Z</time>
      </trkpt>
      <trkpt lat="43.66098" lon="7.11988">
        <ele>25.3</ele>
        <time>2013-12-08T07:39:12Z</time>
      </trkpt>
      <trkpt lat="43.66119" lon="7.11996">
        <ele>26.2</ele>
        <time>2013-12-08T07:39:18Z</time>
      </trkpt>
      <trkpt lat="43.66129" lon="7.12">
        <ele>26.1</ele>
        <time>2013-12-08T07:39:21Z</time>
      </trkpt>
      <trkpt lat="43.66141" lon="7.12004">
        <ele>26.3</ele>
        <time>2013-12-08T07:39:24Z</time>
      </trkpt>
      <trkpt lat="43.66152" lon="7.12007">
        <ele>27.2</ele>
        <time>2013-12-08T07:39:27Z</time>
      </trkpt>
      <trkpt lat="43.66164" lon="7.12008">
        <ele>26.5</ele>
        <time>2013-12-08T07:39:30Z</time>
      </trkpt>
      <trkpt lat="43.66176" lon="7.12003">
        <ele>26.1</ele>
        <time>2013-12-08T07:39:33Z</time>
      </trkpt>
      <trkpt lat="43.66187" lon="7.11997">
        <ele>26.6</ele>
        <time>2013-12-08T07:39:36Z</time>
      </trkpt>
      <trkpt lat="43.66198" lon="7.11989">
        <ele>26.9</ele>
        <time>2013-12-08T07:39:39Z</time>
      </trkpt>
      <trkpt lat="43.66208" lon="7.11983">
        <ele>26.9</ele>
        <time>2013-12-08T07:39:42Z</time>
      </trkpt>
      <trkpt lat="43.66219" lon="7.11977">
        <ele>27</ele>
        <time>2013-12-08T07:39:45Z</time>
      </trkpt>
      <trkpt lat="43.66229" lon="7.11972">
        <ele>26.7</ele>
        <time>2013-12-08T07:39:48Z</time>
      </trkpt>
      <trkpt lat="43.66239" lon="7.11967">
        <ele>27.1</ele>
        <time>2013-12-08T07:39:51Z</time>
      </trkpt>
      <trkpt lat="43.66248" lon="7.11964">
        <ele>26.2</ele>
        <time>2013-12-08T07:39:54Z</time>
      </trkpt>
      <trkpt lat="43.66258" lon="7.1196">
        <ele>26.5</ele>
        <time>2013-12-08T07:39:57Z</time>
      </trkpt>
      <trkpt lat="43.66267" lon="7.11957">
        <ele>26.8</ele>
        <time>2013-12-08T07:40:00Z</time>
      </trkpt>
      <trkpt lat="43.66277" lon="7.11956">
        <ele>26.8</ele>
        <time>2013-12-08T07:40:03Z</time>
      </trkpt>
      <trkpt lat="43.66289" lon="7.11955">
        <ele>26.6</ele>
        <time>2013-12-08T07:40:06Z</time>
      </trkpt>
      <trkpt lat="43.66299" lon="7.11952">
        <ele>26.8</ele>
        <time>2013-12-08T07:40:08Z</time>
      </trkpt>
      <trkpt lat="43.66308" lon="7.11949">
        <ele>27</ele>
        <time>2013-12-08T07:40:10Z</time>
      </trkpt>
      <trkpt lat="43.6632" lon="7.11948">
        <ele>25.8</ele>
        <time>2013-12-08T07:40:13Z</time>
      </trkpt>
      <trkpt lat="43.66333" lon="7.11965">
        <ele>27.7</ele>
        <time>2013-12-08T07:40:17Z</time>
      </trkpt>
      <trkpt lat="43.66341" lon="7.11979">
        <ele>28</ele>
        <time>2013-12-08T07:40:20Z</time>
      </trkpt>
      <trkpt lat="43.66349" lon="7.11991">
        <ele>27.8</ele>
        <time>2013-12-08T07:40:23Z</time>
      </trkpt>
      <trkpt lat="43.66357" lon="7.12004">
        <ele>27.9</ele>
        <time>2013-12-08T07:40:26Z</time>
      </trkpt>
      <trkpt lat="43.66364" lon="7.12016">
        <ele>27.9</ele>
        <time>2013-12-08T07:40:29Z</time>
      </trkpt>
      <trkpt lat="43.66372" lon="7.12028">
        <ele>27.6</ele>
        <time>2013-12-08T07:40:32Z</time>
      </trkpt>
      <trkpt lat="43.6638" lon="7.1204">
        <ele>27.4</ele>
        <time>2013-12-08T07:40:35Z</time>
      </trkpt>
      <trkpt lat="43.66387" lon="7.12056">
        <ele>28</ele>
        <time>2013-12-08T07:40:38Z</time>
      </trkpt>
      <trkpt lat="43.66388" lon="7.12073">
        <ele>28.2</ele>
        <time>2013-12-08T07:40:41Z</time>
      </trkpt>
      <trkpt lat="43.66388" lon="7.12088">
        <ele>28.8</ele>
        <time>2013-12-08T07:40:44Z</time>
      </trkpt>
      <trkpt lat="43.66387" lon="7.12102">
        <ele>29.6</ele>
        <time>2013-12-08T07:40:47Z</time>
      </trkpt>
      <trkpt lat="43.66387" lon="7.12115">
        <ele>29.9</ele>
        <time>2013-12-08T07:40:50Z</time>
      </trkpt>
      <trkpt lat="43.66386" lon="7.12129">
        <ele>30.1</ele>
        <time>2013-12-08T07:40:53Z</time>
      </trkpt>
      <trkpt lat="43.66386" lon="7.12143">
        <ele>30.3</ele>
        <time>2013-12-08T07:40:56Z</time>
      </trkpt>
      <trkpt lat="43.66385" lon="7.12156">
        <ele>30.8</ele>
        <time>2013-12-08T07:40:59Z</time>
      </trkpt>
      <trkpt lat="43.66383" lon="7.12169">
        <ele>31.1</ele>
        <time>2013-12-08T07:41:02Z</time>
      </trkpt>
      <trkpt lat="43.66382" lon="7.12184">
        <ele>31.6</ele>
        <time>2013-12-08T07:41:05Z</time>
      </trkpt>
      <trkpt lat="43.6638" lon="7.12198">
        <ele>32.4</ele>
        <time>2013-12-08T07:41:08Z</time>
      </trkpt>
      <trkpt lat="43.66378" lon="7.12212">
        <ele>32.3</ele>
        <time>2013-12-08T07:41:11Z</time>
      </trkpt>
      <trkpt lat="43.66376" lon="7.12225">
        <ele>32.1</ele>
        <time>2013-12-08T07:41:14Z</time>
      </trkpt>
      <trkpt lat="43.66372" lon="7.12254">
        <ele>33.5</ele>
        <time>2013-12-08T07:41:20Z</time>
      </trkpt>
      <trkpt lat="43.66369" lon="7.12269">
        <ele>35.5</ele>
        <time>2013-12-08T07:41:23Z</time>
      </trkpt>
      <trkpt lat="43.66367" lon="7.12285">
        <ele>36</ele>
        <time>2013-12-08T07:41:26Z</time>
      </trkpt>
      <trkpt lat="43.66364" lon="7.12298">
        <ele>36.8</ele>
        <time>2013-12-08T07:41:29Z</time>
      </trkpt>
      <trkpt lat="43.66361" lon="7.12311">
        <ele>37.1</ele>
        <time>2013-12-08T07:41:32Z</time>
      </trkpt>
      <trkpt lat="43.66357" lon="7.12327">
        <ele>38.4</ele>
        <time>2013-12-08T07:41:36Z</time>
      </trkpt>
      <trkpt lat="43.66353" lon="7.1234">
        <ele>38.5</ele>
        <time>2013-12-08T07:41:39Z</time>
      </trkpt>
      <trkpt lat="43.66347" lon="7.12353">
        <ele>39.2</ele>
        <time>2013-12-08T07:41:42Z</time>
      </trkpt>
      <trkpt lat="43.6634" lon="7.12365">
        <ele>39.7</ele>
        <time>2013-12-08T07:41:45Z</time>
      </trkpt>
      <trkpt lat="43.66335" lon="7.12377">
        <ele>41.6</ele>
        <time>2013-12-08T07:41:48Z</time>
      </trkpt>
      <trkpt lat="43.66332" lon="7.12391">
        <ele>41.8</ele>
        <time>2013-12-08T07:41:51Z</time>
      </trkpt>
      <trkpt lat="43.66329" lon="7.12403">
        <ele>43</ele>
        <time>2013-12-08T07:41:54Z</time>
      </trkpt>
      <trkpt lat="43.66327" lon="7.12419">
        <ele>44.1</ele>
        <time>2013-12-08T07:41:58Z</time>
      </trkpt>
      <trkpt lat="43.66325" lon="7.12435">
        <ele>46.6</ele>
        <time>2013-12-08T07:42:02Z</time>
      </trkpt>
      <trkpt lat="43.66325" lon="7.12451">
        <ele>47.6</ele>
        <time>2013-12-08T07:42:06Z</time>
      </trkpt>
      <trkpt lat="43.66324" lon="7.12468">
        <ele>48.7</ele>
        <time>2013-12-08T07:42:10Z</time>
      </trkpt>
      <trkpt lat="43.66323" lon="7.12484">
        <ele>49.4</ele>
        <time>2013-12-08T07:42:14Z</time>
      </trkpt>
      <trkpt lat="43.66324" lon="7.12499">
        <ele>52</ele>
        <time>2013-12-08T07:42:19Z</time>
      </trkpt>
      <trkpt lat="43.66336" lon="7.12519">
        <ele>52.8</ele>
        <time>2013-12-08T07:43:03Z</time>
      </trkpt>
      <trkpt lat="43.66344" lon="7.12514">
        <ele>53.7</ele>
        <time>2013-12-08T07:43:06Z</time>
      </trkpt>
      <trkpt lat="43.66353" lon="7.12506">
        <ele>54.6</ele>
        <time>2013-12-08T07:43:09Z</time>
      </trkpt>
      <trkpt lat="43.66361" lon="7.12499">
        <ele>54.1</ele>
        <time>2013-12-08T07:43:12Z</time>
      </trkpt>
      <trkpt lat="43.6637" lon="7.12492">
        <ele>53.7</ele>
        <time>2013-12-08T07:43:15Z</time>
      </trkpt>
      <trkpt lat="43.66379" lon="7.12483">
        <ele>54.6</ele>
        <time>2013-12-08T07:43:18Z</time>
      </trkpt>
      <trkpt lat="43.66386" lon="7.12474">
        <ele>54.5</ele>
        <time>2013-12-08T07:43:21Z</time>
      </trkpt>
      <trkpt lat="43.66403" lon="7.12454">
        <ele>54</ele>
        <time>2013-12-08T07:43:27Z</time>
      </trkpt>
      <trkpt lat="43.66411" lon="7.12443">
        <ele>54.7</ele>
        <time>2013-12-08T07:43:30Z</time>
      </trkpt>
      <trkpt lat="43.66419" lon="7.12432">
        <ele>55.8</ele>
        <time>2013-12-08T07:43:33Z</time>
      </trkpt>
      <trkpt lat="43.66429" lon="7.12422">
        <ele>54.7</ele>
        <time>2013-12-08T07:43:36Z</time>
      </trkpt>
      <trkpt lat="43.66439" lon="7.12413">
        <ele>54.2</ele>
        <time>2013-12-08T07:43:39Z</time>
      </trkpt>
      <trkpt lat="43.66449" lon="7.12403">
        <ele>54.5</ele>
        <time>2013-12-08T07:43:42Z</time>
      </trkpt>
      <trkpt lat="43.6646" lon="7.12394">
        <ele>55.6</ele>
        <time>2013-12-08T07:43:45Z</time>
      </trkpt>
      <trkpt lat="43.6647" lon="7.12384">
        <ele>56.2</ele>
        <time>2013-12-08T07:43:48Z</time>
      </trkpt>
      <trkpt lat="43.66481" lon="7.12376">
        <ele>55.9</ele>
        <time>2013-12-08T07:43:51Z</time>
      </trkpt>
      <trkpt lat="43.66492" lon="7.1237">
        <ele>55.9</ele>
        <time>2013-12-08T07:43:54Z</time>
      </trkpt>
      <trkpt lat="43.66504" lon="7.12364">
        <ele>55.6</ele>
        <time>2013-12-08T07:43:57Z</time>
      </trkpt>
      <trkpt lat="43.66516" lon="7.1236">
        <ele>54.7</ele>
        <time>2013-12-08T07:44:00Z</time>
      </trkpt>
      <trkpt lat="43.66527" lon="7.12357">
        <ele>54.9</ele>
        <time>2013-12-08T07:44:03Z</time>
      </trkpt>
      <trkpt lat="43.66538" lon="7.12353">
        <ele>55.8</ele>
        <time>2013-12-08T07:44:06Z</time>
      </trkpt>
      <trkpt lat="43.66548" lon="7.12351">
        <ele>56.6</ele>
        <time>2013-12-08T07:44:09Z</time>
      </trkpt>
      <trkpt lat="43.66558" lon="7.12348">
        <ele>57.6</ele>
        <time>2013-12-08T07:44:12Z</time>
      </trkpt>
      <trkpt lat="43.66568" lon="7.12346">
        <ele>57.7</ele>
        <time>2013-12-08T07:44:15Z</time>
      </trkpt>
      <trkpt lat="43.66578" lon="7.12342">
        <ele>58</ele>
        <time>2013-12-08T07:44:18Z</time>
      </trkpt>
      <trkpt lat="43.66587" lon="7.12339">
        <ele>58.9</ele>
        <time>2013-12-08T07:44:21Z</time>
      </trkpt>
      <trkpt lat="43.66597" lon="7.12336">
        <ele>59.5</ele>
        <time>2013-12-08T07:44:24Z</time>
      </trkpt>
      <trkpt lat="43.66617" lon="7.12329">
        <ele>61.3</ele>
        <time>2013-12-08T07:44:30Z</time>
      </trkpt>
      <trkpt lat="43.66627" lon="7.12328">
        <ele>62.2</ele>
        <time>2013-12-08T07:44:33Z</time>
      </trkpt>
      <trkpt lat="43.66637" lon="7.12325">
        <ele>62.7</ele>
        <time>2013-12-08T07:44:36Z</time>
      </trkpt>
      <trkpt lat="43.66646" lon="7.1232">
        <ele>62.9</ele>
        <time>2013-12-08T07:44:39Z</time>
      </trkpt>
      <trkpt lat="43.66656" lon="7.12314">
        <ele>63.4</ele>
        <time>2013-12-08T07:44:42Z</time>
      </trkpt>
      <trkpt lat="43.66664" lon="7.12306">
        <ele>64.1</ele>
        <time>2013-12-08T07:44:45Z</time>
      </trkpt>
      <trkpt lat="43.66672" lon="7.12297">
        <ele>64.4</ele>
        <time>2013-12-08T07:44:48Z</time>
      </trkpt>
      <trkpt lat="43.6668" lon="7.12289">
        <ele>65.1</ele>
        <time>2013-12-08T07:44:51Z</time>
      </trkpt>
      <trkpt lat="43.66689" lon="7.1228">
        <ele>66.1</ele>
        <time>2013-12-08T07:44:54Z</time>
      </trkpt>
      <trkpt lat="43.66697" lon="7.12271">
        <ele>66.8</ele>
        <time>2013-12-08T07:44:57Z</time>
      </trkpt>
      <trkpt lat="43.66706" lon="7.12263">
        <ele>67.3</ele>
        <time>2013-12-08T07:45:00Z</time>
      </trkpt>
      <trkpt lat="43.66715" lon="7.12256">
        <ele>68.7</ele>
        <time>2013-12-08T07:45:03Z</time>
      </trkpt>
      <trkpt lat="43.66723" lon="7.12249">
        <ele>68.4</ele>
        <time>2013-12-08T07:45:06Z</time>
      </trkpt>
      <trkpt lat="43.66732" lon="7.12242">
        <ele>69</ele>
        <time>2013-12-08T07:45:09Z</time>
      </trkpt>
      <trkpt lat="43.66741" lon="7.12237">
        <ele>69.5</ele>
        <time>2013-12-08T07:45:12Z</time>
      </trkpt>
      <trkpt lat="43.66751" lon="7.12233">
        <ele>69.9</ele>
        <time>2013-12-08T07:45:15Z</time>
      </trkpt>
      <trkpt lat="43.6676" lon="7.1223">
        <ele>70.6</ele>
        <time>2013-12-08T07:45:18Z</time>
      </trkpt>
      <trkpt lat="43.6677" lon="7.12228">
        <ele>71.3</ele>
        <time>2013-12-08T07:45:21Z</time>
      </trkpt>
      <trkpt lat="43.66782" lon="7.12227">
        <ele>72.5</ele>
        <time>2013-12-08T07:45:25Z</time>
      </trkpt>
      <trkpt lat="43.66801" lon="7.12227">
        <ele>73.3</ele>
        <time>2013-12-08T07:45:31Z</time>
      </trkpt>
      <trkpt lat="43.6681" lon="7.12226">
        <ele>73.7</ele>
        <time>2013-12-08T07:45:34Z</time>
      </trkpt>
      <trkpt lat="43.6682" lon="7.12225">
        <ele>74</ele>
        <time>2013-12-08T07:45:37Z</time>
      </trkpt>
      <trkpt lat="43.6683" lon="7.12222">
        <ele>74.4</ele>
        <time>2013-12-08T07:45:40Z</time>
      </trkpt>
      <trkpt lat="43.66841" lon="7.12218">
        <ele>74.8</ele>
        <time>2013-12-08T07:45:43Z</time>
      </trkpt>
      <trkpt lat="43.66851" lon="7.12212">
        <ele>75</ele>
        <time>2013-12-08T07:45:46Z</time>
      </trkpt>
      <trkpt lat="43.66861" lon="7.12205">
        <ele>75.8</ele>
        <time>2013-12-08T07:45:49Z</time>
      </trkpt>
      <trkpt lat="43.66871" lon="7.12194">
        <ele>76.6</ele>
        <time>2013-12-08T07:45:52Z</time>
      </trkpt>
      <trkpt lat="43.66881" lon="7.12183">
        <ele>76.2</ele>
        <time>2013-12-08T07:45:55Z</time>
      </trkpt>
      <trkpt lat="43.66889" lon="7.12175">
        <ele>76</ele>
        <time>2013-12-08T07:45:57Z</time>
      </trkpt>
      <trkpt lat="43.66896" lon="7.12167">
        <ele>76.3</ele>
        <time>2013-12-08T07:45:59Z</time>
      </trkpt>
      <trkpt lat="43.66904" lon="7.12159">
        <ele>76.7</ele>
        <time>2013-12-08T07:46:01Z</time>
      </trkpt>
      <trkpt lat="43.66912" lon="7.12152">
        <ele>77</ele>
        <time>2013-12-08T07:46:03Z</time>
      </trkpt>
      <trkpt lat="43.66921" lon="7.12146">
        <ele>76.6</ele>
        <time>2013-12-08T07:46:05Z</time>
      </trkpt>
      <trkpt lat="43.66929" lon="7.12142">
        <ele>76.1</ele>
        <time>2013-12-08T07:46:07Z</time>
      </trkpt>
      <trkpt lat="43.66942" lon="7.12136">
        <ele>75.9</ele>
        <time>2013-12-08T07:46:10Z</time>
      </trkpt>
      <trkpt lat="43.66954" lon="7.12132">
        <ele>76</ele>
        <time>2013-12-08T07:46:13Z</time>
      </trkpt>
      <trkpt lat="43.66964" lon="7.12127">
        <ele>75.7</ele>
        <time>2013-12-08T07:46:16Z</time>
      </trkpt>
      <trkpt lat="43.66975" lon="7.12122">
        <ele>75.2</ele>
        <time>2013-12-08T07:46:19Z</time>
      </trkpt>
      <trkpt lat="43.66985" lon="7.12118">
        <ele>76.1</ele>
        <time>2013-12-08T07:46:22Z</time>
      </trkpt>
      <trkpt lat="43.66995" lon="7.12114">
        <ele>77.2</ele>
        <time>2013-12-08T07:46:25Z</time>
      </trkpt>
      <trkpt lat="43.67005" lon="7.1211">
        <ele>77.7</ele>
        <time>2013-12-08T07:46:28Z</time>
      </trkpt>
      <trkpt lat="43.67026" lon="7.12101">
        <ele>77.7</ele>
        <time>2013-12-08T07:46:34Z</time>
      </trkpt>
      <trkpt lat="43.67037" lon="7.12097">
        <ele>78</ele>
        <time>2013-12-08T07:46:37Z</time>
      </trkpt>
      <trkpt lat="43.67048" lon="7.12092">
        <ele>78.2</ele>
        <time>2013-12-08T07:46:40Z</time>
      </trkpt>
      <trkpt lat="43.6706" lon="7.12088">
        <ele>78.4</ele>
        <time>2013-12-08T07:46:43Z</time>
      </trkpt>
      <trkpt lat="43.67072" lon="7.12082">
        <ele>78.6</ele>
        <time>2013-12-08T07:46:46Z</time>
      </trkpt>
      <trkpt lat="43.67084" lon="7.12079">
        <ele>77.7</ele>
        <time>2013-12-08T07:46:49Z</time>
      </trkpt>
      <trkpt lat="43.67096" lon="7.12077">
        <ele>77.6</ele>
        <time>2013-12-08T07:46:52Z</time>
      </trkpt>
      <trkpt lat="43.67108" lon="7.12078">
        <ele>78.4</ele>
        <time>2013-12-08T07:46:55Z</time>
      </trkpt>
      <trkpt lat="43.67119" lon="7.12079">
        <ele>77.8</ele>
        <time>2013-12-08T07:46:58Z</time>
      </trkpt>
      <trkpt lat="43.67131" lon="7.12078">
        <ele>78.7</ele>
        <time>2013-12-08T07:47:01Z</time>
      </trkpt>
      <trkpt lat="43.67143" lon="7.12077">
        <ele>78.9</ele>
        <time>2013-12-08T07:47:04Z</time>
      </trkpt>
      <trkpt lat="43.67156" lon="7.12075">
        <ele>78.9</ele>
        <time>2013-12-08T07:47:07Z</time>
      </trkpt>
      <trkpt lat="43.67169" lon="7.12073">
        <ele>79.2</ele>
        <time>2013-12-08T07:47:10Z</time>
      </trkpt>
      <trkpt lat="43.67182" lon="7.12074">
        <ele>79.4</ele>
        <time>2013-12-08T07:47:13Z</time>
      </trkpt>
      <trkpt lat="43.67191" lon="7.12075">
        <ele>79.5</ele>
        <time>2013-12-08T07:47:15Z</time>
      </trkpt>
      <trkpt lat="43.672" lon="7.12076">
        <ele>79.6</ele>
        <time>2013-12-08T07:47:17Z</time>
      </trkpt>
      <trkpt lat="43.67213" lon="7.12079">
        <ele>80</ele>
        <time>2013-12-08T07:47:20Z</time>
      </trkpt>
      <trkpt lat="43.67222" lon="7.12081">
        <ele>79.9</ele>
        <time>2013-12-08T07:47:22Z</time>
      </trkpt>
      <trkpt lat="43.67231" lon="7.12084">
        <ele>79.5</ele>
        <time>2013-12-08T07:47:24Z</time>
      </trkpt>
      <trkpt lat="43.6724" lon="7.12086">
        <ele>80.2</ele>
        <time>2013-12-08T07:47:26Z</time>
      </trkpt>
      <trkpt lat="43.67253" lon="7.1209">
        <ele>80.6</ele>
        <time>2013-12-08T07:47:29Z</time>
      </trkpt>
      <trkpt lat="43.67277" lon="7.12091">
        <ele>81.1</ele>
        <time>2013-12-08T07:47:35Z</time>
      </trkpt>
      <trkpt lat="43.67289" lon="7.12087">
        <ele>81.5</ele>
        <time>2013-12-08T07:47:38Z</time>
      </trkpt>
      <trkpt lat="43.67299" lon="7.12082">
        <ele>82.1</ele>
        <time>2013-12-08T07:47:41Z</time>
      </trkpt>
      <trkpt lat="43.67309" lon="7.12076">
        <ele>82.6</ele>
        <time>2013-12-08T07:47:44Z</time>
      </trkpt>
      <trkpt lat="43.67319" lon="7.12069">
        <ele>82.7</ele>
        <time>2013-12-08T07:47:47Z</time>
      </trkpt>
      <trkpt lat="43.67329" lon="7.12061">
        <ele>83.4</ele>
        <time>2013-12-08T07:47:50Z</time>
      </trkpt>
      <trkpt lat="43.67339" lon="7.12054">
        <ele>84</ele>
        <time>2013-12-08T07:47:53Z</time>
      </trkpt>
      <trkpt lat="43.67348" lon="7.12045">
        <ele>84.7</ele>
        <time>2013-12-08T07:47:56Z</time>
      </trkpt>
      <trkpt lat="43.67359" lon="7.12037">
        <ele>86.5</ele>
        <time>2013-12-08T07:47:59Z</time>
      </trkpt>
      <trkpt lat="43.67369" lon="7.12029">
        <ele>87.3</ele>
        <time>2013-12-08T07:48:02Z</time>
      </trkpt>
      <trkpt lat="43.6738" lon="7.1202">
        <ele>87.6</ele>
        <time>2013-12-08T07:48:05Z</time>
      </trkpt>
      <trkpt lat="43.67391" lon="7.12011">
        <ele>87.8</ele>
        <time>2013-12-08T07:48:08Z</time>
      </trkpt>
      <trkpt lat="43.67402" lon="7.12001">
        <ele>87.2</ele>
        <time>2013-12-08T07:48:11Z</time>
      </trkpt>
      <trkpt lat="43.6741" lon="7.11994">
        <ele>87.3</ele>
        <time>2013-12-08T07:48:13Z</time>
      </trkpt>
      <trkpt lat="43.67418" lon="7.11988">
        <ele>87.6</ele>
        <time>2013-12-08T07:48:15Z</time>
      </trkpt>
      <trkpt lat="43.67426" lon="7.11981">
        <ele>87.7</ele>
        <time>2013-12-08T07:48:17Z</time>
      </trkpt>
      <trkpt lat="43.67434" lon="7.11974">
        <ele>87.3</ele>
        <time>2013-12-08T07:48:19Z</time>
      </trkpt>
      <trkpt lat="43.67443" lon="7.11967">
        <ele>86.9</ele>
        <time>2013-12-08T07:48:21Z</time>
      </trkpt>
      <trkpt lat="43.67451" lon="7.1196">
        <ele>86.8</ele>
        <time>2013-12-08T07:48:23Z</time>
      </trkpt>
      <trkpt lat="43.67459" lon="7.11953">
        <ele>86.8</ele>
        <time>2013-12-08T07:48:25Z</time>
      </trkpt>
      <trkpt lat="43.67468" lon="7.11945">
        <ele>86.9</ele>
        <time>2013-12-08T07:48:27Z</time>
      </trkpt>
      <trkpt lat="43.67476" lon="7.11939">
        <ele>86.8</ele>
        <time>2013-12-08T07:48:29Z</time>
      </trkpt>
      <trkpt lat="43.67485" lon="7.11934">
        <ele>86.7</ele>
        <time>2013-12-08T07:48:31Z</time>
      </trkpt>
      <trkpt lat="43.67503" lon="7.11925">
        <ele>86.3</ele>
        <time>2013-12-08T07:48:35Z</time>
      </trkpt>
      <trkpt lat="43.67512" lon="7.11921">
        <ele>86.2</ele>
        <time>2013-12-08T07:48:37Z</time>
      </trkpt>
      <trkpt lat="43.67521" lon="7.11919">
        <ele>85.9</ele>
        <time>2013-12-08T07:48:39Z</time>
      </trkpt>
      <trkpt lat="43.6753" lon="7.11916">
        <ele>85.7</ele>
        <time>2013-12-08T07:48:41Z</time>
      </trkpt>
      <trkpt lat="43.6754" lon="7.11914">
        <ele>86.2</ele>
        <time>2013-12-08T07:48:43Z</time>
      </trkpt>
      <trkpt lat="43.67549" lon="7.11912">
        <ele>86.5</ele>
        <time>2013-12-08T07:48:45Z</time>
      </trkpt>
      <trkpt lat="43.67559" lon="7.11911">
        <ele>86.7</ele>
        <time>2013-12-08T07:48:47Z</time>
      </trkpt>
      <trkpt lat="43.67568" lon="7.11909">
        <ele>87.2</ele>
        <time>2013-12-08T07:48:49Z</time>
      </trkpt>
      <trkpt lat="43.67577" lon="7.11907">
        <ele>87</ele>
        <time>2013-12-08T07:48:51Z</time>
      </trkpt>
      <trkpt lat="43.6759" lon="7.11904">
        <ele>86.5</ele>
        <time>2013-12-08T07:48:54Z</time>
      </trkpt>
      <trkpt lat="43.67603" lon="7.11902">
        <ele>86.4</ele>
        <time>2013-12-08T07:48:57Z</time>
      </trkpt>
      <trkpt lat="43.67615" lon="7.119">
        <ele>87.9</ele>
        <time>2013-12-08T07:49:00Z</time>
      </trkpt>
      <trkpt lat="43.67627" lon="7.11899">
        <ele>89</ele>
        <time>2013-12-08T07:49:03Z</time>
      </trkpt>
      <trkpt lat="43.67638" lon="7.11897">
        <ele>89.1</ele>
        <time>2013-12-08T07:49:06Z</time>
      </trkpt>
      <trkpt lat="43.6765" lon="7.11895">
        <ele>89.7</ele>
        <time>2013-12-08T07:49:09Z</time>
      </trkpt>
      <trkpt lat="43.67661" lon="7.11892">
        <ele>90.5</ele>
        <time>2013-12-08T07:49:12Z</time>
      </trkpt>
      <trkpt lat="43.67672" lon="7.11887">
        <ele>90.7</ele>
        <time>2013-12-08T07:49:15Z</time>
      </trkpt>
      <trkpt lat="43.67683" lon="7.1188">
        <ele>91.6</ele>
        <time>2013-12-08T07:49:18Z</time>
      </trkpt>
      <trkpt lat="43.67693" lon="7.11873">
        <ele>92</ele>
        <time>2013-12-08T07:49:21Z</time>
      </trkpt>
      <trkpt lat="43.67704" lon="7.11865">
        <ele>92.7</ele>
        <time>2013-12-08T07:49:24Z</time>
      </trkpt>
      <trkpt lat="43.67715" lon="7.11857">
        <ele>93.4</ele>
        <time>2013-12-08T07:49:27Z</time>
      </trkpt>
      <trkpt lat="43.67727" lon="7.11849">
        <ele>93.5</ele>
        <time>2013-12-08T07:49:30Z</time>
      </trkpt>
      <trkpt lat="43.67738" lon="7.11839">
        <ele>93.9</ele>
        <time>2013-12-08T07:49:33Z</time>
      </trkpt>
      <trkpt lat="43.67757" lon="7.11824">
        <ele>95.2</ele>
        <time>2013-12-08T07:49:38Z</time>
      </trkpt>
      <trkpt lat="43.67765" lon="7.11818">
        <ele>95.3</ele>
        <time>2013-12-08T07:49:40Z</time>
      </trkpt>
      <trkpt lat="43.67773" lon="7.11812">
        <ele>95.4</ele>
        <time>2013-12-08T07:49:42Z</time>
      </trkpt>
      <trkpt lat="43.67781" lon="7.11805">
        <ele>95.5</ele>
        <time>2013-12-08T07:49:44Z</time>
      </trkpt>
      <trkpt lat="43.67789" lon="7.11799">
        <ele>95.6</ele>
        <time>2013-12-08T07:49:46Z</time>
      </trkpt>
      <trkpt lat="43.67796" lon="7.11791">
        <ele>95.6</ele>
        <time>2013-12-08T07:49:48Z</time>
      </trkpt>
      <trkpt lat="43.67808" lon="7.11782">
        <ele>96.8</ele>
        <time>2013-12-08T07:49:51Z</time>
      </trkpt>
      <trkpt lat="43.67818" lon="7.1177">
        <ele>96.8</ele>
        <time>2013-12-08T07:49:54Z</time>
      </trkpt>
      <trkpt lat="43.67828" lon="7.11759">
        <ele>97.1</ele>
        <time>2013-12-08T07:49:57Z</time>
      </trkpt>
      <trkpt lat="43.67838" lon="7.11748">
        <ele>98</ele>
        <time>2013-12-08T07:50:00Z</time>
      </trkpt>
      <trkpt lat="43.67848" lon="7.11736">
        <ele>98.9</ele>
        <time>2013-12-08T07:50:03Z</time>
      </trkpt>
      <trkpt lat="43.67859" lon="7.11725">
        <ele>99.8</ele>
        <time>2013-12-08T07:50:06Z</time>
      </trkpt>
      <trkpt lat="43.67869" lon="7.11714">
        <ele>100.2</ele>
        <time>2013-12-08T07:50:09Z</time>
      </trkpt>
      <trkpt lat="43.6788" lon="7.11703">
        <ele>99.9</ele>
        <time>2013-12-08T07:50:12Z</time>
      </trkpt>
      <trkpt lat="43.6789" lon="7.11691">
        <ele>100.3</ele>
        <time>2013-12-08T07:50:15Z</time>
      </trkpt>
      <trkpt lat="43.679" lon="7.1168">
        <ele>101.2</ele>
        <time>2013-12-08T07:50:18Z</time>
      </trkpt>
      <trkpt lat="43.6791" lon="7.1167">
        <ele>101.2</ele>
        <time>2013-12-08T07:50:21Z</time>
      </trkpt>
      <trkpt lat="43.6792" lon="7.1166">
        <ele>101</ele>
        <time>2013-12-08T07:50:24Z</time>
      </trkpt>
      <trkpt lat="43.67929" lon="7.1165">
        <ele>101.7</ele>
        <time>2013-12-08T07:50:27Z</time>
      </trkpt>
      <trkpt lat="43.67938" lon="7.11641">
        <ele>102.1</ele>
        <time>2013-12-08T07:50:30Z</time>
      </trkpt>
      <trkpt lat="43.67947" lon="7.11632">
        <ele>101.9</ele>
        <time>2013-12-08T07:50:33Z</time>
      </trkpt>
      <trkpt lat="43.67957" lon="7.11624">
        <ele>101.3</ele>
        <time>2013-12-08T07:50:36Z</time>
      </trkpt>
      <trkpt lat="43.67976" lon="7.11604">
        <ele>101.3</ele>
        <time>2013-12-08T07:50:42Z</time>
      </trkpt>
      <trkpt lat="43.67986" lon="7.11595">
        <ele>101</ele>
        <time>2013-12-08T07:50:45Z</time>
      </trkpt>
      <trkpt lat="43.67996" lon="7.11585">
        <ele>102.5</ele>
        <time>2013-12-08T07:50:48Z</time>
      </trkpt>
      <trkpt lat="43.68006" lon="7.11575">
        <ele>102.1</ele>
        <time>2013-12-08T07:50:51Z</time>
      </trkpt>
      <trkpt lat="43.68015" lon="7.11565">
        <ele>102.1</ele>
        <time>2013-12-08T07:50:54Z</time>
      </trkpt>
      <trkpt lat="43.68025" lon="7.11555">
        <ele>102.9</ele>
        <time>2013-12-08T07:50:57Z</time>
      </trkpt>
      <trkpt lat="43.68035" lon="7.11545">
        <ele>103.4</ele>
        <time>2013-12-08T07:51:00Z</time>
      </trkpt>
      <trkpt lat="43.68044" lon="7.11534">
        <ele>103.4</ele>
        <time>2013-12-08T07:51:03Z</time>
      </trkpt>
      <trkpt lat="43.68054" lon="7.11523">
        <ele>103.9</ele>
        <time>2013-12-08T07:51:06Z</time>
      </trkpt>
      <trkpt lat="43.68063" lon="7.11512">
        <ele>104.4</ele>
        <time>2013-12-08T07:51:09Z</time>
      </trkpt>
      <trkpt lat="43.68072" lon="7.11501">
        <ele>104.8</ele>
        <time>2013-12-08T07:51:12Z</time>
      </trkpt>
      <trkpt lat="43.68081" lon="7.1149">
        <ele>105.1</ele>
        <time>2013-12-08T07:51:15Z</time>
      </trkpt>
      <trkpt lat="43.6809" lon="7.11479">
        <ele>105.3</ele>
        <time>2013-12-08T07:51:18Z</time>
      </trkpt>
      <trkpt lat="43.68098" lon="7.11469">
        <ele>105.2</ele>
        <time>2013-12-08T07:51:21Z</time>
      </trkpt>
      <trkpt lat="43.68108" lon="7.11459">
        <ele>105.1</ele>
        <time>2013-12-08T07:51:24Z</time>
      </trkpt>
      <trkpt lat="43.68116" lon="7.11448">
        <ele>105.1</ele>
        <time>2013-12-08T07:51:27Z</time>
      </trkpt>
      <trkpt lat="43.68125" lon="7.11437">
        <ele>106.6</ele>
        <time>2013-12-08T07:51:30Z</time>
      </trkpt>
      <trkpt lat="43.68134" lon="7.11426">
        <ele>106.5</ele>
        <time>2013-12-08T07:51:33Z</time>
      </trkpt>
      <trkpt lat="43.68142" lon="7.11414">
        <ele>106.8</ele>
        <time>2013-12-08T07:51:36Z</time>
      </trkpt>
      <trkpt lat="43.68151" lon="7.11403">
        <ele>107.6</ele>
        <time>2013-12-08T07:51:39Z</time>
      </trkpt>
      <trkpt lat="43.68169" lon="7.11379">
        <ele>107.1</ele>
        <time>2013-12-08T07:51:45Z</time>
      </trkpt>
      <trkpt lat="43.68178" lon="7.11368">
        <ele>107.6</ele>
        <time>2013-12-08T07:51:48Z</time>
      </trkpt>
      <trkpt lat="43.68188" lon="7.11358">
        <ele>107.6</ele>
        <time>2013-12-08T07:51:51Z</time>
      </trkpt>
      <trkpt lat="43.68198" lon="7.11347">
        <ele>108.6</ele>
        <time>2013-12-08T07:51:54Z</time>
      </trkpt>
      <trkpt lat="43.68207" lon="7.11336">
        <ele>109.2</ele>
        <time>2013-12-08T07:51:57Z</time>
      </trkpt>
      <trkpt lat="43.68217" lon="7.11325">
        <ele>109.3</ele>
        <time>2013-12-08T07:52:00Z</time>
      </trkpt>
      <trkpt lat="43.68227" lon="7.11313">
        <ele>109.4</ele>
        <time>2013-12-08T07:52:03Z</time>
      </trkpt>
      <trkpt lat="43.68234" lon="7.11305">
        <ele>109.6</ele>
        <time>2013-12-08T07:52:05Z</time>
      </trkpt>
      <trkpt lat="43.6824" lon="7.11295">
        <ele>109.5</ele>
        <time>2013-12-08T07:52:07Z</time>
      </trkpt>
      <trkpt lat="43.68248" lon="7.11287">
        <ele>109.7</ele>
        <time>2013-12-08T07:52:09Z</time>
      </trkpt>
      <trkpt lat="43.68257" lon="7.11279">
        <ele>109.8</ele>
        <time>2013-12-08T07:52:11Z</time>
      </trkpt>
      <trkpt lat="43.68265" lon="7.11269">
        <ele>109.4</ele>
        <time>2013-12-08T07:52:13Z</time>
      </trkpt>
      <trkpt lat="43.68273" lon="7.11259">
        <ele>108.9</ele>
        <time>2013-12-08T07:52:15Z</time>
      </trkpt>
      <trkpt lat="43.68281" lon="7.11249">
        <ele>108.4</ele>
        <time>2013-12-08T07:52:17Z</time>
      </trkpt>
      <trkpt lat="43.68288" lon="7.11239">
        <ele>108.3</ele>
        <time>2013-12-08T07:52:19Z</time>
      </trkpt>
      <trkpt lat="43.68295" lon="7.11228">
        <ele>108.3</ele>
        <time>2013-12-08T07:52:21Z</time>
      </trkpt>
      <trkpt lat="43.68302" lon="7.11218">
        <ele>108.4</ele>
        <time>2013-12-08T07:52:23Z</time>
      </trkpt>
      <trkpt lat="43.68309" lon="7.11209">
        <ele>108.3</ele>
        <time>2013-12-08T07:52:25Z</time>
      </trkpt>
      <trkpt lat="43.68317" lon="7.11199">
        <ele>108</ele>
        <time>2013-12-08T07:52:27Z</time>
      </trkpt>
      <trkpt lat="43.68324" lon="7.11188">
        <ele>108</ele>
        <time>2013-12-08T07:52:29Z</time>
      </trkpt>
      <trkpt lat="43.68332" lon="7.11178">
        <ele>108.1</ele>
        <time>2013-12-08T07:52:31Z</time>
      </trkpt>
      <trkpt lat="43.68339" lon="7.11168">
        <ele>108.3</ele>
        <time>2013-12-08T07:52:33Z</time>
      </trkpt>
      <trkpt lat="43.68346" lon="7.11159">
        <ele>108.2</ele>
        <time>2013-12-08T07:52:35Z</time>
      </trkpt>
      <trkpt lat="43.68352" lon="7.11149">
        <ele>108.1</ele>
        <time>2013-12-08T07:52:37Z</time>
      </trkpt>
      <trkpt lat="43.68359" lon="7.1114">
        <ele>108.7</ele>
        <time>2013-12-08T07:52:39Z</time>
      </trkpt>
      <trkpt lat="43.68365" lon="7.11131">
        <ele>108.6</ele>
        <time>2013-12-08T07:52:41Z</time>
      </trkpt>
      <trkpt lat="43.68377" lon="7.11112">
        <ele>107.9</ele>
        <time>2013-12-08T07:52:45Z</time>
      </trkpt>
      <trkpt lat="43.68383" lon="7.11102">
        <ele>107.9</ele>
        <time>2013-12-08T07:52:47Z</time>
      </trkpt>
      <trkpt lat="43.6839" lon="7.11091">
        <ele>107.9</ele>
        <time>2013-12-08T07:52:49Z</time>
      </trkpt>
      <trkpt lat="43.68396" lon="7.1108">
        <ele>107.9</ele>
        <time>2013-12-08T07:52:51Z</time>
      </trkpt>
      <trkpt lat="43.68402" lon="7.11068">
        <ele>107.7</ele>
        <time>2013-12-08T07:52:53Z</time>
      </trkpt>
      <trkpt lat="43.68409" lon="7.11056">
        <ele>108.4</ele>
        <time>2013-12-08T07:52:55Z</time>
      </trkpt>
      <trkpt lat="43.68416" lon="7.11045">
        <ele>108.5</ele>
        <time>2013-12-08T07:52:57Z</time>
      </trkpt>
      <trkpt lat="43.68421" lon="7.11033">
        <ele>108.4</ele>
        <time>2013-12-08T07:52:59Z</time>
      </trkpt>
      <trkpt lat="43.68427" lon="7.1102">
        <ele>108.2</ele>
        <time>2013-12-08T07:53:01Z</time>
      </trkpt>
      <trkpt lat="43.68432" lon="7.11007">
        <ele>108.4</ele>
        <time>2013-12-08T07:53:03Z</time>
      </trkpt>
      <trkpt lat="43.68437" lon="7.10993">
        <ele>108.7</ele>
        <time>2013-12-08T07:53:05Z</time>
      </trkpt>
      <trkpt lat="43.68442" lon="7.10979">
        <ele>108</ele>
        <time>2013-12-08T07:53:07Z</time>
      </trkpt>
      <trkpt lat="43.68444" lon="7.10963">
        <ele>107.7</ele>
        <time>2013-12-08T07:53:09Z</time>
      </trkpt>
      <trkpt lat="43.6845" lon="7.1095">
        <ele>107.8</ele>
        <time>2013-12-08T07:53:11Z</time>
      </trkpt>
      <trkpt lat="43.68457" lon="7.10936">
        <ele>107.5</ele>
        <time>2013-12-08T07:53:13Z</time>
      </trkpt>
      <trkpt lat="43.68463" lon="7.10922">
        <ele>107.1</ele>
        <time>2013-12-08T07:53:15Z</time>
      </trkpt>
      <trkpt lat="43.6847" lon="7.10908">
        <ele>106.5</ele>
        <time>2013-12-08T07:53:17Z</time>
      </trkpt>
      <trkpt lat="43.68477" lon="7.10894">
        <ele>105.8</ele>
        <time>2013-12-08T07:53:19Z</time>
      </trkpt>
      <trkpt lat="43.68483" lon="7.10881">
        <ele>105.2</ele>
        <time>2013-12-08T07:53:21Z</time>
      </trkpt>
      <trkpt lat="43.68491" lon="7.10869">
        <ele>104.8</ele>
        <time>2013-12-08T07:53:23Z</time>
      </trkpt>
      <trkpt lat="43.685" lon="7.10858">
        <ele>104.6</ele>
        <time>2013-12-08T07:53:25Z</time>
      </trkpt>
      <trkpt lat="43.68509" lon="7.10847">
        <ele>104.9</ele>
        <time>2013-12-08T07:53:27Z</time>
      </trkpt>
      <trkpt lat="43.68518" lon="7.10836">
        <ele>104.9</ele>
        <time>2013-12-08T07:53:29Z</time>
      </trkpt>
      <trkpt lat="43.68528" lon="7.10826">
        <ele>104.7</ele>
        <time>2013-12-08T07:53:31Z</time>
      </trkpt>
      <trkpt lat="43.68537" lon="7.10815">
        <ele>104.5</ele>
        <time>2013-12-08T07:53:33Z</time>
      </trkpt>
      <trkpt lat="43.68547" lon="7.10804">
        <ele>103.8</ele>
        <time>2013-12-08T07:53:35Z</time>
      </trkpt>
      <trkpt lat="43.68556" lon="7.10793">
        <ele>103</ele>
        <time>2013-12-08T07:53:37Z</time>
      </trkpt>
      <trkpt lat="43.68566" lon="7.10783">
        <ele>102.9</ele>
        <time>2013-12-08T07:53:39Z</time>
      </trkpt>
      <trkpt lat="43.68575" lon="7.10772">
        <ele>102.8</ele>
        <time>2013-12-08T07:53:41Z</time>
      </trkpt>
      <trkpt lat="43.68584" lon="7.10762">
        <ele>102.6</ele>
        <time>2013-12-08T07:53:43Z</time>
      </trkpt>
      <trkpt lat="43.686" lon="7.10741">
        <ele>102.6</ele>
        <time>2013-12-08T07:53:47Z</time>
      </trkpt>
      <trkpt lat="43.68609" lon="7.10731">
        <ele>102.8</ele>
        <time>2013-12-08T07:53:49Z</time>
      </trkpt>
      <trkpt lat="43.68617" lon="7.10721">
        <ele>102.2</ele>
        <time>2013-12-08T07:53:51Z</time>
      </trkpt>
      <trkpt lat="43.68625" lon="7.10711">
        <ele>101.3</ele>
        <time>2013-12-08T07:53:53Z</time>
      </trkpt>
      <trkpt lat="43.68633" lon="7.10701">
        <ele>101.6</ele>
        <time>2013-12-08T07:53:55Z</time>
      </trkpt>
      <trkpt lat="43.68641" lon="7.10691">
        <ele>101.8</ele>
        <time>2013-12-08T07:53:57Z</time>
      </trkpt>
      <trkpt lat="43.68649" lon="7.10681">
        <ele>102.1</ele>
        <time>2013-12-08T07:53:59Z</time>
      </trkpt>
      <trkpt lat="43.68657" lon="7.10671">
        <ele>102.5</ele>
        <time>2013-12-08T07:54:01Z</time>
      </trkpt>
      <trkpt lat="43.68665" lon="7.10661">
        <ele>103</ele>
        <time>2013-12-08T07:54:03Z</time>
      </trkpt>
      <trkpt lat="43.68672" lon="7.10651">
        <ele>102.7</ele>
        <time>2013-12-08T07:54:05Z</time>
      </trkpt>
      <trkpt lat="43.68676" lon="7.10639">
        <ele>103.1</ele>
        <time>2013-12-08T07:54:07Z</time>
      </trkpt>
      <trkpt lat="43.68677" lon="7.10626">
        <ele>103.7</ele>
        <time>2013-12-08T07:54:09Z</time>
      </trkpt>
      <trkpt lat="43.68681" lon="7.1061">
        <ele>103.6</ele>
        <time>2013-12-08T07:54:12Z</time>
      </trkpt>
      <trkpt lat="43.6869" lon="7.10607">
        <ele>103.5</ele>
        <time>2013-12-08T07:54:15Z</time>
      </trkpt>
      <trkpt lat="43.687" lon="7.10615">
        <ele>102.4</ele>
        <time>2013-12-08T07:54:19Z</time>
      </trkpt>
      <trkpt lat="43.68713" lon="7.1062">
        <ele>102.7</ele>
        <time>2013-12-08T07:54:22Z</time>
      </trkpt>
      <trkpt lat="43.68721" lon="7.10612">
        <ele>102.7</ele>
        <time>2013-12-08T07:54:24Z</time>
      </trkpt>
      <trkpt lat="43.68727" lon="7.10601">
        <ele>103.1</ele>
        <time>2013-12-08T07:54:26Z</time>
      </trkpt>
      <trkpt lat="43.68733" lon="7.10592">
        <ele>103.5</ele>
        <time>2013-12-08T07:54:28Z</time>
      </trkpt>
      <trkpt lat="43.68739" lon="7.10583">
        <ele>103.1</ele>
        <time>2013-12-08T07:54:30Z</time>
      </trkpt>
      <trkpt lat="43.68746" lon="7.10574">
        <ele>102.9</ele>
        <time>2013-12-08T07:54:32Z</time>
      </trkpt>
      <trkpt lat="43.68753" lon="7.10565">
        <ele>103.2</ele>
        <time>2013-12-08T07:54:34Z</time>
      </trkpt>
      <trkpt lat="43.68761" lon="7.10556">
        <ele>103.2</ele>
        <time>2013-12-08T07:54:36Z</time>
      </trkpt>
      <trkpt lat="43.68769" lon="7.10548">
        <ele>103</ele>
        <time>2013-12-08T07:54:38Z</time>
      </trkpt>
      <trkpt lat="43.68776" lon="7.1054">
        <ele>103.5</ele>
        <time>2013-12-08T07:54:40Z</time>
      </trkpt>
      <trkpt lat="43.68783" lon="7.10532">
        <ele>103.3</ele>
        <time>2013-12-08T07:54:42Z</time>
      </trkpt>
      <trkpt lat="43.68794" lon="7.10521">
        <ele>102.8</ele>
        <time>2013-12-08T07:54:45Z</time>
      </trkpt>
      <trkpt lat="43.68816" lon="7.10501">
        <ele>103.1</ele>
        <time>2013-12-08T07:54:51Z</time>
      </trkpt>
      <trkpt lat="43.68827" lon="7.10492">
        <ele>104</ele>
        <time>2013-12-08T07:54:54Z</time>
      </trkpt>
      <trkpt lat="43.68839" lon="7.10484">
        <ele>103.7</ele>
        <time>2013-12-08T07:54:57Z</time>
      </trkpt>
      <trkpt lat="43.6885" lon="7.10476">
        <ele>104</ele>
        <time>2013-12-08T07:55:00Z</time>
      </trkpt>
      <trkpt lat="43.68862" lon="7.10469">
        <ele>104.4</ele>
        <time>2013-12-08T07:55:03Z</time>
      </trkpt>
      <trkpt lat="43.68871" lon="7.10465">
        <ele>104.4</ele>
        <time>2013-12-08T07:55:05Z</time>
      </trkpt>
      <trkpt lat="43.6888" lon="7.10461">
        <ele>104.3</ele>
        <time>2013-12-08T07:55:07Z</time>
      </trkpt>
      <trkpt lat="43.68889" lon="7.10459">
        <ele>104.4</ele>
        <time>2013-12-08T07:55:09Z</time>
      </trkpt>
      <trkpt lat="43.68898" lon="7.10459">
        <ele>104.5</ele>
        <time>2013-12-08T07:55:11Z</time>
      </trkpt>
      <trkpt lat="43.68908" lon="7.1046">
        <ele>104.6</ele>
        <time>2013-12-08T07:55:13Z</time>
      </trkpt>
      <trkpt lat="43.68917" lon="7.10462">
        <ele>104.2</ele>
        <time>2013-12-08T07:55:15Z</time>
      </trkpt>
      <trkpt lat="43.68925" lon="7.10465">
        <ele>105.1</ele>
        <time>2013-12-08T07:55:17Z</time>
      </trkpt>
      <trkpt lat="43.68938" lon="7.10471">
        <ele>106.8</ele>
        <time>2013-12-08T07:55:20Z</time>
      </trkpt>
      <trkpt lat="43.68949" lon="7.10478">
        <ele>106.5</ele>
        <time>2013-12-08T07:55:23Z</time>
      </trkpt>
      <trkpt lat="43.6896" lon="7.10484">
        <ele>107.1</ele>
        <time>2013-12-08T07:55:26Z</time>
      </trkpt>
      <trkpt lat="43.68971" lon="7.1049">
        <ele>107.8</ele>
        <time>2013-12-08T07:55:29Z</time>
      </trkpt>
      <trkpt lat="43.68981" lon="7.10496">
        <ele>108.8</ele>
        <time>2013-12-08T07:55:32Z</time>
      </trkpt>
      <trkpt lat="43.68991" lon="7.10501">
        <ele>110.5</ele>
        <time>2013-12-08T07:55:35Z</time>
      </trkpt>
      <trkpt lat="43.69001" lon="7.10507">
        <ele>111.7</ele>
        <time>2013-12-08T07:55:38Z</time>
      </trkpt>
      <trkpt lat="43.69012" lon="7.10513">
        <ele>111.8</ele>
        <time>2013-12-08T07:55:41Z</time>
      </trkpt>
      <trkpt lat="43.69023" lon="7.10519">
        <ele>111.4</ele>
        <time>2013-12-08T07:55:44Z</time>
      </trkpt>
      <trkpt lat="43.69034" lon="7.10526">
        <ele>112.6</ele>
        <time>2013-12-08T07:55:47Z</time>
      </trkpt>
      <trkpt lat="43.69056" lon="7.10538">
        <ele>113.6</ele>
        <time>2013-12-08T07:55:53Z</time>
      </trkpt>
      <trkpt lat="43.69067" lon="7.10545">
        <ele>113.8</ele>
        <time>2013-12-08T07:55:56Z</time>
      </trkpt>
      <trkpt lat="43.69078" lon="7.1055">
        <ele>113.6</ele>
        <time>2013-12-08T07:55:59Z</time>
      </trkpt>
      <trkpt lat="43.69089" lon="7.10557">
        <ele>113.8</ele>
        <time>2013-12-08T07:56:02Z</time>
      </trkpt>
      <trkpt lat="43.69099" lon="7.10563">
        <ele>114.4</ele>
        <time>2013-12-08T07:56:05Z</time>
      </trkpt>
      <trkpt lat="43.6911" lon="7.10568">
        <ele>115.4</ele>
        <time>2013-12-08T07:56:08Z</time>
      </trkpt>
      <trkpt lat="43.69122" lon="7.10572">
        <ele>117</ele>
        <time>2013-12-08T07:56:11Z</time>
      </trkpt>
      <trkpt lat="43.69133" lon="7.10576">
        <ele>117</ele>
        <time>2013-12-08T07:56:14Z</time>
      </trkpt>
      <trkpt lat="43.69144" lon="7.10579">
        <ele>117.7</ele>
        <time>2013-12-08T07:56:17Z</time>
      </trkpt>
      <trkpt lat="43.69156" lon="7.10582">
        <ele>117.2</ele>
        <time>2013-12-08T07:56:20Z</time>
      </trkpt>
      <trkpt lat="43.69168" lon="7.10581">
        <ele>118.4</ele>
        <time>2013-12-08T07:56:23Z</time>
      </trkpt>
      <trkpt lat="43.6918" lon="7.10583">
        <ele>118.1</ele>
        <time>2013-12-08T07:56:26Z</time>
      </trkpt>
      <trkpt lat="43.69192" lon="7.10585">
        <ele>117.7</ele>
        <time>2013-12-08T07:56:29Z</time>
      </trkpt>
      <trkpt lat="43.69203" lon="7.10587">
        <ele>118.4</ele>
        <time>2013-12-08T07:56:32Z</time>
      </trkpt>
      <trkpt lat="43.69213" lon="7.10589">
        <ele>119.1</ele>
        <time>2013-12-08T07:56:35Z</time>
      </trkpt>
      <trkpt lat="43.69223" lon="7.1059">
        <ele>120</ele>
        <time>2013-12-08T07:56:38Z</time>
      </trkpt>
      <trkpt lat="43.69235" lon="7.10592">
        <ele>121.1</ele>
        <time>2013-12-08T07:56:42Z</time>
      </trkpt>
      <trkpt lat="43.69245" lon="7.10594">
        <ele>121.7</ele>
        <time>2013-12-08T07:56:45Z</time>
      </trkpt>
      <trkpt lat="43.69254" lon="7.10596">
        <ele>121.9</ele>
        <time>2013-12-08T07:56:48Z</time>
      </trkpt>
      <trkpt lat="43.69274" lon="7.106">
        <ele>122.4</ele>
        <time>2013-12-08T07:56:54Z</time>
      </trkpt>
      <trkpt lat="43.69283" lon="7.10601">
        <ele>123.7</ele>
        <time>2013-12-08T07:56:57Z</time>
      </trkpt>
      <trkpt lat="43.69295" lon="7.10603">
        <ele>124.6</ele>
        <time>2013-12-08T07:57:01Z</time>
      </trkpt>
      <trkpt lat="43.69304" lon="7.10605">
        <ele>125</ele>
        <time>2013-12-08T07:57:04Z</time>
      </trkpt>
      <trkpt lat="43.69314" lon="7.10607">
        <ele>125.7</ele>
        <time>2013-12-08T07:57:07Z</time>
      </trkpt>
      <trkpt lat="43.69324" lon="7.10608">
        <ele>126.5</ele>
        <time>2013-12-08T07:57:10Z</time>
      </trkpt>
      <trkpt lat="43.69334" lon="7.1061">
        <ele>126.6</ele>
        <time>2013-12-08T07:57:13Z</time>
      </trkpt>
      <trkpt lat="43.69344" lon="7.10612">
        <ele>127</ele>
        <time>2013-12-08T07:57:16Z</time>
      </trkpt>
      <trkpt lat="43.69354" lon="7.10614">
        <ele>127.7</ele>
        <time>2013-12-08T07:57:19Z</time>
      </trkpt>
      <trkpt lat="43.69365" lon="7.10616">
        <ele>128.4</ele>
        <time>2013-12-08T07:57:22Z</time>
      </trkpt>
      <trkpt lat="43.69375" lon="7.1062">
        <ele>128.6</ele>
        <time>2013-12-08T07:57:25Z</time>
      </trkpt>
      <trkpt lat="43.69385" lon="7.10625">
        <ele>129</ele>
        <time>2013-12-08T07:57:28Z</time>
      </trkpt>
      <trkpt lat="43.69394" lon="7.1063">
        <ele>129.8</ele>
        <time>2013-12-08T07:57:31Z</time>
      </trkpt>
      <trkpt lat="43.69404" lon="7.10637">
        <ele>130.6</ele>
        <time>2013-12-08T07:57:34Z</time>
      </trkpt>
      <trkpt lat="43.69413" lon="7.10643">
        <ele>130</ele>
        <time>2013-12-08T07:57:37Z</time>
      </trkpt>
      <trkpt lat="43.69423" lon="7.10651">
        <ele>130</ele>
        <time>2013-12-08T07:57:40Z</time>
      </trkpt>
      <trkpt lat="43.69432" lon="7.1066">
        <ele>130.6</ele>
        <time>2013-12-08T07:57:43Z</time>
      </trkpt>
      <trkpt lat="43.6944" lon="7.1067">
        <ele>130.5</ele>
        <time>2013-12-08T07:57:46Z</time>
      </trkpt>
      <trkpt lat="43.69448" lon="7.10681">
        <ele>131.1</ele>
        <time>2013-12-08T07:57:49Z</time>
      </trkpt>
      <trkpt lat="43.69456" lon="7.10692">
        <ele>131.5</ele>
        <time>2013-12-08T07:57:52Z</time>
      </trkpt>
      <trkpt lat="43.69471" lon="7.10715">
        <ele>131.9</ele>
        <time>2013-12-08T07:57:58Z</time>
      </trkpt>
      <trkpt lat="43.69479" lon="7.10727">
        <ele>132.5</ele>
        <time>2013-12-08T07:58:01Z</time>
      </trkpt>
      <trkpt lat="43.69487" lon="7.10739">
        <ele>133.2</ele>
        <time>2013-12-08T07:58:04Z</time>
      </trkpt>
      <trkpt lat="43.69494" lon="7.10752">
        <ele>133.5</ele>
        <time>2013-12-08T07:58:07Z</time>
      </trkpt>
      <trkpt lat="43.695" lon="7.10767">
        <ele>133.8</ele>
        <time>2013-12-08T07:58:10Z</time>
      </trkpt>
      <trkpt lat="43.69504" lon="7.10783">
        <ele>133.8</ele>
        <time>2013-12-08T07:58:13Z</time>
      </trkpt>
      <trkpt lat="43.69507" lon="7.10798">
        <ele>133.6</ele>
        <time>2013-12-08T07:58:16Z</time>
      </trkpt>
      <trkpt lat="43.69509" lon="7.10813">
        <ele>134.1</ele>
        <time>2013-12-08T07:58:19Z</time>
      </trkpt>
      <trkpt lat="43.69511" lon="7.10828">
        <ele>134.3</ele>
        <time>2013-12-08T07:58:22Z</time>
      </trkpt>
      <trkpt lat="43.69514" lon="7.10843">
        <ele>134.3</ele>
        <time>2013-12-08T07:58:25Z</time>
      </trkpt>
      <trkpt lat="43.69517" lon="7.10857">
        <ele>134.1</ele>
        <time>2013-12-08T07:58:28Z</time>
      </trkpt>
      <trkpt lat="43.69522" lon="7.10871">
        <ele>135.5</ele>
        <time>2013-12-08T07:58:31Z</time>
      </trkpt>
      <trkpt lat="43.69528" lon="7.10884">
        <ele>135.9</ele>
        <time>2013-12-08T07:58:34Z</time>
      </trkpt>
      <trkpt lat="43.69536" lon="7.10896">
        <ele>136.2</ele>
        <time>2013-12-08T07:58:37Z</time>
      </trkpt>
      <trkpt lat="43.69545" lon="7.10906">
        <ele>136.6</ele>
        <time>2013-12-08T07:58:40Z</time>
      </trkpt>
      <trkpt lat="43.69555" lon="7.10914">
        <ele>136.8</ele>
        <time>2013-12-08T07:58:43Z</time>
      </trkpt>
      <trkpt lat="43.69566" lon="7.10921">
        <ele>137.2</ele>
        <time>2013-12-08T07:58:46Z</time>
      </trkpt>
      <trkpt lat="43.69577" lon="7.10926">
        <ele>137.8</ele>
        <time>2013-12-08T07:58:49Z</time>
      </trkpt>
      <trkpt lat="43.69588" lon="7.10929">
        <ele>138.2</ele>
        <time>2013-12-08T07:58:52Z</time>
      </trkpt>
      <trkpt lat="43.696" lon="7.10933">
        <ele>138.2</ele>
        <time>2013-12-08T07:58:55Z</time>
      </trkpt>
      <trkpt lat="43.69621" lon="7.10941">
        <ele>138.7</ele>
        <time>2013-12-08T07:59:01Z</time>
      </trkpt>
      <trkpt lat="43.6963" lon="7.1095">
        <ele>138.9</ele>
        <time>2013-12-08T07:59:04Z</time>
      </trkpt>
      <trkpt lat="43.6964" lon="7.10952">
        <ele>139.1</ele>
        <time>2013-12-08T07:59:07Z</time>
      </trkpt>
      <trkpt lat="43.69649" lon="7.10959">
        <ele>139.1</ele>
        <time>2013-12-08T07:59:10Z</time>
      </trkpt>
      <trkpt lat="43.69657" lon="7.10966">
        <ele>139.1</ele>
        <time>2013-12-08T07:59:13Z</time>
      </trkpt>
      <trkpt lat="43.69665" lon="7.10973">
        <ele>139.9</ele>
        <time>2013-12-08T07:59:16Z</time>
      </trkpt>
      <trkpt lat="43.69674" lon="7.1098">
        <ele>140.4</ele>
        <time>2013-12-08T07:59:19Z</time>
      </trkpt>
      <trkpt lat="43.69683" lon="7.10985">
        <ele>140.2</ele>
        <time>2013-12-08T07:59:22Z</time>
      </trkpt>
      <trkpt lat="43.69694" lon="7.10988">
        <ele>141.9</ele>
        <time>2013-12-08T07:59:25Z</time>
      </trkpt>
      <trkpt lat="43.69706" lon="7.10989">
        <ele>142.1</ele>
        <time>2013-12-08T07:59:28Z</time>
      </trkpt>
      <trkpt lat="43.69718" lon="7.10989">
        <ele>142.3</ele>
        <time>2013-12-08T07:59:31Z</time>
      </trkpt>
      <trkpt lat="43.6973" lon="7.1099">
        <ele>142</ele>
        <time>2013-12-08T07:59:34Z</time>
      </trkpt>
      <trkpt lat="43.69743" lon="7.1099">
        <ele>142.9</ele>
        <time>2013-12-08T07:59:37Z</time>
      </trkpt>
      <trkpt lat="43.69754" lon="7.1099">
        <ele>142.7</ele>
        <time>2013-12-08T07:59:40Z</time>
      </trkpt>
      <trkpt lat="43.69766" lon="7.1099">
        <ele>143.3</ele>
        <time>2013-12-08T07:59:43Z</time>
      </trkpt>
      <trkpt lat="43.69777" lon="7.10991">
        <ele>143.9</ele>
        <time>2013-12-08T07:59:46Z</time>
      </trkpt>
      <trkpt lat="43.69787" lon="7.1099">
        <ele>144.1</ele>
        <time>2013-12-08T07:59:49Z</time>
      </trkpt>
      <trkpt lat="43.69798" lon="7.10989">
        <ele>144.3</ele>
        <time>2013-12-08T07:59:52Z</time>
      </trkpt>
      <trkpt lat="43.6981" lon="7.10985">
        <ele>144.5</ele>
        <time>2013-12-08T07:59:55Z</time>
      </trkpt>
      <trkpt lat="43.69821" lon="7.10981">
        <ele>144</ele>
        <time>2013-12-08T07:59:58Z</time>
      </trkpt>
      <trkpt lat="43.69844" lon="7.10969">
        <ele>144</ele>
        <time>2013-12-08T08:00:04Z</time>
      </trkpt>
      <trkpt lat="43.69856" lon="7.10963">
        <ele>144.4</ele>
        <time>2013-12-08T08:00:07Z</time>
      </trkpt>
      <trkpt lat="43.69867" lon="7.10957">
        <ele>144.7</ele>
        <time>2013-12-08T08:00:10Z</time>
      </trkpt>
      <trkpt lat="43.69879" lon="7.10951">
        <ele>145.1</ele>
        <time>2013-12-08T08:00:13Z</time>
      </trkpt>
      <trkpt lat="43.6989" lon="7.10946">
        <ele>146.1</ele>
        <time>2013-12-08T08:00:16Z</time>
      </trkpt>
      <trkpt lat="43.69948" lon="7.10935">
        <ele>146.4</ele>
        <time>2013-12-08T08:00:31Z</time>
      </trkpt>
      <trkpt lat="43.69959" lon="7.10943">
        <ele>146.5</ele>
        <time>2013-12-08T08:00:34Z</time>
      </trkpt>
      <trkpt lat="43.69966" lon="7.10956">
        <ele>146.2</ele>
        <time>2013-12-08T08:00:37Z</time>
      </trkpt>
      <trkpt lat="43.6997" lon="7.10972">
        <ele>146.4</ele>
        <time>2013-12-08T08:00:40Z</time>
      </trkpt>
      <trkpt lat="43.69971" lon="7.10988">
        <ele>147.2</ele>
        <time>2013-12-08T08:00:43Z</time>
      </trkpt>
      <trkpt lat="43.69969" lon="7.11004">
        <ele>148.2</ele>
        <time>2013-12-08T08:00:46Z</time>
      </trkpt>
      <trkpt lat="43.69965" lon="7.1102">
        <ele>148.6</ele>
        <time>2013-12-08T08:00:49Z</time>
      </trkpt>
      <trkpt lat="43.69961" lon="7.11035">
        <ele>148.9</ele>
        <time>2013-12-08T08:00:52Z</time>
      </trkpt>
      <trkpt lat="43.69955" lon="7.11051">
        <ele>148.8</ele>
        <time>2013-12-08T08:00:55Z</time>
      </trkpt>
      <trkpt lat="43.6995" lon="7.11066">
        <ele>149.1</ele>
        <time>2013-12-08T08:00:58Z</time>
      </trkpt>
      <trkpt lat="43.69945" lon="7.11082">
        <ele>149.9</ele>
        <time>2013-12-08T08:01:01Z</time>
      </trkpt>
      <trkpt lat="43.69935" lon="7.11112">
        <ele>150.2</ele>
        <time>2013-12-08T08:01:07Z</time>
      </trkpt>
      <trkpt lat="43.6993" lon="7.11127">
        <ele>150.4</ele>
        <time>2013-12-08T08:01:10Z</time>
      </trkpt>
      <trkpt lat="43.69925" lon="7.11142">
        <ele>150.3</ele>
        <time>2013-12-08T08:01:13Z</time>
      </trkpt>
      <trkpt lat="43.6992" lon="7.11156">
        <ele>150.7</ele>
        <time>2013-12-08T08:01:16Z</time>
      </trkpt>
      <trkpt lat="43.69915" lon="7.11171">
        <ele>151.3</ele>
        <time>2013-12-08T08:01:19Z</time>
      </trkpt>
      <trkpt lat="43.6991" lon="7.11186">
        <ele>151.9</ele>
        <time>2013-12-08T08:01:22Z</time>
      </trkpt>
      <trkpt lat="43.69905" lon="7.112">
        <ele>152.3</ele>
        <time>2013-12-08T08:01:25Z</time>
      </trkpt>
      <trkpt lat="43.699" lon="7.11215">
        <ele>152.6</ele>
        <time>2013-12-08T08:01:28Z</time>
      </trkpt>
      <trkpt lat="43.69895" lon="7.1123">
        <ele>152.9</ele>
        <time>2013-12-08T08:01:31Z</time>
      </trkpt>
      <trkpt lat="43.6989" lon="7.11245">
        <ele>153.2</ele>
        <time>2013-12-08T08:01:34Z</time>
      </trkpt>
      <trkpt lat="43.69886" lon="7.1126">
        <ele>153.8</ele>
        <time>2013-12-08T08:01:37Z</time>
      </trkpt>
      <trkpt lat="43.69881" lon="7.11275">
        <ele>154.5</ele>
        <time>2013-12-08T08:01:40Z</time>
      </trkpt>
      <trkpt lat="43.69876" lon="7.1129">
        <ele>154.7</ele>
        <time>2013-12-08T08:01:43Z</time>
      </trkpt>
      <trkpt lat="43.69871" lon="7.11304">
        <ele>154</ele>
        <time>2013-12-08T08:01:46Z</time>
      </trkpt>
      <trkpt lat="43.69867" lon="7.11319">
        <ele>154.5</ele>
        <time>2013-12-08T08:01:49Z</time>
      </trkpt>
      <trkpt lat="43.69863" lon="7.11334">
        <ele>155.1</ele>
        <time>2013-12-08T08:01:52Z</time>
      </trkpt>
      <trkpt lat="43.69859" lon="7.11348">
        <ele>155.4</ele>
        <time>2013-12-08T08:01:55Z</time>
      </trkpt>
      <trkpt lat="43.69856" lon="7.11363">
        <ele>155.7</ele>
        <time>2013-12-08T08:01:58Z</time>
      </trkpt>
      <trkpt lat="43.69852" lon="7.11377">
        <ele>155.8</ele>
        <time>2013-12-08T08:02:01Z</time>
      </trkpt>
      <trkpt lat="43.69849" lon="7.11391">
        <ele>156.1</ele>
        <time>2013-12-08T08:02:04Z</time>
      </trkpt>
      <trkpt lat="43.69842" lon="7.11421">
        <ele>156.4</ele>
        <time>2013-12-08T08:02:10Z</time>
      </trkpt>
      <trkpt lat="43.69839" lon="7.11436">
        <ele>156.9</ele>
        <time>2013-12-08T08:02:13Z</time>
      </trkpt>
      <trkpt lat="43.69836" lon="7.11451">
        <ele>157.2</ele>
        <time>2013-12-08T08:02:16Z</time>
      </trkpt>
      <trkpt lat="43.69834" lon="7.11466">
        <ele>157.5</ele>
        <time>2013-12-08T08:02:19Z</time>
      </trkpt>
      <trkpt lat="43.69832" lon="7.11481">
        <ele>157.7</ele>
        <time>2013-12-08T08:02:22Z</time>
      </trkpt>
      <trkpt lat="43.69831" lon="7.11496">
        <ele>157.9</ele>
        <time>2013-12-08T08:02:25Z</time>
      </trkpt>
      <trkpt lat="43.6983" lon="7.1151">
        <ele>158.3</ele>
        <time>2013-12-08T08:02:28Z</time>
      </trkpt>
      <trkpt lat="43.69828" lon="7.11524">
        <ele>159.1</ele>
        <time>2013-12-08T08:02:31Z</time>
      </trkpt>
      <trkpt lat="43.69826" lon="7.11537">
        <ele>159.3</ele>
        <time>2013-12-08T08:02:34Z</time>
      </trkpt>
      <trkpt lat="43.69825" lon="7.11549">
        <ele>160.4</ele>
        <time>2013-12-08T08:02:37Z</time>
      </trkpt>
      <trkpt lat="43.69823" lon="7.11562">
        <ele>161.2</ele>
        <time>2013-12-08T08:02:40Z</time>
      </trkpt>
      <trkpt lat="43.69821" lon="7.11576">
        <ele>161.7</ele>
        <time>2013-12-08T08:02:43Z</time>
      </trkpt>
      <trkpt lat="43.6982" lon="7.1159">
        <ele>163.1</ele>
        <time>2013-12-08T08:02:46Z</time>
      </trkpt>
      <trkpt lat="43.69818" lon="7.11604">
        <ele>164.4</ele>
        <time>2013-12-08T08:02:49Z</time>
      </trkpt>
      <trkpt lat="43.69816" lon="7.11618">
        <ele>164.5</ele>
        <time>2013-12-08T08:02:52Z</time>
      </trkpt>
      <trkpt lat="43.69814" lon="7.11631">
        <ele>164.5</ele>
        <time>2013-12-08T08:02:55Z</time>
      </trkpt>
      <trkpt lat="43.69812" lon="7.11644">
        <ele>165.3</ele>
        <time>2013-12-08T08:02:58Z</time>
      </trkpt>
      <trkpt lat="43.6981" lon="7.11657">
        <ele>165.1</ele>
        <time>2013-12-08T08:03:01Z</time>
      </trkpt>
      <trkpt lat="43.69808" lon="7.1167">
        <ele>165.7</ele>
        <time>2013-12-08T08:03:04Z</time>
      </trkpt>
      <trkpt lat="43.69805" lon="7.11682">
        <ele>166.6</ele>
        <time>2013-12-08T08:03:07Z</time>
      </trkpt>
      <trkpt lat="43.69799" lon="7.11707">
        <ele>169</ele>
        <time>2013-12-08T08:03:13Z</time>
      </trkpt>
      <trkpt lat="43.69797" lon="7.11719">
        <ele>169.3</ele>
        <time>2013-12-08T08:03:16Z</time>
      </trkpt>
      <trkpt lat="43.69796" lon="7.11734">
        <ele>170.5</ele>
        <time>2013-12-08T08:03:20Z</time>
      </trkpt>
      <trkpt lat="43.69797" lon="7.1175">
        <ele>170.8</ele>
        <time>2013-12-08T08:03:24Z</time>
      </trkpt>
      <trkpt lat="43.69801" lon="7.11765">
        <ele>172.1</ele>
        <time>2013-12-08T08:03:28Z</time>
      </trkpt>
      <trkpt lat="43.69806" lon="7.11777">
        <ele>172.7</ele>
        <time>2013-12-08T08:03:32Z</time>
      </trkpt>
      <trkpt lat="43.69813" lon="7.11789">
        <ele>173.4</ele>
        <time>2013-12-08T08:03:36Z</time>
      </trkpt>
      <trkpt lat="43.69821" lon="7.11798">
        <ele>173.9</ele>
        <time>2013-12-08T08:03:40Z</time>
      </trkpt>
      <trkpt lat="43.6983" lon="7.11805">
        <ele>174.6</ele>
        <time>2013-12-08T08:03:44Z</time>
      </trkpt>
      <trkpt lat="43.6984" lon="7.11809">
        <ele>175.1</ele>
        <time>2013-12-08T08:03:48Z</time>
      </trkpt>
      <trkpt lat="43.6985" lon="7.11811">
        <ele>175.7</ele>
        <time>2013-12-08T08:03:52Z</time>
      </trkpt>
      <trkpt lat="43.6986" lon="7.11812">
        <ele>175.4</ele>
        <time>2013-12-08T08:03:56Z</time>
      </trkpt>
      <trkpt lat="43.69871" lon="7.11814">
        <ele>176.6</ele>
        <time>2013-12-08T08:04:00Z</time>
      </trkpt>
      <trkpt lat="43.69883" lon="7.11815">
        <ele>177.1</ele>
        <time>2013-12-08T08:04:04Z</time>
      </trkpt>
      <trkpt lat="43.69894" lon="7.11817">
        <ele>178</ele>
        <time>2013-12-08T08:04:08Z</time>
      </trkpt>
      <trkpt lat="43.69915" lon="7.11823">
        <ele>179.6</ele>
        <time>2013-12-08T08:04:16Z</time>
      </trkpt>
      <trkpt lat="43.69926" lon="7.1183">
        <ele>180.5</ele>
        <time>2013-12-08T08:04:20Z</time>
      </trkpt>
      <trkpt lat="43.6993" lon="7.11841">
        <ele>181.4</ele>
        <time>2013-12-08T08:04:23Z</time>
      </trkpt>
      <trkpt lat="43.69935" lon="7.11855">
        <ele>182</ele>
        <time>2013-12-08T08:04:27Z</time>
      </trkpt>
      <trkpt lat="43.69936" lon="7.11869">
        <ele>182.6</ele>
        <time>2013-12-08T08:04:31Z</time>
      </trkpt>
      <trkpt lat="43.69936" lon="7.11885">
        <ele>183.9</ele>
        <time>2013-12-08T08:04:35Z</time>
      </trkpt>
      <trkpt lat="43.69933" lon="7.11899">
        <ele>183.8</ele>
        <time>2013-12-08T08:04:39Z</time>
      </trkpt>
      <trkpt lat="43.6993" lon="7.11914">
        <ele>183.9</ele>
        <time>2013-12-08T08:04:43Z</time>
      </trkpt>
      <trkpt lat="43.69927" lon="7.11928">
        <ele>185.2</ele>
        <time>2013-12-08T08:04:47Z</time>
      </trkpt>
      <trkpt lat="43.69924" lon="7.11942">
        <ele>185.5</ele>
        <time>2013-12-08T08:04:51Z</time>
      </trkpt>
      <trkpt lat="43.69922" lon="7.11957">
        <ele>185.9</ele>
        <time>2013-12-08T08:04:55Z</time>
      </trkpt>
      <trkpt lat="43.69921" lon="7.11972">
        <ele>187.5</ele>
        <time>2013-12-08T08:04:59Z</time>
      </trkpt>
      <trkpt lat="43.6992" lon="7.11987">
        <ele>188.3</ele>
        <time>2013-12-08T08:05:03Z</time>
      </trkpt>
      <trkpt lat="43.69921" lon="7.12004">
        <ele>188.2</ele>
        <time>2013-12-08T08:05:07Z</time>
      </trkpt>
      <trkpt lat="43.69922" lon="7.1202">
        <ele>188.9</ele>
        <time>2013-12-08T08:05:11Z</time>
      </trkpt>
      <trkpt lat="43.69923" lon="7.12052">
        <ele>190.4</ele>
        <time>2013-12-08T08:05:19Z</time>
      </trkpt>
      <trkpt lat="43.69923" lon="7.12068">
        <ele>190.8</ele>
        <time>2013-12-08T08:05:23Z</time>
      </trkpt>
      <trkpt lat="43.69921" lon="7.12084">
        <ele>191.7</ele>
        <time>2013-12-08T08:05:27Z</time>
      </trkpt>
      <trkpt lat="43.69919" lon="7.12098">
        <ele>192.4</ele>
        <time>2013-12-08T08:05:31Z</time>
      </trkpt>
      <trkpt lat="43.69917" lon="7.12114">
        <ele>192.2</ele>
        <time>2013-12-08T08:05:35Z</time>
      </trkpt>
      <trkpt lat="43.69917" lon="7.12126">
        <ele>192.5</ele>
        <time>2013-12-08T08:05:38Z</time>
      </trkpt>
      <trkpt lat="43.69917" lon="7.12142">
        <ele>193</ele>
        <time>2013-12-08T08:05:42Z</time>
      </trkpt>
      <trkpt lat="43.69919" lon="7.12154">
        <ele>193.9</ele>
        <time>2013-12-08T08:05:46Z</time>
      </trkpt>
      <trkpt lat="43.6992" lon="7.12167">
        <ele>193.4</ele>
        <time>2013-12-08T08:06:17Z</time>
      </trkpt>
      <trkpt lat="43.69942" lon="7.12142">
        <ele>193.3</ele>
        <time>2013-12-08T08:17:11Z</time>
      </trkpt>
      <trkpt lat="43.69947" lon="7.1213">
        <ele>196.3</ele>
        <time>2013-12-08T08:17:19Z</time>
      </trkpt>
      <trkpt lat="43.69952" lon="7.12117">
        <ele>197.3</ele>
        <time>2013-12-08T08:17:26Z</time>
      </trkpt>
      <trkpt lat="43.69956" lon="7.12104">
        <ele>200</ele>
        <time>2013-12-08T08:17:34Z</time>
      </trkpt>
      <trkpt lat="43.69959" lon="7.12092">
        <ele>202.4</ele>
        <time>2013-12-08T08:17:42Z</time>
      </trkpt>
      <trkpt lat="43.69962" lon="7.12079">
        <ele>203.9</ele>
        <time>2013-12-08T08:17:50Z</time>
      </trkpt>
      <trkpt lat="43.69967" lon="7.12068">
        <ele>205.5</ele>
        <time>2013-12-08T08:17:58Z</time>
      </trkpt>
      <trkpt lat="43.6997" lon="7.12054">
        <ele>207.1</ele>
        <time>2013-12-08T08:18:05Z</time>
      </trkpt>
      <trkpt lat="43.69976" lon="7.1203">
        <ele>210</ele>
        <time>2013-12-08T08:18:19Z</time>
      </trkpt>
      <trkpt lat="43.69975" lon="7.12017">
        <ele>212.3</ele>
        <time>2013-12-08T08:18:27Z</time>
      </trkpt>
      <trkpt lat="43.69979" lon="7.12004">
        <ele>213</ele>
        <time>2013-12-08T08:18:33Z</time>
      </trkpt>
      <trkpt lat="43.69984" lon="7.11992">
        <ele>213.6</ele>
        <time>2013-12-08T08:18:38Z</time>
      </trkpt>
      <trkpt lat="43.69987" lon="7.11979">
        <ele>214.7</ele>
        <time>2013-12-08T08:18:43Z</time>
      </trkpt>
      <trkpt lat="43.6999" lon="7.11967">
        <ele>215.7</ele>
        <time>2013-12-08T08:18:48Z</time>
      </trkpt>
      <trkpt lat="43.69995" lon="7.11956">
        <ele>216.4</ele>
        <time>2013-12-08T08:18:53Z</time>
      </trkpt>
      <trkpt lat="43.69997" lon="7.11943">
        <ele>216.9</ele>
        <time>2013-12-08T08:18:58Z</time>
      </trkpt>
      <trkpt lat="43.7" lon="7.11929">
        <ele>218</ele>
        <time>2013-12-08T08:19:03Z</time>
      </trkpt>
      <trkpt lat="43.70004" lon="7.11917">
        <ele>218.8</ele>
        <time>2013-12-08T08:19:08Z</time>
      </trkpt>
      <trkpt lat="43.70016" lon="7.11895">
        <ele>220.2</ele>
        <time>2013-12-08T08:19:18Z</time>
      </trkpt>
      <trkpt lat="43.70022" lon="7.11886">
        <ele>221.7</ele>
        <time>2013-12-08T08:19:23Z</time>
      </trkpt>
      <trkpt lat="43.70028" lon="7.11875">
        <ele>222.8</ele>
        <time>2013-12-08T08:19:29Z</time>
      </trkpt>
      <trkpt lat="43.70033" lon="7.11865">
        <ele>225</ele>
        <time>2013-12-08T08:19:53Z</time>
      </trkpt>
      <trkpt lat="43.70042" lon="7.11864">
        <ele>225.9</ele>
        <time>2013-12-08T08:20:06Z</time>
      </trkpt>
      <trkpt lat="43.7005" lon="7.11871">
        <ele>230</ele>
        <time>2013-12-08T08:20:27Z</time>
      </trkpt>
      <trkpt lat="43.70067" lon="7.11864">
        <ele>234</ele>
        <time>2013-12-08T08:20:58Z</time>
      </trkpt>
      <trkpt lat="43.70074" lon="7.11856">
        <ele>235.1</ele>
        <time>2013-12-08T08:21:03Z</time>
      </trkpt>
      <trkpt lat="43.70083" lon="7.11847">
        <ele>235.2</ele>
        <time>2013-12-08T08:21:09Z</time>
      </trkpt>
      <trkpt lat="43.7009" lon="7.11839">
        <ele>235.7</ele>
        <time>2013-12-08T08:21:14Z</time>
      </trkpt>
      <trkpt lat="43.70099" lon="7.11831">
        <ele>237.1</ele>
        <time>2013-12-08T08:21:19Z</time>
      </trkpt>
      <trkpt lat="43.70107" lon="7.11823">
        <ele>237.6</ele>
        <time>2013-12-08T08:21:24Z</time>
      </trkpt>
      <trkpt lat="43.70115" lon="7.11815">
        <ele>238.3</ele>
        <time>2013-12-08T08:21:31Z</time>
      </trkpt>
      <trkpt lat="43.70135" lon="7.11786">
        <ele>237</ele>
        <time>2013-12-08T08:24:49Z</time>
      </trkpt>
      <trkpt lat="43.70144" lon="7.11776">
        <ele>236.8</ele>
        <time>2013-12-08T08:24:53Z</time>
      </trkpt>
      <trkpt lat="43.70154" lon="7.11768">
        <ele>238.3</ele>
        <time>2013-12-08T08:24:57Z</time>
      </trkpt>
      <trkpt lat="43.70163" lon="7.11762">
        <ele>237.8</ele>
        <time>2013-12-08T08:25:00Z</time>
      </trkpt>
      <trkpt lat="43.70173" lon="7.11756">
        <ele>237.7</ele>
        <time>2013-12-08T08:25:03Z</time>
      </trkpt>
      <trkpt lat="43.70184" lon="7.11752">
        <ele>237.6</ele>
        <time>2013-12-08T08:25:06Z</time>
      </trkpt>
      <trkpt lat="43.70195" lon="7.11751">
        <ele>238</ele>
        <time>2013-12-08T08:25:09Z</time>
      </trkpt>
      <trkpt lat="43.70206" lon="7.11749">
        <ele>237.9</ele>
        <time>2013-12-08T08:25:12Z</time>
      </trkpt>
      <trkpt lat="43.70219" lon="7.11746">
        <ele>237.6</ele>
        <time>2013-12-08T08:25:15Z</time>
      </trkpt>
      <trkpt lat="43.70228" lon="7.11745">
        <ele>237.4</ele>
        <time>2013-12-08T08:25:17Z</time>
      </trkpt>
      <trkpt lat="43.7024" lon="7.11744">
        <ele>236.9</ele>
        <time>2013-12-08T08:25:20Z</time>
      </trkpt>
      <trkpt lat="43.70251" lon="7.11743">
        <ele>237</ele>
        <time>2013-12-08T08:25:23Z</time>
      </trkpt>
      <trkpt lat="43.70261" lon="7.11742">
        <ele>237.5</ele>
        <time>2013-12-08T08:25:26Z</time>
      </trkpt>
      <trkpt lat="43.70271" lon="7.11742">
        <ele>237.7</ele>
        <time>2013-12-08T08:25:29Z</time>
      </trkpt>
      <trkpt lat="43.70282" lon="7.11741">
        <ele>238.6</ele>
        <time>2013-12-08T08:25:32Z</time>
      </trkpt>
      <trkpt lat="43.70293" lon="7.1174">
        <ele>238.8</ele>
        <time>2013-12-08T08:25:35Z</time>
      </trkpt>
      <trkpt lat="43.70304" lon="7.11739">
        <ele>238.3</ele>
        <time>2013-12-08T08:25:38Z</time>
      </trkpt>
      <trkpt lat="43.70316" lon="7.11737">
        <ele>238</ele>
        <time>2013-12-08T08:25:41Z</time>
      </trkpt>
      <trkpt lat="43.70327" lon="7.11733">
        <ele>237.4</ele>
        <time>2013-12-08T08:25:44Z</time>
      </trkpt>
      <trkpt lat="43.70348" lon="7.11718">
        <ele>239.1</ele>
        <time>2013-12-08T08:25:50Z</time>
      </trkpt>
      <trkpt lat="43.70358" lon="7.1171">
        <ele>239</ele>
        <time>2013-12-08T08:25:53Z</time>
      </trkpt>
      <trkpt lat="43.70369" lon="7.11702">
        <ele>239.5</ele>
        <time>2013-12-08T08:25:56Z</time>
      </trkpt>
      <trkpt lat="43.7038" lon="7.11694">
        <ele>239.8</ele>
        <time>2013-12-08T08:25:59Z</time>
      </trkpt>
      <trkpt lat="43.70389" lon="7.11686">
        <ele>239.8</ele>
        <time>2013-12-08T08:26:02Z</time>
      </trkpt>
      <trkpt lat="43.704" lon="7.11678">
        <ele>239.8</ele>
        <time>2013-12-08T08:26:05Z</time>
      </trkpt>
      <trkpt lat="43.7041" lon="7.11671">
        <ele>239.1</ele>
        <time>2013-12-08T08:26:08Z</time>
      </trkpt>
      <trkpt lat="43.70421" lon="7.11664">
        <ele>239</ele>
        <time>2013-12-08T08:26:11Z</time>
      </trkpt>
      <trkpt lat="43.70431" lon="7.11657">
        <ele>239.5</ele>
        <time>2013-12-08T08:26:14Z</time>
      </trkpt>
      <trkpt lat="43.70441" lon="7.11651">
        <ele>239.9</ele>
        <time>2013-12-08T08:26:17Z</time>
      </trkpt>
      <trkpt lat="43.70451" lon="7.11645">
        <ele>241.2</ele>
        <time>2013-12-08T08:26:21Z</time>
      </trkpt>
      <trkpt lat="43.70461" lon="7.11636">
        <ele>241.7</ele>
        <time>2013-12-08T08:26:27Z</time>
      </trkpt>
      <trkpt lat="43.70468" lon="7.11627">
        <ele>242.1</ele>
        <time>2013-12-08T08:26:29Z</time>
      </trkpt>
      <trkpt lat="43.70476" lon="7.11619">
        <ele>242</ele>
        <time>2013-12-08T08:26:31Z</time>
      </trkpt>
      <trkpt lat="43.70484" lon="7.1161">
        <ele>241.7</ele>
        <time>2013-12-08T08:26:33Z</time>
      </trkpt>
      <trkpt lat="43.70491" lon="7.11602">
        <ele>240.8</ele>
        <time>2013-12-08T08:26:35Z</time>
      </trkpt>
      <trkpt lat="43.70498" lon="7.11593">
        <ele>240.2</ele>
        <time>2013-12-08T08:26:37Z</time>
      </trkpt>
      <trkpt lat="43.70505" lon="7.11585">
        <ele>241.4</ele>
        <time>2013-12-08T08:26:39Z</time>
      </trkpt>
      <trkpt lat="43.70512" lon="7.11576">
        <ele>242.4</ele>
        <time>2013-12-08T08:26:41Z</time>
      </trkpt>
      <trkpt lat="43.7052" lon="7.11563">
        <ele>242.8</ele>
        <time>2013-12-08T08:26:44Z</time>
      </trkpt>
      <trkpt lat="43.70527" lon="7.11548">
        <ele>242.8</ele>
        <time>2013-12-08T08:26:47Z</time>
      </trkpt>
      <trkpt lat="43.70538" lon="7.11527">
        <ele>243.2</ele>
        <time>2013-12-08T08:26:51Z</time>
      </trkpt>
      <trkpt lat="43.70546" lon="7.11512">
        <ele>243.4</ele>
        <time>2013-12-08T08:26:54Z</time>
      </trkpt>
      <trkpt lat="43.70552" lon="7.115">
        <ele>243.5</ele>
        <time>2013-12-08T08:26:57Z</time>
      </trkpt>
      <trkpt lat="43.70559" lon="7.11486">
        <ele>243.9</ele>
        <time>2013-12-08T08:27:00Z</time>
      </trkpt>
      <trkpt lat="43.70566" lon="7.11474">
        <ele>244.7</ele>
        <time>2013-12-08T08:27:03Z</time>
      </trkpt>
      <trkpt lat="43.70572" lon="7.11463">
        <ele>244.6</ele>
        <time>2013-12-08T08:27:06Z</time>
      </trkpt>
      <trkpt lat="43.70578" lon="7.11453">
        <ele>244.9</ele>
        <time>2013-12-08T08:27:09Z</time>
      </trkpt>
      <trkpt lat="43.70584" lon="7.11441">
        <ele>246</ele>
        <time>2013-12-08T08:27:12Z</time>
      </trkpt>
      <trkpt lat="43.7059" lon="7.11428">
        <ele>246.8</ele>
        <time>2013-12-08T08:27:15Z</time>
      </trkpt>
      <trkpt lat="43.70595" lon="7.11415">
        <ele>247</ele>
        <time>2013-12-08T08:27:18Z</time>
      </trkpt>
      <trkpt lat="43.70601" lon="7.11402">
        <ele>246.8</ele>
        <time>2013-12-08T08:27:21Z</time>
      </trkpt>
      <trkpt lat="43.70607" lon="7.1139">
        <ele>246.6</ele>
        <time>2013-12-08T08:27:24Z</time>
      </trkpt>
      <trkpt lat="43.70615" lon="7.11379">
        <ele>246.5</ele>
        <time>2013-12-08T08:27:27Z</time>
      </trkpt>
      <trkpt lat="43.70623" lon="7.11369">
        <ele>246.9</ele>
        <time>2013-12-08T08:27:30Z</time>
      </trkpt>
      <trkpt lat="43.7063" lon="7.11359">
        <ele>247.8</ele>
        <time>2013-12-08T08:27:33Z</time>
      </trkpt>
      <trkpt lat="43.70638" lon="7.11348">
        <ele>248.2</ele>
        <time>2013-12-08T08:27:36Z</time>
      </trkpt>
      <trkpt lat="43.70646" lon="7.11336">
        <ele>248.8</ele>
        <time>2013-12-08T08:27:39Z</time>
      </trkpt>
      <trkpt lat="43.70651" lon="7.11324">
        <ele>249.1</ele>
        <time>2013-12-08T08:27:42Z</time>
      </trkpt>
      <trkpt lat="43.70658" lon="7.11316">
        <ele>249.5</ele>
        <time>2013-12-08T08:27:45Z</time>
      </trkpt>
      <trkpt lat="43.70666" lon="7.11307">
        <ele>250.3</ele>
        <time>2013-12-08T08:27:49Z</time>
      </trkpt>
      <trkpt lat="43.70682" lon="7.1131">
        <ele>250.7</ele>
        <time>2013-12-08T08:27:59Z</time>
      </trkpt>
      <trkpt lat="43.70689" lon="7.11318">
        <ele>252.8</ele>
        <time>2013-12-08T08:28:05Z</time>
      </trkpt>
      <trkpt lat="43.70695" lon="7.11328">
        <ele>252.8</ele>
        <time>2013-12-08T08:28:12Z</time>
      </trkpt>
      <trkpt lat="43.70697" lon="7.11341">
        <ele>253.7</ele>
        <time>2013-12-08T08:28:18Z</time>
      </trkpt>
      <trkpt lat="43.70707" lon="7.11345">
        <ele>254.4</ele>
        <time>2013-12-08T08:28:23Z</time>
      </trkpt>
      <trkpt lat="43.70717" lon="7.11348">
        <ele>254.5</ele>
        <time>2013-12-08T08:28:28Z</time>
      </trkpt>
      <trkpt lat="43.70726" lon="7.11347">
        <ele>255.3</ele>
        <time>2013-12-08T08:28:33Z</time>
      </trkpt>
      <trkpt lat="43.70735" lon="7.11346">
        <ele>256.8</ele>
        <time>2013-12-08T08:28:38Z</time>
      </trkpt>
      <trkpt lat="43.70745" lon="7.11342">
        <ele>257.6</ele>
        <time>2013-12-08T08:28:43Z</time>
      </trkpt>
      <trkpt lat="43.70752" lon="7.11335">
        <ele>258.3</ele>
        <time>2013-12-08T08:28:48Z</time>
      </trkpt>
      <trkpt lat="43.70756" lon="7.11323">
        <ele>258.4</ele>
        <time>2013-12-08T08:28:53Z</time>
      </trkpt>
      <trkpt lat="43.70771" lon="7.11307">
        <ele>260.5</ele>
        <time>2013-12-08T08:29:01Z</time>
      </trkpt>
      <trkpt lat="43.70779" lon="7.11299">
        <ele>260.7</ele>
        <time>2013-12-08T08:29:05Z</time>
      </trkpt>
      <trkpt lat="43.70787" lon="7.11292">
        <ele>261.7</ele>
        <time>2013-12-08T08:29:09Z</time>
      </trkpt>
      <trkpt lat="43.70796" lon="7.11283">
        <ele>261.8</ele>
        <time>2013-12-08T08:29:14Z</time>
      </trkpt>
      <trkpt lat="43.70805" lon="7.11275">
        <ele>262.8</ele>
        <time>2013-12-08T08:29:19Z</time>
      </trkpt>
      <trkpt lat="43.70813" lon="7.11267">
        <ele>263.5</ele>
        <time>2013-12-08T08:29:24Z</time>
      </trkpt>
      <trkpt lat="43.70823" lon="7.11259">
        <ele>265.6</ele>
        <time>2013-12-08T08:29:29Z</time>
      </trkpt>
      <trkpt lat="43.70832" lon="7.1125">
        <ele>266</ele>
        <time>2013-12-08T08:29:34Z</time>
      </trkpt>
      <trkpt lat="43.70839" lon="7.11241">
        <ele>267.1</ele>
        <time>2013-12-08T08:29:39Z</time>
      </trkpt>
      <trkpt lat="43.70847" lon="7.11232">
        <ele>268.4</ele>
        <time>2013-12-08T08:29:44Z</time>
      </trkpt>
      <trkpt lat="43.70855" lon="7.11222">
        <ele>269.2</ele>
        <time>2013-12-08T08:29:49Z</time>
      </trkpt>
      <trkpt lat="43.70864" lon="7.11214">
        <ele>271.3</ele>
        <time>2013-12-08T08:29:54Z</time>
      </trkpt>
      <trkpt lat="43.70881" lon="7.112">
        <ele>272.4</ele>
        <time>2013-12-08T08:30:04Z</time>
      </trkpt>
      <trkpt lat="43.70891" lon="7.11192">
        <ele>274.2</ele>
        <time>2013-12-08T08:30:09Z</time>
      </trkpt>
      <trkpt lat="43.70899" lon="7.11186">
        <ele>275.3</ele>
        <time>2013-12-08T08:30:13Z</time>
      </trkpt>
      <trkpt lat="43.70907" lon="7.11178">
        <ele>276.4</ele>
        <time>2013-12-08T08:30:18Z</time>
      </trkpt>
      <trkpt lat="43.70915" lon="7.1117">
        <ele>278.5</ele>
        <time>2013-12-08T08:30:23Z</time>
      </trkpt>
      <trkpt lat="43.70924" lon="7.11162">
        <ele>278.3</ele>
        <time>2013-12-08T08:30:28Z</time>
      </trkpt>
      <trkpt lat="43.70931" lon="7.11154">
        <ele>279.4</ele>
        <time>2013-12-08T08:30:33Z</time>
      </trkpt>
      <trkpt lat="43.70939" lon="7.11145">
        <ele>281</ele>
        <time>2013-12-08T08:30:38Z</time>
      </trkpt>
      <trkpt lat="43.70947" lon="7.11136">
        <ele>282.5</ele>
        <time>2013-12-08T08:30:44Z</time>
      </trkpt>
      <trkpt lat="43.70954" lon="7.11127">
        <ele>283.1</ele>
        <time>2013-12-08T08:30:50Z</time>
      </trkpt>
      <trkpt lat="43.70962" lon="7.1112">
        <ele>284.6</ele>
        <time>2013-12-08T08:30:55Z</time>
      </trkpt>
      <trkpt lat="43.70978" lon="7.11103">
        <ele>286.7</ele>
        <time>2013-12-08T08:31:06Z</time>
      </trkpt>
      <trkpt lat="43.70985" lon="7.11095">
        <ele>288.2</ele>
        <time>2013-12-08T08:31:11Z</time>
      </trkpt>
      <trkpt lat="43.70991" lon="7.11084">
        <ele>288.8</ele>
        <time>2013-12-08T08:31:16Z</time>
      </trkpt>
      <trkpt lat="43.70996" lon="7.11072">
        <ele>290.4</ele>
        <time>2013-12-08T08:31:22Z</time>
      </trkpt>
      <trkpt lat="43.70993" lon="7.11058">
        <ele>290.1</ele>
        <time>2013-12-08T08:31:28Z</time>
      </trkpt>
      <trkpt lat="43.70989" lon="7.11047">
        <ele>291.3</ele>
        <time>2013-12-08T08:31:34Z</time>
      </trkpt>
      <trkpt lat="43.70989" lon="7.11034">
        <ele>292.9</ele>
        <time>2013-12-08T08:31:39Z</time>
      </trkpt>
      <trkpt lat="43.70994" lon="7.11021">
        <ele>293.6</ele>
        <time>2013-12-08T08:31:45Z</time>
      </trkpt>
      <trkpt lat="43.71" lon="7.11012">
        <ele>294.8</ele>
        <time>2013-12-08T08:31:50Z</time>
      </trkpt>
      <trkpt lat="43.71007" lon="7.11002">
        <ele>295.4</ele>
        <time>2013-12-08T08:31:56Z</time>
      </trkpt>
      <trkpt lat="43.7102" lon="7.10982">
        <ele>297.9</ele>
        <time>2013-12-08T08:32:07Z</time>
      </trkpt>
      <trkpt lat="43.71026" lon="7.10969">
        <ele>298.8</ele>
        <time>2013-12-08T08:32:13Z</time>
      </trkpt>
      <trkpt lat="43.71029" lon="7.10957">
        <ele>300.2</ele>
        <time>2013-12-08T08:32:18Z</time>
      </trkpt>
      <trkpt lat="43.71027" lon="7.10944">
        <ele>301.1</ele>
        <time>2013-12-08T08:32:23Z</time>
      </trkpt>
      <trkpt lat="43.71024" lon="7.10931">
        <ele>301.2</ele>
        <time>2013-12-08T08:32:28Z</time>
      </trkpt>
      <trkpt lat="43.71021" lon="7.10917">
        <ele>303.6</ele>
        <time>2013-12-08T08:32:34Z</time>
      </trkpt>
      <trkpt lat="43.71022" lon="7.10903">
        <ele>305.1</ele>
        <time>2013-12-08T08:32:40Z</time>
      </trkpt>
      <trkpt lat="43.71027" lon="7.10891">
        <ele>306.7</ele>
        <time>2013-12-08T08:32:47Z</time>
      </trkpt>
      <trkpt lat="43.71028" lon="7.10878">
        <ele>309</ele>
        <time>2013-12-08T08:33:46Z</time>
      </trkpt>
      <trkpt lat="43.71045" lon="7.10886">
        <ele>307.6</ele>
        <time>2013-12-08T08:39:31Z</time>
      </trkpt>
      <trkpt lat="43.71067" lon="7.10858">
        <ele>308.3</ele>
        <time>2013-12-08T08:40:44Z</time>
      </trkpt>
      <trkpt lat="43.71077" lon="7.1085">
        <ele>309.8</ele>
        <time>2013-12-08T08:40:49Z</time>
      </trkpt>
      <trkpt lat="43.71085" lon="7.1084">
        <ele>310.4</ele>
        <time>2013-12-08T08:40:53Z</time>
      </trkpt>
      <trkpt lat="43.71093" lon="7.10832">
        <ele>310.8</ele>
        <time>2013-12-08T08:40:57Z</time>
      </trkpt>
      <trkpt lat="43.71102" lon="7.10823">
        <ele>310.7</ele>
        <time>2013-12-08T08:41:01Z</time>
      </trkpt>
      <trkpt lat="43.71109" lon="7.10812">
        <ele>311.3</ele>
        <time>2013-12-08T08:41:04Z</time>
      </trkpt>
      <trkpt lat="43.71117" lon="7.108">
        <ele>312.3</ele>
        <time>2013-12-08T08:41:08Z</time>
      </trkpt>
      <trkpt lat="43.71127" lon="7.1079">
        <ele>311.7</ele>
        <time>2013-12-08T08:41:12Z</time>
      </trkpt>
      <trkpt lat="43.71135" lon="7.10777">
        <ele>311.2</ele>
        <time>2013-12-08T08:41:15Z</time>
      </trkpt>
      <trkpt lat="43.71141" lon="7.10768">
        <ele>310.6</ele>
        <time>2013-12-08T08:41:18Z</time>
      </trkpt>
      <trkpt lat="43.71147" lon="7.10757">
        <ele>309.7</ele>
        <time>2013-12-08T08:41:21Z</time>
      </trkpt>
      <trkpt lat="43.71154" lon="7.10743">
        <ele>309.2</ele>
        <time>2013-12-08T08:41:24Z</time>
      </trkpt>
      <trkpt lat="43.71157" lon="7.10728">
        <ele>308.5</ele>
        <time>2013-12-08T08:41:28Z</time>
      </trkpt>
      <trkpt lat="43.71159" lon="7.10716">
        <ele>308</ele>
        <time>2013-12-08T08:41:32Z</time>
      </trkpt>
      <trkpt lat="43.71167" lon="7.10706">
        <ele>306.5</ele>
        <time>2013-12-08T08:41:35Z</time>
      </trkpt>
      <trkpt lat="43.71167" lon="7.10676">
        <ele>304.9</ele>
        <time>2013-12-08T08:41:40Z</time>
      </trkpt>
      <trkpt lat="43.71165" lon="7.10659">
        <ele>303.8</ele>
        <time>2013-12-08T08:41:42Z</time>
      </trkpt>
      <trkpt lat="43.71162" lon="7.1064">
        <ele>302.8</ele>
        <time>2013-12-08T08:41:44Z</time>
      </trkpt>
      <trkpt lat="43.71158" lon="7.1062">
        <ele>301.9</ele>
        <time>2013-12-08T08:41:46Z</time>
      </trkpt>
      <trkpt lat="43.71156" lon="7.10595">
        <ele>300.9</ele>
        <time>2013-12-08T08:41:48Z</time>
      </trkpt>
      <trkpt lat="43.71154" lon="7.10576">
        <ele>298.5</ele>
        <time>2013-12-08T08:41:50Z</time>
      </trkpt>
      <trkpt lat="43.7115" lon="7.10563">
        <ele>295.8</ele>
        <time>2013-12-08T08:41:52Z</time>
      </trkpt>
      <trkpt lat="43.71142" lon="7.10553">
        <ele>294.4</ele>
        <time>2013-12-08T08:41:54Z</time>
      </trkpt>
      <trkpt lat="43.71131" lon="7.10544">
        <ele>293.7</ele>
        <time>2013-12-08T08:41:56Z</time>
      </trkpt>
      <trkpt lat="43.7112" lon="7.10536">
        <ele>291.9</ele>
        <time>2013-12-08T08:41:58Z</time>
      </trkpt>
      <trkpt lat="43.71115" lon="7.10524">
        <ele>289.5</ele>
        <time>2013-12-08T08:42:01Z</time>
      </trkpt>
      <trkpt lat="43.71122" lon="7.10511">
        <ele>287.8</ele>
        <time>2013-12-08T08:42:04Z</time>
      </trkpt>
      <trkpt lat="43.71125" lon="7.10497">
        <ele>287.3</ele>
        <time>2013-12-08T08:42:07Z</time>
      </trkpt>
      <trkpt lat="43.71127" lon="7.10481">
        <ele>287.5</ele>
        <time>2013-12-08T08:42:10Z</time>
      </trkpt>
      <trkpt lat="43.71129" lon="7.10465">
        <ele>287.6</ele>
        <time>2013-12-08T08:42:13Z</time>
      </trkpt>
      <trkpt lat="43.71132" lon="7.10448">
        <ele>287.6</ele>
        <time>2013-12-08T08:42:16Z</time>
      </trkpt>
      <trkpt lat="43.71135" lon="7.10432">
        <ele>288.4</ele>
        <time>2013-12-08T08:42:19Z</time>
      </trkpt>
      <trkpt lat="43.71137" lon="7.10416">
        <ele>289</ele>
        <time>2013-12-08T08:42:22Z</time>
      </trkpt>
      <trkpt lat="43.7114" lon="7.10401">
        <ele>289.5</ele>
        <time>2013-12-08T08:42:25Z</time>
      </trkpt>
      <trkpt lat="43.71143" lon="7.10386">
        <ele>289</ele>
        <time>2013-12-08T08:42:28Z</time>
      </trkpt>
      <trkpt lat="43.71145" lon="7.10371">
        <ele>290.1</ele>
        <time>2013-12-08T08:42:31Z</time>
      </trkpt>
      <trkpt lat="43.71147" lon="7.10357">
        <ele>290.2</ele>
        <time>2013-12-08T08:42:34Z</time>
      </trkpt>
      <trkpt lat="43.71149" lon="7.10342">
        <ele>291.9</ele>
        <time>2013-12-08T08:42:37Z</time>
      </trkpt>
      <trkpt lat="43.71155" lon="7.10315">
        <ele>293.4</ele>
        <time>2013-12-08T08:42:43Z</time>
      </trkpt>
      <trkpt lat="43.71158" lon="7.10301">
        <ele>293.3</ele>
        <time>2013-12-08T08:42:46Z</time>
      </trkpt>
      <trkpt lat="43.71161" lon="7.10287">
        <ele>293.3</ele>
        <time>2013-12-08T08:42:49Z</time>
      </trkpt>
      <trkpt lat="43.71164" lon="7.10273">
        <ele>293.9</ele>
        <time>2013-12-08T08:42:52Z</time>
      </trkpt>
      <trkpt lat="43.71168" lon="7.10258">
        <ele>293.7</ele>
        <time>2013-12-08T08:42:55Z</time>
      </trkpt>
      <trkpt lat="43.71171" lon="7.10243">
        <ele>294.1</ele>
        <time>2013-12-08T08:42:58Z</time>
      </trkpt>
      <trkpt lat="43.71173" lon="7.10228">
        <ele>294.8</ele>
        <time>2013-12-08T08:43:01Z</time>
      </trkpt>
      <trkpt lat="43.71177" lon="7.10215">
        <ele>295.9</ele>
        <time>2013-12-08T08:43:04Z</time>
      </trkpt>
      <trkpt lat="43.71179" lon="7.102">
        <ele>297</ele>
        <time>2013-12-08T08:43:07Z</time>
      </trkpt>
      <trkpt lat="43.71182" lon="7.10186">
        <ele>297.6</ele>
        <time>2013-12-08T08:43:10Z</time>
      </trkpt>
      <trkpt lat="43.71185" lon="7.10172">
        <ele>297.3</ele>
        <time>2013-12-08T08:43:13Z</time>
      </trkpt>
      <trkpt lat="43.71189" lon="7.10158">
        <ele>296.8</ele>
        <time>2013-12-08T08:43:16Z</time>
      </trkpt>
      <trkpt lat="43.71195" lon="7.10147">
        <ele>296.6</ele>
        <time>2013-12-08T08:43:19Z</time>
      </trkpt>
      <trkpt lat="43.71202" lon="7.10135">
        <ele>297.5</ele>
        <time>2013-12-08T08:43:22Z</time>
      </trkpt>
      <trkpt lat="43.71209" lon="7.10123">
        <ele>298</ele>
        <time>2013-12-08T08:43:25Z</time>
      </trkpt>
      <trkpt lat="43.71215" lon="7.10111">
        <ele>298.7</ele>
        <time>2013-12-08T08:43:28Z</time>
      </trkpt>
      <trkpt lat="43.71221" lon="7.10099">
        <ele>299</ele>
        <time>2013-12-08T08:43:31Z</time>
      </trkpt>
      <trkpt lat="43.71228" lon="7.10087">
        <ele>299.5</ele>
        <time>2013-12-08T08:43:34Z</time>
      </trkpt>
      <trkpt lat="43.71235" lon="7.10076">
        <ele>299.7</ele>
        <time>2013-12-08T08:43:37Z</time>
      </trkpt>
      <trkpt lat="43.71242" lon="7.10065">
        <ele>300.8</ele>
        <time>2013-12-08T08:43:40Z</time>
      </trkpt>
      <trkpt lat="43.71257" lon="7.10044">
        <ele>301.1</ele>
        <time>2013-12-08T08:43:46Z</time>
      </trkpt>
      <trkpt lat="43.71265" lon="7.10033">
        <ele>301.5</ele>
        <time>2013-12-08T08:43:49Z</time>
      </trkpt>
      <trkpt lat="43.71273" lon="7.10024">
        <ele>301.6</ele>
        <time>2013-12-08T08:43:52Z</time>
      </trkpt>
      <trkpt lat="43.71281" lon="7.10013">
        <ele>301.6</ele>
        <time>2013-12-08T08:43:55Z</time>
      </trkpt>
      <trkpt lat="43.71288" lon="7.10002">
        <ele>301.8</ele>
        <time>2013-12-08T08:43:58Z</time>
      </trkpt>
      <trkpt lat="43.71296" lon="7.0999">
        <ele>301.4</ele>
        <time>2013-12-08T08:44:01Z</time>
      </trkpt>
      <trkpt lat="43.71303" lon="7.09979">
        <ele>301.2</ele>
        <time>2013-12-08T08:44:04Z</time>
      </trkpt>
      <trkpt lat="43.71311" lon="7.09967">
        <ele>302.3</ele>
        <time>2013-12-08T08:44:07Z</time>
      </trkpt>
      <trkpt lat="43.71319" lon="7.09957">
        <ele>302.2</ele>
        <time>2013-12-08T08:44:10Z</time>
      </trkpt>
      <trkpt lat="43.71326" lon="7.09944">
        <ele>302.5</ele>
        <time>2013-12-08T08:44:13Z</time>
      </trkpt>
      <trkpt lat="43.71331" lon="7.09929">
        <ele>303.5</ele>
        <time>2013-12-08T08:44:16Z</time>
      </trkpt>
      <trkpt lat="43.71333" lon="7.09915">
        <ele>303.9</ele>
        <time>2013-12-08T08:44:19Z</time>
      </trkpt>
      <trkpt lat="43.71335" lon="7.09901">
        <ele>303.7</ele>
        <time>2013-12-08T08:44:22Z</time>
      </trkpt>
      <trkpt lat="43.71333" lon="7.09888">
        <ele>304.7</ele>
        <time>2013-12-08T08:44:25Z</time>
      </trkpt>
      <trkpt lat="43.71329" lon="7.09876">
        <ele>305.7</ele>
        <time>2013-12-08T08:44:28Z</time>
      </trkpt>
      <trkpt lat="43.71332" lon="7.09863">
        <ele>307</ele>
        <time>2013-12-08T08:44:31Z</time>
      </trkpt>
      <trkpt lat="43.71336" lon="7.09851">
        <ele>306.8</ele>
        <time>2013-12-08T08:44:34Z</time>
      </trkpt>
      <trkpt lat="43.7134" lon="7.09837">
        <ele>306.6</ele>
        <time>2013-12-08T08:44:37Z</time>
      </trkpt>
      <trkpt lat="43.71345" lon="7.09822">
        <ele>307.5</ele>
        <time>2013-12-08T08:44:41Z</time>
      </trkpt>
      <trkpt lat="43.7135" lon="7.09794">
        <ele>309.3</ele>
        <time>2013-12-08T08:44:47Z</time>
      </trkpt>
      <trkpt lat="43.7135" lon="7.09781">
        <ele>310.1</ele>
        <time>2013-12-08T08:44:50Z</time>
      </trkpt>
      <trkpt lat="43.71351" lon="7.09767">
        <ele>311.6</ele>
        <time>2013-12-08T08:44:54Z</time>
      </trkpt>
      <trkpt lat="43.71353" lon="7.09754">
        <ele>311.4</ele>
        <time>2013-12-08T08:44:57Z</time>
      </trkpt>
      <trkpt lat="43.71354" lon="7.09741">
        <ele>311.7</ele>
        <time>2013-12-08T08:45:00Z</time>
      </trkpt>
      <trkpt lat="43.71356" lon="7.09729">
        <ele>312.6</ele>
        <time>2013-12-08T08:45:03Z</time>
      </trkpt>
      <trkpt lat="43.71355" lon="7.09716">
        <ele>313.6</ele>
        <time>2013-12-08T08:45:07Z</time>
      </trkpt>
      <trkpt lat="43.71357" lon="7.097">
        <ele>314.9</ele>
        <time>2013-12-08T08:45:11Z</time>
      </trkpt>
      <trkpt lat="43.71359" lon="7.09685">
        <ele>314.9</ele>
        <time>2013-12-08T08:45:14Z</time>
      </trkpt>
      <trkpt lat="43.71362" lon="7.0967">
        <ele>315.3</ele>
        <time>2013-12-08T08:45:17Z</time>
      </trkpt>
      <trkpt lat="43.71364" lon="7.09655">
        <ele>315.7</ele>
        <time>2013-12-08T08:45:20Z</time>
      </trkpt>
      <trkpt lat="43.71368" lon="7.09642">
        <ele>315.2</ele>
        <time>2013-12-08T08:45:23Z</time>
      </trkpt>
      <trkpt lat="43.71372" lon="7.0963">
        <ele>316.5</ele>
        <time>2013-12-08T08:45:26Z</time>
      </trkpt>
      <trkpt lat="43.71375" lon="7.09617">
        <ele>316.4</ele>
        <time>2013-12-08T08:45:29Z</time>
      </trkpt>
      <trkpt lat="43.71378" lon="7.09602">
        <ele>316.3</ele>
        <time>2013-12-08T08:45:33Z</time>
      </trkpt>
      <trkpt lat="43.71381" lon="7.0959">
        <ele>316.9</ele>
        <time>2013-12-08T08:45:36Z</time>
      </trkpt>
      <trkpt lat="43.71383" lon="7.09577">
        <ele>317.4</ele>
        <time>2013-12-08T08:45:39Z</time>
      </trkpt>
      <trkpt lat="43.71388" lon="7.09565">
        <ele>318</ele>
        <time>2013-12-08T08:45:42Z</time>
      </trkpt>
      <trkpt lat="43.71393" lon="7.09538">
        <ele>318.2</ele>
        <time>2013-12-08T08:45:48Z</time>
      </trkpt>
      <trkpt lat="43.71395" lon="7.09524">
        <ele>317.8</ele>
        <time>2013-12-08T08:45:51Z</time>
      </trkpt>
      <trkpt lat="43.71398" lon="7.0951">
        <ele>317.6</ele>
        <time>2013-12-08T08:45:54Z</time>
      </trkpt>
      <trkpt lat="43.71399" lon="7.09497">
        <ele>317.7</ele>
        <time>2013-12-08T08:45:57Z</time>
      </trkpt>
      <trkpt lat="43.714" lon="7.09481">
        <ele>319</ele>
        <time>2013-12-08T08:46:01Z</time>
      </trkpt>
      <trkpt lat="43.71399" lon="7.09468">
        <ele>319.8</ele>
        <time>2013-12-08T08:46:04Z</time>
      </trkpt>
      <trkpt lat="43.71399" lon="7.09454">
        <ele>320.3</ele>
        <time>2013-12-08T08:46:07Z</time>
      </trkpt>
      <trkpt lat="43.71398" lon="7.09441">
        <ele>320.4</ele>
        <time>2013-12-08T08:46:10Z</time>
      </trkpt>
      <trkpt lat="43.714" lon="7.09428">
        <ele>321.7</ele>
        <time>2013-12-08T08:46:13Z</time>
      </trkpt>
      <trkpt lat="43.71403" lon="7.09414">
        <ele>323.1</ele>
        <time>2013-12-08T08:46:18Z</time>
      </trkpt>
      <trkpt lat="43.71406" lon="7.094">
        <ele>324</ele>
        <time>2013-12-08T08:46:24Z</time>
      </trkpt>
      <trkpt lat="43.71415" lon="7.09388">
        <ele>324</ele>
        <time>2013-12-08T08:46:28Z</time>
      </trkpt>
      <trkpt lat="43.71421" lon="7.09375">
        <ele>324.3</ele>
        <time>2013-12-08T08:46:30Z</time>
      </trkpt>
      <trkpt lat="43.71425" lon="7.0936">
        <ele>322.8</ele>
        <time>2013-12-08T08:46:33Z</time>
      </trkpt>
      <trkpt lat="43.71429" lon="7.09348">
        <ele>322.3</ele>
        <time>2013-12-08T08:46:36Z</time>
      </trkpt>
      <trkpt lat="43.71434" lon="7.09334">
        <ele>322.6</ele>
        <time>2013-12-08T08:46:40Z</time>
      </trkpt>
      <trkpt lat="43.71439" lon="7.0932">
        <ele>322.4</ele>
        <time>2013-12-08T08:46:44Z</time>
      </trkpt>
      <trkpt lat="43.71447" lon="7.09294">
        <ele>322.9</ele>
        <time>2013-12-08T08:46:51Z</time>
      </trkpt>
      <trkpt lat="43.71448" lon="7.09278">
        <ele>322.5</ele>
        <time>2013-12-08T08:46:55Z</time>
      </trkpt>
      <trkpt lat="43.7145" lon="7.09265">
        <ele>322.5</ele>
        <time>2013-12-08T08:46:58Z</time>
      </trkpt>
      <trkpt lat="43.71447" lon="7.09253">
        <ele>323.6</ele>
        <time>2013-12-08T08:47:01Z</time>
      </trkpt>
      <trkpt lat="43.71439" lon="7.09245">
        <ele>324.4</ele>
        <time>2013-12-08T08:47:04Z</time>
      </trkpt>
      <trkpt lat="43.71429" lon="7.09236">
        <ele>323.9</ele>
        <time>2013-12-08T08:47:08Z</time>
      </trkpt>
      <trkpt lat="43.71422" lon="7.09225">
        <ele>323.6</ele>
        <time>2013-12-08T08:47:11Z</time>
      </trkpt>
      <trkpt lat="43.71415" lon="7.09212">
        <ele>324.6</ele>
        <time>2013-12-08T08:47:15Z</time>
      </trkpt>
      <trkpt lat="43.7141" lon="7.092">
        <ele>325.5</ele>
        <time>2013-12-08T08:47:18Z</time>
      </trkpt>
      <trkpt lat="43.71406" lon="7.09189">
        <ele>325.2</ele>
        <time>2013-12-08T08:47:21Z</time>
      </trkpt>
      <trkpt lat="43.71402" lon="7.09173">
        <ele>325.2</ele>
        <time>2013-12-08T08:47:24Z</time>
      </trkpt>
      <trkpt lat="43.71406" lon="7.0916">
        <ele>324.6</ele>
        <time>2013-12-08T08:47:27Z</time>
      </trkpt>
      <trkpt lat="43.71414" lon="7.09151">
        <ele>324.6</ele>
        <time>2013-12-08T08:47:30Z</time>
      </trkpt>
      <trkpt lat="43.71423" lon="7.09143">
        <ele>326.3</ele>
        <time>2013-12-08T08:47:34Z</time>
      </trkpt>
      <trkpt lat="43.71433" lon="7.0914">
        <ele>326</ele>
        <time>2013-12-08T08:47:38Z</time>
      </trkpt>
      <trkpt lat="43.71444" lon="7.09141">
        <ele>325.9</ele>
        <time>2013-12-08T08:47:42Z</time>
      </trkpt>
      <trkpt lat="43.71455" lon="7.09137">
        <ele>326.9</ele>
        <time>2013-12-08T08:47:45Z</time>
      </trkpt>
      <trkpt lat="43.71471" lon="7.09122">
        <ele>325.8</ele>
        <time>2013-12-08T08:47:51Z</time>
      </trkpt>
      <trkpt lat="43.71476" lon="7.09111">
        <ele>325.9</ele>
        <time>2013-12-08T08:47:54Z</time>
      </trkpt>
      <trkpt lat="43.71481" lon="7.091">
        <ele>325.5</ele>
        <time>2013-12-08T08:47:57Z</time>
      </trkpt>
      <trkpt lat="43.71486" lon="7.0909">
        <ele>325.1</ele>
        <time>2013-12-08T08:48:00Z</time>
      </trkpt>
      <trkpt lat="43.71495" lon="7.09082">
        <ele>325.4</ele>
        <time>2013-12-08T08:48:03Z</time>
      </trkpt>
      <trkpt lat="43.71501" lon="7.09069">
        <ele>324.9</ele>
        <time>2013-12-08T08:48:06Z</time>
      </trkpt>
      <trkpt lat="43.71502" lon="7.09056">
        <ele>324.9</ele>
        <time>2013-12-08T08:48:11Z</time>
      </trkpt>
      <trkpt lat="43.7151" lon="7.09046">
        <ele>323.8</ele>
        <time>2013-12-08T08:48:22Z</time>
      </trkpt>
      <trkpt lat="43.71519" lon="7.09044">
        <ele>322.3</ele>
        <time>2013-12-08T08:48:26Z</time>
      </trkpt>
      <trkpt lat="43.71532" lon="7.09043">
        <ele>320.3</ele>
        <time>2013-12-08T08:48:29Z</time>
      </trkpt>
      <trkpt lat="43.71543" lon="7.0904">
        <ele>318.7</ele>
        <time>2013-12-08T08:48:31Z</time>
      </trkpt>
      <trkpt lat="43.71553" lon="7.09039">
        <ele>317.5</ele>
        <time>2013-12-08T08:48:33Z</time>
      </trkpt>
      <trkpt lat="43.71563" lon="7.0904">
        <ele>315.9</ele>
        <time>2013-12-08T08:48:36Z</time>
      </trkpt>
      <trkpt lat="43.71573" lon="7.09032">
        <ele>315.2</ele>
        <time>2013-12-08T08:48:41Z</time>
      </trkpt>
      <trkpt lat="43.7158" lon="7.09022">
        <ele>315.3</ele>
        <time>2013-12-08T08:48:45Z</time>
      </trkpt>
      <trkpt lat="43.71586" lon="7.09013">
        <ele>315.2</ele>
        <time>2013-12-08T08:48:49Z</time>
      </trkpt>
      <trkpt lat="43.71603" lon="7.08996">
        <ele>315.7</ele>
        <time>2013-12-08T08:48:57Z</time>
      </trkpt>
      <trkpt lat="43.71614" lon="7.08996">
        <ele>316.6</ele>
        <time>2013-12-08T08:49:02Z</time>
      </trkpt>
      <trkpt lat="43.71623" lon="7.09001">
        <ele>318.5</ele>
        <time>2013-12-08T08:49:08Z</time>
      </trkpt>
      <trkpt lat="43.71629" lon="7.09011">
        <ele>319.7</ele>
        <time>2013-12-08T08:49:13Z</time>
      </trkpt>
      <trkpt lat="43.71638" lon="7.09018">
        <ele>321.4</ele>
        <time>2013-12-08T08:49:19Z</time>
      </trkpt>
      <trkpt lat="43.71644" lon="7.09027">
        <ele>321.9</ele>
        <time>2013-12-08T08:49:24Z</time>
      </trkpt>
      <trkpt lat="43.71653" lon="7.09034">
        <ele>323.3</ele>
        <time>2013-12-08T08:49:29Z</time>
      </trkpt>
      <trkpt lat="43.71662" lon="7.0904">
        <ele>322.6</ele>
        <time>2013-12-08T08:49:34Z</time>
      </trkpt>
      <trkpt lat="43.71669" lon="7.09048">
        <ele>323.3</ele>
        <time>2013-12-08T08:49:40Z</time>
      </trkpt>
      <trkpt lat="43.71677" lon="7.09054">
        <ele>323.2</ele>
        <time>2013-12-08T08:50:04Z</time>
      </trkpt>
      <trkpt lat="43.71703" lon="7.09027">
        <ele>323.5</ele>
        <time>2013-12-08T08:57:25Z</time>
      </trkpt>
      <trkpt lat="43.71712" lon="7.09018">
        <ele>323.3</ele>
        <time>2013-12-08T08:57:27Z</time>
      </trkpt>
      <trkpt lat="43.7172" lon="7.09011">
        <ele>322.8</ele>
        <time>2013-12-08T08:57:29Z</time>
      </trkpt>
      <trkpt lat="43.71727" lon="7.09001">
        <ele>322</ele>
        <time>2013-12-08T08:57:32Z</time>
      </trkpt>
      <trkpt lat="43.71734" lon="7.08989">
        <ele>322</ele>
        <time>2013-12-08T08:57:36Z</time>
      </trkpt>
      <trkpt lat="43.71738" lon="7.08976">
        <ele>322.4</ele>
        <time>2013-12-08T08:57:40Z</time>
      </trkpt>
      <trkpt lat="43.71741" lon="7.08963">
        <ele>322.9</ele>
        <time>2013-12-08T08:57:44Z</time>
      </trkpt>
      <trkpt lat="43.71746" lon="7.08949">
        <ele>323.4</ele>
        <time>2013-12-08T08:57:48Z</time>
      </trkpt>
      <trkpt lat="43.71753" lon="7.08937">
        <ele>323.8</ele>
        <time>2013-12-08T08:57:52Z</time>
      </trkpt>
      <trkpt lat="43.7176" lon="7.08925">
        <ele>323.7</ele>
        <time>2013-12-08T08:57:56Z</time>
      </trkpt>
      <trkpt lat="43.71767" lon="7.08913">
        <ele>323.8</ele>
        <time>2013-12-08T08:58:00Z</time>
      </trkpt>
      <trkpt lat="43.71774" lon="7.08902">
        <ele>324.4</ele>
        <time>2013-12-08T08:58:04Z</time>
      </trkpt>
      <trkpt lat="43.7178" lon="7.08889">
        <ele>325.4</ele>
        <time>2013-12-08T08:58:08Z</time>
      </trkpt>
      <trkpt lat="43.71787" lon="7.08878">
        <ele>326.4</ele>
        <time>2013-12-08T08:58:12Z</time>
      </trkpt>
      <trkpt lat="43.71794" lon="7.08866">
        <ele>325.5</ele>
        <time>2013-12-08T08:58:16Z</time>
      </trkpt>
      <trkpt lat="43.71797" lon="7.08852">
        <ele>326.9</ele>
        <time>2013-12-08T08:58:20Z</time>
      </trkpt>
      <trkpt lat="43.71793" lon="7.08839">
        <ele>327.2</ele>
        <time>2013-12-08T08:58:24Z</time>
      </trkpt>
      <trkpt lat="43.71778" lon="7.08816">
        <ele>326.2</ele>
        <time>2013-12-08T08:58:29Z</time>
      </trkpt>
      <trkpt lat="43.7177" lon="7.08804">
        <ele>325.8</ele>
        <time>2013-12-08T08:58:31Z</time>
      </trkpt>
      <trkpt lat="43.71762" lon="7.08791">
        <ele>325.6</ele>
        <time>2013-12-08T08:58:33Z</time>
      </trkpt>
      <trkpt lat="43.71755" lon="7.08779">
        <ele>325.5</ele>
        <time>2013-12-08T08:58:35Z</time>
      </trkpt>
      <trkpt lat="43.71746" lon="7.08769">
        <ele>325.4</ele>
        <time>2013-12-08T08:58:37Z</time>
      </trkpt>
      <trkpt lat="43.71736" lon="7.08766">
        <ele>325</ele>
        <time>2013-12-08T08:58:39Z</time>
      </trkpt>
      <trkpt lat="43.71725" lon="7.08767">
        <ele>324.4</ele>
        <time>2013-12-08T08:58:41Z</time>
      </trkpt>
      <trkpt lat="43.71716" lon="7.08768">
        <ele>324</ele>
        <time>2013-12-08T08:58:43Z</time>
      </trkpt>
      <trkpt lat="43.71706" lon="7.0877">
        <ele>323.8</ele>
        <time>2013-12-08T08:58:45Z</time>
      </trkpt>
      <trkpt lat="43.71694" lon="7.08772">
        <ele>323.8</ele>
        <time>2013-12-08T08:58:48Z</time>
      </trkpt>
      <trkpt lat="43.71683" lon="7.0877">
        <ele>324.7</ele>
        <time>2013-12-08T08:58:51Z</time>
      </trkpt>
      <trkpt lat="43.71673" lon="7.08764">
        <ele>325.2</ele>
        <time>2013-12-08T08:58:54Z</time>
      </trkpt>
      <trkpt lat="43.71662" lon="7.08758">
        <ele>324.6</ele>
        <time>2013-12-08T08:58:57Z</time>
      </trkpt>
      <trkpt lat="43.71651" lon="7.08751">
        <ele>324.2</ele>
        <time>2013-12-08T08:59:00Z</time>
      </trkpt>
      <trkpt lat="43.7164" lon="7.08744">
        <ele>324.9</ele>
        <time>2013-12-08T08:59:03Z</time>
      </trkpt>
      <trkpt lat="43.71629" lon="7.08738">
        <ele>325.4</ele>
        <time>2013-12-08T08:59:06Z</time>
      </trkpt>
      <trkpt lat="43.71617" lon="7.08732">
        <ele>326</ele>
        <time>2013-12-08T08:59:09Z</time>
      </trkpt>
      <trkpt lat="43.71607" lon="7.08725">
        <ele>326.3</ele>
        <time>2013-12-08T08:59:12Z</time>
      </trkpt>
      <trkpt lat="43.71595" lon="7.08719">
        <ele>326.4</ele>
        <time>2013-12-08T08:59:15Z</time>
      </trkpt>
      <trkpt lat="43.71585" lon="7.08712">
        <ele>326.7</ele>
        <time>2013-12-08T08:59:18Z</time>
      </trkpt>
      <trkpt lat="43.71575" lon="7.08705">
        <ele>327.3</ele>
        <time>2013-12-08T08:59:21Z</time>
      </trkpt>
      <trkpt lat="43.71566" lon="7.08699">
        <ele>328.3</ele>
        <time>2013-12-08T08:59:24Z</time>
      </trkpt>
      <trkpt lat="43.71558" lon="7.08692">
        <ele>328.9</ele>
        <time>2013-12-08T08:59:27Z</time>
      </trkpt>
      <trkpt lat="43.71541" lon="7.08675">
        <ele>330</ele>
        <time>2013-12-08T08:59:33Z</time>
      </trkpt>
      <trkpt lat="43.71533" lon="7.08665">
        <ele>330.6</ele>
        <time>2013-12-08T08:59:36Z</time>
      </trkpt>
      <trkpt lat="43.71525" lon="7.08655">
        <ele>330.3</ele>
        <time>2013-12-08T08:59:39Z</time>
      </trkpt>
      <trkpt lat="43.71519" lon="7.08645">
        <ele>330.1</ele>
        <time>2013-12-08T08:59:42Z</time>
      </trkpt>
      <trkpt lat="43.71513" lon="7.08633">
        <ele>331.2</ele>
        <time>2013-12-08T08:59:46Z</time>
      </trkpt>
      <trkpt lat="43.71503" lon="7.08631">
        <ele>331.1</ele>
        <time>2013-12-08T08:59:51Z</time>
      </trkpt>
      <trkpt lat="43.71493" lon="7.08639">
        <ele>331.1</ele>
        <time>2013-12-08T08:59:55Z</time>
      </trkpt>
      <trkpt lat="43.71485" lon="7.0865">
        <ele>332.4</ele>
        <time>2013-12-08T08:59:59Z</time>
      </trkpt>
      <trkpt lat="43.71477" lon="7.08658">
        <ele>332.8</ele>
        <time>2013-12-08T09:00:02Z</time>
      </trkpt>
      <trkpt lat="43.7147" lon="7.08666">
        <ele>333</ele>
        <time>2013-12-08T09:00:05Z</time>
      </trkpt>
      <trkpt lat="43.71464" lon="7.08676">
        <ele>333.5</ele>
        <time>2013-12-08T09:00:08Z</time>
      </trkpt>
      <trkpt lat="43.71457" lon="7.08685">
        <ele>334</ele>
        <time>2013-12-08T09:00:11Z</time>
      </trkpt>
      <trkpt lat="43.7145" lon="7.08694">
        <ele>333.8</ele>
        <time>2013-12-08T09:00:14Z</time>
      </trkpt>
      <trkpt lat="43.71442" lon="7.08704">
        <ele>333.9</ele>
        <time>2013-12-08T09:00:17Z</time>
      </trkpt>
      <trkpt lat="43.71435" lon="7.08713">
        <ele>334.5</ele>
        <time>2013-12-08T09:00:20Z</time>
      </trkpt>
      <trkpt lat="43.71429" lon="7.08722">
        <ele>335.7</ele>
        <time>2013-12-08T09:00:23Z</time>
      </trkpt>
      <trkpt lat="43.71422" lon="7.08731">
        <ele>335.8</ele>
        <time>2013-12-08T09:00:26Z</time>
      </trkpt>
      <trkpt lat="43.71415" lon="7.08739">
        <ele>336.1</ele>
        <time>2013-12-08T09:00:29Z</time>
      </trkpt>
      <trkpt lat="43.71399" lon="7.08762">
        <ele>336.8</ele>
        <time>2013-12-08T09:00:37Z</time>
      </trkpt>
      <trkpt lat="43.71391" lon="7.08772">
        <ele>337.2</ele>
        <time>2013-12-08T09:00:41Z</time>
      </trkpt>
      <trkpt lat="43.71382" lon="7.0878">
        <ele>337.4</ele>
        <time>2013-12-08T09:00:45Z</time>
      </trkpt>
      <trkpt lat="43.7137" lon="7.08782">
        <ele>338.6</ele>
        <time>2013-12-08T09:00:49Z</time>
      </trkpt>
      <trkpt lat="43.7136" lon="7.08785">
        <ele>338.5</ele>
        <time>2013-12-08T09:00:53Z</time>
      </trkpt>
      <trkpt lat="43.7135" lon="7.08787">
        <ele>338.6</ele>
        <time>2013-12-08T09:00:57Z</time>
      </trkpt>
      <trkpt lat="43.7134" lon="7.08789">
        <ele>339</ele>
        <time>2013-12-08T09:01:01Z</time>
      </trkpt>
      <trkpt lat="43.7133" lon="7.0879">
        <ele>338.7</ele>
        <time>2013-12-08T09:01:05Z</time>
      </trkpt>
      <trkpt lat="43.7132" lon="7.0879">
        <ele>339.5</ele>
        <time>2013-12-08T09:01:11Z</time>
      </trkpt>
      <trkpt lat="43.71311" lon="7.08793">
        <ele>339.4</ele>
        <time>2013-12-08T09:02:24Z</time>
      </trkpt>
      <trkpt lat="43.71287" lon="7.08816">
        <ele>339.5</ele>
        <time>2013-12-08T09:07:49Z</time>
      </trkpt>
      <trkpt lat="43.71278" lon="7.08823">
        <ele>339.1</ele>
        <time>2013-12-08T09:07:53Z</time>
      </trkpt>
      <trkpt lat="43.71269" lon="7.0883">
        <ele>339.6</ele>
        <time>2013-12-08T09:07:57Z</time>
      </trkpt>
      <trkpt lat="43.7126" lon="7.08837">
        <ele>340.7</ele>
        <time>2013-12-08T09:08:01Z</time>
      </trkpt>
      <trkpt lat="43.71251" lon="7.08844">
        <ele>340.4</ele>
        <time>2013-12-08T09:08:05Z</time>
      </trkpt>
      <trkpt lat="43.71242" lon="7.08849">
        <ele>341.2</ele>
        <time>2013-12-08T09:08:09Z</time>
      </trkpt>
      <trkpt lat="43.71232" lon="7.08855">
        <ele>343</ele>
        <time>2013-12-08T09:08:14Z</time>
      </trkpt>
      <trkpt lat="43.71221" lon="7.08859">
        <ele>341.9</ele>
        <time>2013-12-08T09:08:18Z</time>
      </trkpt>
      <trkpt lat="43.71212" lon="7.08866">
        <ele>342</ele>
        <time>2013-12-08T09:08:22Z</time>
      </trkpt>
      <trkpt lat="43.71205" lon="7.08877">
        <ele>342.9</ele>
        <time>2013-12-08T09:08:27Z</time>
      </trkpt>
      <trkpt lat="43.712" lon="7.0889">
        <ele>343.6</ele>
        <time>2013-12-08T09:08:32Z</time>
      </trkpt>
      <trkpt lat="43.71195" lon="7.089">
        <ele>344.3</ele>
        <time>2013-12-08T09:08:37Z</time>
      </trkpt>
      <trkpt lat="43.71187" lon="7.0891">
        <ele>345.8</ele>
        <time>2013-12-08T09:08:42Z</time>
      </trkpt>
      <trkpt lat="43.71171" lon="7.08923">
        <ele>346.5</ele>
        <time>2013-12-08T09:08:52Z</time>
      </trkpt>
      <trkpt lat="43.71162" lon="7.08925">
        <ele>346.3</ele>
        <time>2013-12-08T09:08:56Z</time>
      </trkpt>
      <trkpt lat="43.7115" lon="7.08925">
        <ele>346.4</ele>
        <time>2013-12-08T09:09:00Z</time>
      </trkpt>
      <trkpt lat="43.71139" lon="7.08928">
        <ele>345.6</ele>
        <time>2013-12-08T09:09:04Z</time>
      </trkpt>
      <trkpt lat="43.7113" lon="7.08934">
        <ele>345.1</ele>
        <time>2013-12-08T09:09:07Z</time>
      </trkpt>
      <trkpt lat="43.71119" lon="7.08938">
        <ele>344.5</ele>
        <time>2013-12-08T09:09:10Z</time>
      </trkpt>
      <trkpt lat="43.71109" lon="7.08939">
        <ele>344.6</ele>
        <time>2013-12-08T09:09:12Z</time>
      </trkpt>
      <trkpt lat="43.711" lon="7.08938">
        <ele>344.5</ele>
        <time>2013-12-08T09:09:14Z</time>
      </trkpt>
      <trkpt lat="43.71088" lon="7.08936">
        <ele>344.3</ele>
        <time>2013-12-08T09:09:17Z</time>
      </trkpt>
      <trkpt lat="43.71077" lon="7.08935">
        <ele>343.7</ele>
        <time>2013-12-08T09:09:20Z</time>
      </trkpt>
      <trkpt lat="43.71068" lon="7.08942">
        <ele>344.4</ele>
        <time>2013-12-08T09:09:23Z</time>
      </trkpt>
      <trkpt lat="43.71058" lon="7.0895">
        <ele>344.7</ele>
        <time>2013-12-08T09:09:27Z</time>
      </trkpt>
      <trkpt lat="43.71048" lon="7.08955">
        <ele>345.7</ele>
        <time>2013-12-08T09:09:31Z</time>
      </trkpt>
      <trkpt lat="43.71039" lon="7.08954">
        <ele>346.2</ele>
        <time>2013-12-08T09:09:36Z</time>
      </trkpt>
      <trkpt lat="43.7103" lon="7.08946">
        <ele>346</ele>
        <time>2013-12-08T09:09:41Z</time>
      </trkpt>
      <trkpt lat="43.71022" lon="7.08939">
        <ele>346.9</ele>
        <time>2013-12-08T09:09:46Z</time>
      </trkpt>
      <trkpt lat="43.71001" lon="7.08941">
        <ele>345.7</ele>
        <time>2013-12-08T09:09:54Z</time>
      </trkpt>
      <trkpt lat="43.70993" lon="7.0895">
        <ele>346.2</ele>
        <time>2013-12-08T09:09:58Z</time>
      </trkpt>
      <trkpt lat="43.70984" lon="7.08958">
        <ele>346.4</ele>
        <time>2013-12-08T09:10:02Z</time>
      </trkpt>
      <trkpt lat="43.70973" lon="7.08964">
        <ele>346.8</ele>
        <time>2013-12-08T09:10:06Z</time>
      </trkpt>
      <trkpt lat="43.70963" lon="7.08968">
        <ele>347.1</ele>
        <time>2013-12-08T09:10:09Z</time>
      </trkpt>
      <trkpt lat="43.70954" lon="7.08975">
        <ele>347.4</ele>
        <time>2013-12-08T09:10:13Z</time>
      </trkpt>
      <trkpt lat="43.70944" lon="7.08977">
        <ele>346.7</ele>
        <time>2013-12-08T09:10:17Z</time>
      </trkpt>
      <trkpt lat="43.70935" lon="7.08976">
        <ele>346.9</ele>
        <time>2013-12-08T09:10:20Z</time>
      </trkpt>
      <trkpt lat="43.70924" lon="7.08975">
        <ele>345.6</ele>
        <time>2013-12-08T09:10:24Z</time>
      </trkpt>
      <trkpt lat="43.70914" lon="7.08982">
        <ele>346.2</ele>
        <time>2013-12-08T09:10:28Z</time>
      </trkpt>
      <trkpt lat="43.70904" lon="7.08983">
        <ele>345.9</ele>
        <time>2013-12-08T09:10:31Z</time>
      </trkpt>
      <trkpt lat="43.70895" lon="7.08979">
        <ele>345.4</ele>
        <time>2013-12-08T09:10:53Z</time>
      </trkpt>
      <trkpt lat="43.70881" lon="7.08955">
        <ele>344.3</ele>
        <time>2013-12-08T09:11:11Z</time>
      </trkpt>
      <trkpt lat="43.70872" lon="7.08947">
        <ele>343.9</ele>
        <time>2013-12-08T09:11:13Z</time>
      </trkpt>
      <trkpt lat="43.70863" lon="7.08938">
        <ele>343.7</ele>
        <time>2013-12-08T09:11:15Z</time>
      </trkpt>
      <trkpt lat="43.70854" lon="7.08928">
        <ele>342.3</ele>
        <time>2013-12-08T09:11:17Z</time>
      </trkpt>
      <trkpt lat="43.70844" lon="7.08921">
        <ele>340.7</ele>
        <time>2013-12-08T09:11:19Z</time>
      </trkpt>
      <trkpt lat="43.70837" lon="7.08911">
        <ele>337.8</ele>
        <time>2013-12-08T09:11:22Z</time>
      </trkpt>
      <trkpt lat="43.70826" lon="7.08902">
        <ele>335.4</ele>
        <time>2013-12-08T09:11:26Z</time>
      </trkpt>
      <trkpt lat="43.70818" lon="7.08895">
        <ele>333.9</ele>
        <time>2013-12-08T09:11:30Z</time>
      </trkpt>
      <trkpt lat="43.70809" lon="7.08886">
        <ele>334.3</ele>
        <time>2013-12-08T09:11:36Z</time>
      </trkpt>
      <trkpt lat="43.70801" lon="7.08879">
        <ele>334.2</ele>
        <time>2013-12-08T09:11:41Z</time>
      </trkpt>
      <trkpt lat="43.70791" lon="7.0887">
        <ele>334.1</ele>
        <time>2013-12-08T09:11:45Z</time>
      </trkpt>
      <trkpt lat="43.70784" lon="7.08862">
        <ele>334.1</ele>
        <time>2013-12-08T09:11:48Z</time>
      </trkpt>
      <trkpt lat="43.70776" lon="7.08855">
        <ele>333.7</ele>
        <time>2013-12-08T09:11:51Z</time>
      </trkpt>
      <trkpt lat="43.70767" lon="7.08847">
        <ele>332.8</ele>
        <time>2013-12-08T09:11:54Z</time>
      </trkpt>
      <trkpt lat="43.70757" lon="7.0884">
        <ele>332.3</ele>
        <time>2013-12-08T09:11:57Z</time>
      </trkpt>
      <trkpt lat="43.70743" lon="7.08819">
        <ele>331.9</ele>
        <time>2013-12-08T09:12:03Z</time>
      </trkpt>
      <trkpt lat="43.70733" lon="7.08809">
        <ele>331.7</ele>
        <time>2013-12-08T09:12:07Z</time>
      </trkpt>
      <trkpt lat="43.70723" lon="7.08799">
        <ele>331.6</ele>
        <time>2013-12-08T09:12:10Z</time>
      </trkpt>
      <trkpt lat="43.70712" lon="7.08787">
        <ele>331.1</ele>
        <time>2013-12-08T09:12:13Z</time>
      </trkpt>
      <trkpt lat="43.70705" lon="7.08779">
        <ele>330.5</ele>
        <time>2013-12-08T09:12:15Z</time>
      </trkpt>
      <trkpt lat="43.70696" lon="7.08771">
        <ele>330.9</ele>
        <time>2013-12-08T09:12:17Z</time>
      </trkpt>
      <trkpt lat="43.70688" lon="7.08763">
        <ele>331.1</ele>
        <time>2013-12-08T09:12:19Z</time>
      </trkpt>
      <trkpt lat="43.70678" lon="7.08753">
        <ele>330.6</ele>
        <time>2013-12-08T09:12:22Z</time>
      </trkpt>
      <trkpt lat="43.70669" lon="7.08742">
        <ele>329.9</ele>
        <time>2013-12-08T09:12:25Z</time>
      </trkpt>
      <trkpt lat="43.70659" lon="7.08733">
        <ele>329.9</ele>
        <time>2013-12-08T09:12:28Z</time>
      </trkpt>
      <trkpt lat="43.70649" lon="7.08723">
        <ele>329.5</ele>
        <time>2013-12-08T09:12:31Z</time>
      </trkpt>
      <trkpt lat="43.70642" lon="7.08715">
        <ele>329.5</ele>
        <time>2013-12-08T09:12:33Z</time>
      </trkpt>
      <trkpt lat="43.70631" lon="7.08704">
        <ele>328.9</ele>
        <time>2013-12-08T09:12:36Z</time>
      </trkpt>
      <trkpt lat="43.70624" lon="7.08696">
        <ele>328.6</ele>
        <time>2013-12-08T09:12:38Z</time>
      </trkpt>
      <trkpt lat="43.70615" lon="7.08688">
        <ele>327.9</ele>
        <time>2013-12-08T09:12:40Z</time>
      </trkpt>
      <trkpt lat="43.70606" lon="7.08679">
        <ele>327.6</ele>
        <time>2013-12-08T09:12:42Z</time>
      </trkpt>
      <trkpt lat="43.70596" lon="7.0867">
        <ele>327.5</ele>
        <time>2013-12-08T09:12:44Z</time>
      </trkpt>
      <trkpt lat="43.70585" lon="7.08659">
        <ele>326.5</ele>
        <time>2013-12-08T09:12:46Z</time>
      </trkpt>
      <trkpt lat="43.70576" lon="7.08645">
        <ele>325.4</ele>
        <time>2013-12-08T09:12:48Z</time>
      </trkpt>
      <trkpt lat="43.70571" lon="7.08629">
        <ele>324.3</ele>
        <time>2013-12-08T09:12:50Z</time>
      </trkpt>
      <trkpt lat="43.70562" lon="7.08618">
        <ele>322.9</ele>
        <time>2013-12-08T09:12:52Z</time>
      </trkpt>
      <trkpt lat="43.70554" lon="7.0861">
        <ele>321.9</ele>
        <time>2013-12-08T09:12:55Z</time>
      </trkpt>
      <trkpt lat="43.70547" lon="7.08601">
        <ele>322.7</ele>
        <time>2013-12-08T09:13:05Z</time>
      </trkpt>
      <trkpt lat="43.70526" lon="7.08576">
        <ele>322.1</ele>
        <time>2013-12-08T09:14:40Z</time>
      </trkpt>
      <trkpt lat="43.70518" lon="7.08566">
        <ele>322.2</ele>
        <time>2013-12-08T09:14:43Z</time>
      </trkpt>
      <trkpt lat="43.70509" lon="7.08557">
        <ele>323.1</ele>
        <time>2013-12-08T09:14:46Z</time>
      </trkpt>
      <trkpt lat="43.705" lon="7.08547">
        <ele>323.9</ele>
        <time>2013-12-08T09:14:49Z</time>
      </trkpt>
      <trkpt lat="43.7049" lon="7.08538">
        <ele>324.2</ele>
        <time>2013-12-08T09:14:52Z</time>
      </trkpt>
      <trkpt lat="43.70479" lon="7.08529">
        <ele>323.4</ele>
        <time>2013-12-08T09:14:55Z</time>
      </trkpt>
      <trkpt lat="43.70467" lon="7.08523">
        <ele>323.9</ele>
        <time>2013-12-08T09:14:58Z</time>
      </trkpt>
      <trkpt lat="43.70456" lon="7.0852">
        <ele>323.3</ele>
        <time>2013-12-08T09:15:01Z</time>
      </trkpt>
      <trkpt lat="43.70447" lon="7.08516">
        <ele>323.3</ele>
        <time>2013-12-08T09:15:04Z</time>
      </trkpt>
      <trkpt lat="43.70437" lon="7.08512">
        <ele>323.5</ele>
        <time>2013-12-08T09:15:07Z</time>
      </trkpt>
      <trkpt lat="43.70426" lon="7.08512">
        <ele>324.1</ele>
        <time>2013-12-08T09:15:10Z</time>
      </trkpt>
      <trkpt lat="43.70415" lon="7.08512">
        <ele>324.7</ele>
        <time>2013-12-08T09:15:13Z</time>
      </trkpt>
      <trkpt lat="43.70403" lon="7.08512">
        <ele>325.6</ele>
        <time>2013-12-08T09:15:16Z</time>
      </trkpt>
      <trkpt lat="43.7039" lon="7.08512">
        <ele>326.4</ele>
        <time>2013-12-08T09:15:19Z</time>
      </trkpt>
      <trkpt lat="43.70381" lon="7.0851">
        <ele>326.6</ele>
        <time>2013-12-08T09:15:21Z</time>
      </trkpt>
      <trkpt lat="43.70372" lon="7.08506">
        <ele>326.7</ele>
        <time>2013-12-08T09:15:23Z</time>
      </trkpt>
      <trkpt lat="43.7036" lon="7.08505">
        <ele>326.2</ele>
        <time>2013-12-08T09:15:26Z</time>
      </trkpt>
      <trkpt lat="43.70351" lon="7.085">
        <ele>326.5</ele>
        <time>2013-12-08T09:15:29Z</time>
      </trkpt>
      <trkpt lat="43.70341" lon="7.08493">
        <ele>326.7</ele>
        <time>2013-12-08T09:15:33Z</time>
      </trkpt>
      <trkpt lat="43.70331" lon="7.08471">
        <ele>325.7</ele>
        <time>2013-12-08T09:15:39Z</time>
      </trkpt>
      <trkpt lat="43.70328" lon="7.08453">
        <ele>326</ele>
        <time>2013-12-08T09:15:42Z</time>
      </trkpt>
      <trkpt lat="43.70324" lon="7.08442">
        <ele>325.7</ele>
        <time>2013-12-08T09:15:44Z</time>
      </trkpt>
      <trkpt lat="43.7032" lon="7.08431">
        <ele>325</ele>
        <time>2013-12-08T09:15:46Z</time>
      </trkpt>
      <trkpt lat="43.70315" lon="7.08416">
        <ele>325.6</ele>
        <time>2013-12-08T09:15:49Z</time>
      </trkpt>
      <trkpt lat="43.7031" lon="7.08398">
        <ele>325.9</ele>
        <time>2013-12-08T09:15:52Z</time>
      </trkpt>
      <trkpt lat="43.70306" lon="7.08385">
        <ele>325.7</ele>
        <time>2013-12-08T09:15:54Z</time>
      </trkpt>
      <trkpt lat="43.70301" lon="7.08373">
        <ele>325.5</ele>
        <time>2013-12-08T09:15:56Z</time>
      </trkpt>
      <trkpt lat="43.70295" lon="7.08358">
        <ele>324.5</ele>
        <time>2013-12-08T09:15:59Z</time>
      </trkpt>
      <trkpt lat="43.70291" lon="7.0834">
        <ele>324</ele>
        <time>2013-12-08T09:16:02Z</time>
      </trkpt>
      <trkpt lat="43.70284" lon="7.08326">
        <ele>323.4</ele>
        <time>2013-12-08T09:16:05Z</time>
      </trkpt>
      <trkpt lat="43.70274" lon="7.08321">
        <ele>323.7</ele>
        <time>2013-12-08T09:16:09Z</time>
      </trkpt>
      <trkpt lat="43.70264" lon="7.08318">
        <ele>324.5</ele>
        <time>2013-12-08T09:16:14Z</time>
      </trkpt>
      <trkpt lat="43.70256" lon="7.08309">
        <ele>325</ele>
        <time>2013-12-08T09:16:18Z</time>
      </trkpt>
      <trkpt lat="43.70248" lon="7.08301">
        <ele>326.6</ele>
        <time>2013-12-08T09:16:22Z</time>
      </trkpt>
      <trkpt lat="43.7024" lon="7.08293">
        <ele>327.9</ele>
        <time>2013-12-08T09:16:26Z</time>
      </trkpt>
      <trkpt lat="43.70233" lon="7.08284">
        <ele>328.1</ele>
        <time>2013-12-08T09:16:30Z</time>
      </trkpt>
      <trkpt lat="43.70229" lon="7.08272">
        <ele>328.6</ele>
        <time>2013-12-08T09:16:33Z</time>
      </trkpt>
      <trkpt lat="43.70226" lon="7.08254">
        <ele>327.8</ele>
        <time>2013-12-08T09:16:36Z</time>
      </trkpt>
      <trkpt lat="43.70213" lon="7.0823">
        <ele>326.2</ele>
        <time>2013-12-08T09:16:40Z</time>
      </trkpt>
      <trkpt lat="43.70206" lon="7.0822">
        <ele>325.9</ele>
        <time>2013-12-08T09:16:42Z</time>
      </trkpt>
      <trkpt lat="43.70198" lon="7.0821">
        <ele>326</ele>
        <time>2013-12-08T09:16:45Z</time>
      </trkpt>
      <trkpt lat="43.7019" lon="7.08201">
        <ele>326.3</ele>
        <time>2013-12-08T09:16:48Z</time>
      </trkpt>
      <trkpt lat="43.70183" lon="7.0819">
        <ele>326.4</ele>
        <time>2013-12-08T09:16:51Z</time>
      </trkpt>
      <trkpt lat="43.70179" lon="7.08175">
        <ele>326.5</ele>
        <time>2013-12-08T09:16:54Z</time>
      </trkpt>
      <trkpt lat="43.70172" lon="7.08164">
        <ele>327.2</ele>
        <time>2013-12-08T09:16:57Z</time>
      </trkpt>
      <trkpt lat="43.70168" lon="7.08153">
        <ele>327.7</ele>
        <time>2013-12-08T09:17:00Z</time>
      </trkpt>
      <trkpt lat="43.70163" lon="7.08141">
        <ele>328</ele>
        <time>2013-12-08T09:17:03Z</time>
      </trkpt>
      <trkpt lat="43.70153" lon="7.08132">
        <ele>327.5</ele>
        <time>2013-12-08T09:17:07Z</time>
      </trkpt>
      <trkpt lat="43.70143" lon="7.08125">
        <ele>328.4</ele>
        <time>2013-12-08T09:17:11Z</time>
      </trkpt>
      <trkpt lat="43.70135" lon="7.08119">
        <ele>329.8</ele>
        <time>2013-12-08T09:17:15Z</time>
      </trkpt>
      <trkpt lat="43.70127" lon="7.08114">
        <ele>330.5</ele>
        <time>2013-12-08T09:17:18Z</time>
      </trkpt>
      <trkpt lat="43.70119" lon="7.08107">
        <ele>330.5</ele>
        <time>2013-12-08T09:17:21Z</time>
      </trkpt>
      <trkpt lat="43.7011" lon="7.08099">
        <ele>330.8</ele>
        <time>2013-12-08T09:17:24Z</time>
      </trkpt>
      <trkpt lat="43.70102" lon="7.0809">
        <ele>330.6</ele>
        <time>2013-12-08T09:17:28Z</time>
      </trkpt>
      <trkpt lat="43.70094" lon="7.08082">
        <ele>330.7</ele>
        <time>2013-12-08T09:17:32Z</time>
      </trkpt>
      <trkpt lat="43.70085" lon="7.08074">
        <ele>332</ele>
        <time>2013-12-08T09:17:36Z</time>
      </trkpt>
      <trkpt lat="43.70075" lon="7.08073">
        <ele>332.9</ele>
        <time>2013-12-08T09:17:40Z</time>
      </trkpt>
      <trkpt lat="43.70059" lon="7.08089">
        <ele>333.6</ele>
        <time>2013-12-08T09:17:49Z</time>
      </trkpt>
      <trkpt lat="43.70052" lon="7.081">
        <ele>335.1</ele>
        <time>2013-12-08T09:17:54Z</time>
      </trkpt>
      <trkpt lat="43.70045" lon="7.08109">
        <ele>335.4</ele>
        <time>2013-12-08T09:17:59Z</time>
      </trkpt>
      <trkpt lat="43.7004" lon="7.08121">
        <ele>336.1</ele>
        <time>2013-12-08T09:18:04Z</time>
      </trkpt>
      <trkpt lat="43.70035" lon="7.08133">
        <ele>336</ele>
        <time>2013-12-08T09:18:08Z</time>
      </trkpt>
      <trkpt lat="43.70029" lon="7.08142">
        <ele>336.6</ele>
        <time>2013-12-08T09:18:12Z</time>
      </trkpt>
      <trkpt lat="43.70022" lon="7.08152">
        <ele>337.2</ele>
        <time>2013-12-08T09:18:17Z</time>
      </trkpt>
      <trkpt lat="43.70015" lon="7.08164">
        <ele>338.2</ele>
        <time>2013-12-08T09:18:22Z</time>
      </trkpt>
      <trkpt lat="43.70008" lon="7.08175">
        <ele>339.2</ele>
        <time>2013-12-08T09:18:26Z</time>
      </trkpt>
      <trkpt lat="43.70001" lon="7.08186">
        <ele>340.2</ele>
        <time>2013-12-08T09:18:30Z</time>
      </trkpt>
      <trkpt lat="43.69997" lon="7.08198">
        <ele>340.6</ele>
        <time>2013-12-08T09:18:34Z</time>
      </trkpt>
      <trkpt lat="43.69989" lon="7.08206">
        <ele>341.3</ele>
        <time>2013-12-08T09:18:39Z</time>
      </trkpt>
      <trkpt lat="43.69983" lon="7.08215">
        <ele>341.6</ele>
        <time>2013-12-08T09:18:46Z</time>
      </trkpt>
      <trkpt lat="43.69976" lon="7.08218">
        <ele>343</ele>
        <time>2013-12-08T09:28:53Z</time>
      </trkpt>
      <trkpt lat="43.69969" lon="7.0819">
        <ele>343</ele>
        <time>2013-12-08T09:29:04Z</time>
      </trkpt>
      <trkpt lat="43.69963" lon="7.08177">
        <ele>342</ele>
        <time>2013-12-08T09:29:08Z</time>
      </trkpt>
      <trkpt lat="43.69957" lon="7.08168">
        <ele>342.4</ele>
        <time>2013-12-08T09:29:11Z</time>
      </trkpt>
      <trkpt lat="43.69952" lon="7.08157">
        <ele>342.9</ele>
        <time>2013-12-08T09:29:14Z</time>
      </trkpt>
      <trkpt lat="43.69945" lon="7.08146">
        <ele>343.5</ele>
        <time>2013-12-08T09:29:17Z</time>
      </trkpt>
      <trkpt lat="43.69938" lon="7.08135">
        <ele>342.4</ele>
        <time>2013-12-08T09:29:20Z</time>
      </trkpt>
      <trkpt lat="43.69928" lon="7.08127">
        <ele>343.4</ele>
        <time>2013-12-08T09:29:23Z</time>
      </trkpt>
      <trkpt lat="43.69917" lon="7.0813">
        <ele>343</ele>
        <time>2013-12-08T09:29:26Z</time>
      </trkpt>
      <trkpt lat="43.69906" lon="7.08134">
        <ele>342.9</ele>
        <time>2013-12-08T09:29:29Z</time>
      </trkpt>
      <trkpt lat="43.69896" lon="7.08137">
        <ele>342.6</ele>
        <time>2013-12-08T09:29:32Z</time>
      </trkpt>
      <trkpt lat="43.69884" lon="7.08141">
        <ele>341.9</ele>
        <time>2013-12-08T09:29:35Z</time>
      </trkpt>
      <trkpt lat="43.69871" lon="7.08142">
        <ele>341.2</ele>
        <time>2013-12-08T09:29:38Z</time>
      </trkpt>
      <trkpt lat="43.69862" lon="7.08135">
        <ele>339.6</ele>
        <time>2013-12-08T09:29:42Z</time>
      </trkpt>
      <trkpt lat="43.69853" lon="7.08129">
        <ele>339</ele>
        <time>2013-12-08T09:29:45Z</time>
      </trkpt>
      <trkpt lat="43.6984" lon="7.08126">
        <ele>337.5</ele>
        <time>2013-12-08T09:29:48Z</time>
      </trkpt>
      <trkpt lat="43.69828" lon="7.08123">
        <ele>336.5</ele>
        <time>2013-12-08T09:29:50Z</time>
      </trkpt>
      <trkpt lat="43.69818" lon="7.08117">
        <ele>335.7</ele>
        <time>2013-12-08T09:29:52Z</time>
      </trkpt>
      <trkpt lat="43.69809" lon="7.08112">
        <ele>335</ele>
        <time>2013-12-08T09:29:54Z</time>
      </trkpt>
      <trkpt lat="43.69799" lon="7.08112">
        <ele>334</ele>
        <time>2013-12-08T09:29:56Z</time>
      </trkpt>
      <trkpt lat="43.69777" lon="7.08107">
        <ele>329.5</ele>
        <time>2013-12-08T09:30:00Z</time>
      </trkpt>
      <trkpt lat="43.69771" lon="7.08116">
        <ele>327.2</ele>
        <time>2013-12-08T09:30:02Z</time>
      </trkpt>
      <trkpt lat="43.69762" lon="7.08126">
        <ele>325.7</ele>
        <time>2013-12-08T09:30:04Z</time>
      </trkpt>
      <trkpt lat="43.69753" lon="7.08127">
        <ele>323.5</ele>
        <time>2013-12-08T09:30:06Z</time>
      </trkpt>
      <trkpt lat="43.69742" lon="7.08124">
        <ele>321.4</ele>
        <time>2013-12-08T09:30:08Z</time>
      </trkpt>
      <trkpt lat="43.69732" lon="7.08124">
        <ele>318.9</ele>
        <time>2013-12-08T09:30:10Z</time>
      </trkpt>
      <trkpt lat="43.69718" lon="7.08121">
        <ele>314.6</ele>
        <time>2013-12-08T09:30:13Z</time>
      </trkpt>
      <trkpt lat="43.69708" lon="7.08122">
        <ele>312.1</ele>
        <time>2013-12-08T09:30:15Z</time>
      </trkpt>
      <trkpt lat="43.69697" lon="7.08124">
        <ele>310.3</ele>
        <time>2013-12-08T09:30:17Z</time>
      </trkpt>
      <trkpt lat="43.69685" lon="7.0813">
        <ele>306.8</ele>
        <time>2013-12-08T09:30:19Z</time>
      </trkpt>
      <trkpt lat="43.69671" lon="7.08131">
        <ele>304.8</ele>
        <time>2013-12-08T09:30:21Z</time>
      </trkpt>
      <trkpt lat="43.69661" lon="7.08125">
        <ele>302.7</ele>
        <time>2013-12-08T09:30:23Z</time>
      </trkpt>
      <trkpt lat="43.69651" lon="7.08125">
        <ele>300.2</ele>
        <time>2013-12-08T09:30:26Z</time>
      </trkpt>
      <trkpt lat="43.69645" lon="7.08137">
        <ele>298.2</ele>
        <time>2013-12-08T09:30:29Z</time>
      </trkpt>
      <trkpt lat="43.69634" lon="7.08143">
        <ele>295.7</ele>
        <time>2013-12-08T09:30:35Z</time>
      </trkpt>
      <trkpt lat="43.69625" lon="7.08147">
        <ele>295.4</ele>
        <time>2013-12-08T09:30:37Z</time>
      </trkpt>
      <trkpt lat="43.69614" lon="7.08156">
        <ele>293.5</ele>
        <time>2013-12-08T09:30:40Z</time>
      </trkpt>
      <trkpt lat="43.6961" lon="7.08174">
        <ele>291.2</ele>
        <time>2013-12-08T09:30:43Z</time>
      </trkpt>
      <trkpt lat="43.69609" lon="7.08189">
        <ele>289.9</ele>
        <time>2013-12-08T09:30:45Z</time>
      </trkpt>
      <trkpt lat="43.69609" lon="7.08204">
        <ele>289</ele>
        <time>2013-12-08T09:30:47Z</time>
      </trkpt>
      <trkpt lat="43.69608" lon="7.0822">
        <ele>288</ele>
        <time>2013-12-08T09:30:50Z</time>
      </trkpt>
      <trkpt lat="43.69611" lon="7.08232">
        <ele>286.7</ele>
        <time>2013-12-08T09:30:55Z</time>
      </trkpt>
      <trkpt lat="43.69607" lon="7.08244">
        <ele>285.3</ele>
        <time>2013-12-08T09:31:10Z</time>
      </trkpt>
      <trkpt lat="43.69589" lon="7.08244">
        <ele>285</ele>
        <time>2013-12-08T09:31:18Z</time>
      </trkpt>
      <trkpt lat="43.69577" lon="7.0824">
        <ele>284.1</ele>
        <time>2013-12-08T09:31:21Z</time>
      </trkpt>
      <trkpt lat="43.69566" lon="7.08231">
        <ele>283.3</ele>
        <time>2013-12-08T09:31:24Z</time>
      </trkpt>
      <trkpt lat="43.69557" lon="7.0822">
        <ele>281.7</ele>
        <time>2013-12-08T09:31:27Z</time>
      </trkpt>
      <trkpt lat="43.69549" lon="7.08214">
        <ele>280.4</ele>
        <time>2013-12-08T09:31:52Z</time>
      </trkpt>
      <trkpt lat="43.6954" lon="7.08218">
        <ele>279.4</ele>
        <time>2013-12-08T09:35:54Z</time>
      </trkpt>
      <trkpt lat="43.69524" lon="7.08186">
        <ele>277.9</ele>
        <time>2013-12-08T09:37:52Z</time>
      </trkpt>
      <trkpt lat="43.69515" lon="7.08179">
        <ele>277.6</ele>
        <time>2013-12-08T09:37:55Z</time>
      </trkpt>
      <trkpt lat="43.69506" lon="7.08174">
        <ele>277.1</ele>
        <time>2013-12-08T09:37:57Z</time>
      </trkpt>
      <trkpt lat="43.69494" lon="7.08167">
        <ele>276.3</ele>
        <time>2013-12-08T09:37:59Z</time>
      </trkpt>
      <trkpt lat="43.69481" lon="7.08157">
        <ele>275.4</ele>
        <time>2013-12-08T09:38:01Z</time>
      </trkpt>
      <trkpt lat="43.69467" lon="7.0815">
        <ele>274.6</ele>
        <time>2013-12-08T09:38:03Z</time>
      </trkpt>
      <trkpt lat="43.69456" lon="7.08148">
        <ele>272.3</ele>
        <time>2013-12-08T09:38:05Z</time>
      </trkpt>
      <trkpt lat="43.69447" lon="7.08143">
        <ele>270.9</ele>
        <time>2013-12-08T09:38:07Z</time>
      </trkpt>
      <trkpt lat="43.69436" lon="7.08136">
        <ele>269.1</ele>
        <time>2013-12-08T09:38:09Z</time>
      </trkpt>
      <trkpt lat="43.69425" lon="7.08131">
        <ele>268.2</ele>
        <time>2013-12-08T09:38:11Z</time>
      </trkpt>
      <trkpt lat="43.69413" lon="7.08125">
        <ele>267.7</ele>
        <time>2013-12-08T09:38:13Z</time>
      </trkpt>
      <trkpt lat="43.69401" lon="7.08116">
        <ele>266</ele>
        <time>2013-12-08T09:38:15Z</time>
      </trkpt>
      <trkpt lat="43.69387" lon="7.08109">
        <ele>265.1</ele>
        <time>2013-12-08T09:38:17Z</time>
      </trkpt>
      <trkpt lat="43.69373" lon="7.08101">
        <ele>264.6</ele>
        <time>2013-12-08T09:38:19Z</time>
      </trkpt>
      <trkpt lat="43.69359" lon="7.08093">
        <ele>264.4</ele>
        <time>2013-12-08T09:38:21Z</time>
      </trkpt>
      <trkpt lat="43.69345" lon="7.08084">
        <ele>264.3</ele>
        <time>2013-12-08T09:38:23Z</time>
      </trkpt>
      <trkpt lat="43.69334" lon="7.08078">
        <ele>262.9</ele>
        <time>2013-12-08T09:38:25Z</time>
      </trkpt>
      <trkpt lat="43.69326" lon="7.0807">
        <ele>261.2</ele>
        <time>2013-12-08T09:38:27Z</time>
      </trkpt>
      <trkpt lat="43.69316" lon="7.08062">
        <ele>257.2</ele>
        <time>2013-12-08T09:38:31Z</time>
      </trkpt>
      <trkpt lat="43.6931" lon="7.08051">
        <ele>254.6</ele>
        <time>2013-12-08T09:38:33Z</time>
      </trkpt>
      <trkpt lat="43.69301" lon="7.08042">
        <ele>250.4</ele>
        <time>2013-12-08T09:38:36Z</time>
      </trkpt>
      <trkpt lat="43.69292" lon="7.08032">
        <ele>245.6</ele>
        <time>2013-12-08T09:38:40Z</time>
      </trkpt>
      <trkpt lat="43.69288" lon="7.08021">
        <ele>242.1</ele>
        <time>2013-12-08T09:38:43Z</time>
      </trkpt>
      <trkpt lat="43.69272" lon="7.08">
        <ele>231.2</ele>
        <time>2013-12-08T09:38:52Z</time>
      </trkpt>
      <trkpt lat="43.69264" lon="7.07994">
        <ele>229.5</ele>
        <time>2013-12-08T09:38:54Z</time>
      </trkpt>
      <trkpt lat="43.69255" lon="7.07987">
        <ele>228.5</ele>
        <time>2013-12-08T09:38:56Z</time>
      </trkpt>
      <trkpt lat="43.69247" lon="7.07982">
        <ele>227.8</ele>
        <time>2013-12-08T09:38:58Z</time>
      </trkpt>
      <trkpt lat="43.69236" lon="7.07978">
        <ele>227.2</ele>
        <time>2013-12-08T09:39:00Z</time>
      </trkpt>
      <trkpt lat="43.69225" lon="7.07973">
        <ele>226.9</ele>
        <time>2013-12-08T09:39:02Z</time>
      </trkpt>
      <trkpt lat="43.69216" lon="7.0797">
        <ele>226.7</ele>
        <time>2013-12-08T09:39:04Z</time>
      </trkpt>
      <trkpt lat="43.69203" lon="7.07967">
        <ele>226.5</ele>
        <time>2013-12-08T09:39:07Z</time>
      </trkpt>
      <trkpt lat="43.69191" lon="7.07967">
        <ele>226.5</ele>
        <time>2013-12-08T09:39:10Z</time>
      </trkpt>
      <trkpt lat="43.69178" lon="7.07967">
        <ele>225.9</ele>
        <time>2013-12-08T09:39:13Z</time>
      </trkpt>
      <trkpt lat="43.69167" lon="7.07966">
        <ele>225.3</ele>
        <time>2013-12-08T09:39:16Z</time>
      </trkpt>
      <trkpt lat="43.69156" lon="7.07966">
        <ele>226.1</ele>
        <time>2013-12-08T09:39:20Z</time>
      </trkpt>
      <trkpt lat="43.69145" lon="7.07967">
        <ele>224.9</ele>
        <time>2013-12-08T09:39:23Z</time>
      </trkpt>
      <trkpt lat="43.69136" lon="7.07963">
        <ele>225.6</ele>
        <time>2013-12-08T09:39:26Z</time>
      </trkpt>
      <trkpt lat="43.69129" lon="7.07955">
        <ele>224.5</ele>
        <time>2013-12-08T09:39:29Z</time>
      </trkpt>
      <trkpt lat="43.69117" lon="7.07946">
        <ele>224.4</ele>
        <time>2013-12-08T09:39:32Z</time>
      </trkpt>
      <trkpt lat="43.69106" lon="7.07939">
        <ele>224.4</ele>
        <time>2013-12-08T09:39:35Z</time>
      </trkpt>
      <trkpt lat="43.69098" lon="7.07932">
        <ele>225</ele>
        <time>2013-12-08T09:39:40Z</time>
      </trkpt>
      <trkpt lat="43.6909" lon="7.07925">
        <ele>223.6</ele>
        <time>2013-12-08T09:39:45Z</time>
      </trkpt>
      <trkpt lat="43.69076" lon="7.07943">
        <ele>219.2</ele>
        <time>2013-12-08T09:40:07Z</time>
      </trkpt>
      <trkpt lat="43.69065" lon="7.07945">
        <ele>217</ele>
        <time>2013-12-08T09:40:11Z</time>
      </trkpt>
      <trkpt lat="43.69054" lon="7.07951">
        <ele>211</ele>
        <time>2013-12-08T09:40:15Z</time>
      </trkpt>
      <trkpt lat="43.69042" lon="7.07953">
        <ele>208.1</ele>
        <time>2013-12-08T09:40:18Z</time>
      </trkpt>
      <trkpt lat="43.6904" lon="7.07939">
        <ele>201.2</ele>
        <time>2013-12-08T09:40:24Z</time>
      </trkpt>
      <trkpt lat="43.69031" lon="7.07933">
        <ele>198.9</ele>
        <time>2013-12-08T09:40:32Z</time>
      </trkpt>
      <trkpt lat="43.6902" lon="7.07935">
        <ele>198.3</ele>
        <time>2013-12-08T09:40:41Z</time>
      </trkpt>
      <trkpt lat="43.69006" lon="7.07937">
        <ele>197.8</ele>
        <time>2013-12-08T09:40:43Z</time>
      </trkpt>
      <trkpt lat="43.6899" lon="7.07936">
        <ele>196</ele>
        <time>2013-12-08T09:40:45Z</time>
      </trkpt>
      <trkpt lat="43.68979" lon="7.07935">
        <ele>193.9</ele>
        <time>2013-12-08T09:40:47Z</time>
      </trkpt>
      <trkpt lat="43.68961" lon="7.0793">
        <ele>187.2</ele>
        <time>2013-12-08T09:41:40Z</time>
      </trkpt>
      <trkpt lat="43.68963" lon="7.07916">
        <ele>188.5</ele>
        <time>2013-12-08T09:43:37Z</time>
      </trkpt>
      <trkpt lat="43.68965" lon="7.07885">
        <ele>188.8</ele>
        <time>2013-12-08T09:43:42Z</time>
      </trkpt>
      <trkpt lat="43.68964" lon="7.07873">
        <ele>188.4</ele>
        <time>2013-12-08T09:43:44Z</time>
      </trkpt>
      <trkpt lat="43.68962" lon="7.07853">
        <ele>186.8</ele>
        <time>2013-12-08T09:43:47Z</time>
      </trkpt>
      <trkpt lat="43.68966" lon="7.07839">
        <ele>185.5</ele>
        <time>2013-12-08T09:43:49Z</time>
      </trkpt>
      <trkpt lat="43.68972" lon="7.07826">
        <ele>183.4</ele>
        <time>2013-12-08T09:43:52Z</time>
      </trkpt>
      <trkpt lat="43.68972" lon="7.07814">
        <ele>181.8</ele>
        <time>2013-12-08T09:43:55Z</time>
      </trkpt>
      <trkpt lat="43.68975" lon="7.07801">
        <ele>180.4</ele>
        <time>2013-12-08T09:43:58Z</time>
      </trkpt>
      <trkpt lat="43.6898" lon="7.07785">
        <ele>179.2</ele>
        <time>2013-12-08T09:44:01Z</time>
      </trkpt>
      <trkpt lat="43.68985" lon="7.07771">
        <ele>175.4</ele>
        <time>2013-12-08T09:44:04Z</time>
      </trkpt>
      <trkpt lat="43.68988" lon="7.07759">
        <ele>170.6</ele>
        <time>2013-12-08T09:44:08Z</time>
      </trkpt>
      <trkpt lat="43.68985" lon="7.07746">
        <ele>166.4</ele>
        <time>2013-12-08T09:44:13Z</time>
      </trkpt>
      <trkpt lat="43.68985" lon="7.07733">
        <ele>164.6</ele>
        <time>2013-12-08T09:44:18Z</time>
      </trkpt>
      <trkpt lat="43.68989" lon="7.07719">
        <ele>161.1</ele>
        <time>2013-12-08T09:44:24Z</time>
      </trkpt>
      <trkpt lat="43.68985" lon="7.07705">
        <ele>156.6</ele>
        <time>2013-12-08T09:44:32Z</time>
      </trkpt>
      <trkpt lat="43.68993" lon="7.07695">
        <ele>149.7</ele>
        <time>2013-12-08T09:44:45Z</time>
      </trkpt>
      <trkpt lat="43.68994" lon="7.07667">
        <ele>143.3</ele>
        <time>2013-12-08T09:44:55Z</time>
      </trkpt>
      <trkpt lat="43.68994" lon="7.0765">
        <ele>138.6</ele>
        <time>2013-12-08T09:45:00Z</time>
      </trkpt>
      <trkpt lat="43.68992" lon="7.07633">
        <ele>136.2</ele>
        <time>2013-12-08T09:45:03Z</time>
      </trkpt>
      <trkpt lat="43.6899" lon="7.07617">
        <ele>133.2</ele>
        <time>2013-12-08T09:45:07Z</time>
      </trkpt>
      <trkpt lat="43.68988" lon="7.07605">
        <ele>130.9</ele>
        <time>2013-12-08T09:45:10Z</time>
      </trkpt>
      <trkpt lat="43.68986" lon="7.0759">
        <ele>128.8</ele>
        <time>2013-12-08T09:45:14Z</time>
      </trkpt>
      <trkpt lat="43.68978" lon="7.07577">
        <ele>125</ele>
        <time>2013-12-08T09:45:19Z</time>
      </trkpt>
      <trkpt lat="43.68972" lon="7.07565">
        <ele>123.4</ele>
        <time>2013-12-08T09:45:22Z</time>
      </trkpt>
      <trkpt lat="43.68964" lon="7.07557">
        <ele>121.1</ele>
        <time>2013-12-08T09:45:25Z</time>
      </trkpt>
      <trkpt lat="43.68953" lon="7.07549">
        <ele>118.2</ele>
        <time>2013-12-08T09:45:28Z</time>
      </trkpt>
      <trkpt lat="43.68943" lon="7.07544">
        <ele>116.6</ele>
        <time>2013-12-08T09:45:30Z</time>
      </trkpt>
      <trkpt lat="43.68933" lon="7.07537">
        <ele>114.8</ele>
        <time>2013-12-08T09:45:32Z</time>
      </trkpt>
      <trkpt lat="43.68925" lon="7.07531">
        <ele>112.6</ele>
        <time>2013-12-08T09:45:35Z</time>
      </trkpt>
      <trkpt lat="43.68918" lon="7.07521">
        <ele>110.4</ele>
        <time>2013-12-08T09:45:38Z</time>
      </trkpt>
      <trkpt lat="43.6891" lon="7.07508">
        <ele>108.3</ele>
        <time>2013-12-08T09:45:41Z</time>
      </trkpt>
      <trkpt lat="43.68903" lon="7.07499">
        <ele>106.8</ele>
        <time>2013-12-08T09:45:43Z</time>
      </trkpt>
      <trkpt lat="43.68896" lon="7.07485">
        <ele>104.2</ele>
        <time>2013-12-08T09:45:46Z</time>
      </trkpt>
      <trkpt lat="43.68884" lon="7.07456">
        <ele>96.7</ele>
        <time>2013-12-08T09:45:52Z</time>
      </trkpt>
      <trkpt lat="43.68877" lon="7.07443">
        <ele>94.5</ele>
        <time>2013-12-08T09:45:55Z</time>
      </trkpt>
      <trkpt lat="43.68876" lon="7.07431">
        <ele>92.5</ele>
        <time>2013-12-08T09:45:58Z</time>
      </trkpt>
      <trkpt lat="43.68873" lon="7.07416">
        <ele>90</ele>
        <time>2013-12-08T09:46:01Z</time>
      </trkpt>
      <trkpt lat="43.68869" lon="7.07402">
        <ele>88.4</ele>
        <time>2013-12-08T09:46:04Z</time>
      </trkpt>
      <trkpt lat="43.68866" lon="7.07389">
        <ele>87.6</ele>
        <time>2013-12-08T09:46:06Z</time>
      </trkpt>
      <trkpt lat="43.68862" lon="7.07377">
        <ele>86.7</ele>
        <time>2013-12-08T09:46:09Z</time>
      </trkpt>
      <trkpt lat="43.68859" lon="7.07361">
        <ele>85</ele>
        <time>2013-12-08T09:46:13Z</time>
      </trkpt>
      <trkpt lat="43.6886" lon="7.07348">
        <ele>84.3</ele>
        <time>2013-12-08T09:46:15Z</time>
      </trkpt>
      <trkpt lat="43.68857" lon="7.07336">
        <ele>82.8</ele>
        <time>2013-12-08T09:46:18Z</time>
      </trkpt>
      <trkpt lat="43.68848" lon="7.07324">
        <ele>78.2</ele>
        <time>2013-12-08T09:46:23Z</time>
      </trkpt>
      <trkpt lat="43.68838" lon="7.07321">
        <ele>75.7</ele>
        <time>2013-12-08T09:46:26Z</time>
      </trkpt>
      <trkpt lat="43.68828" lon="7.0732">
        <ele>72.2</ele>
        <time>2013-12-08T09:46:29Z</time>
      </trkpt>
      <trkpt lat="43.6882" lon="7.07313">
        <ele>65.2</ele>
        <time>2013-12-08T09:46:36Z</time>
      </trkpt>
      <trkpt lat="43.68811" lon="7.07308">
        <ele>62.1</ele>
        <time>2013-12-08T09:46:43Z</time>
      </trkpt>
      <trkpt lat="43.68803" lon="7.073">
        <ele>59</ele>
        <time>2013-12-08T09:46:52Z</time>
      </trkpt>
      <trkpt lat="43.68787" lon="7.07279">
        <ele>54.6</ele>
        <time>2013-12-08T09:47:01Z</time>
      </trkpt>
      <trkpt lat="43.68783" lon="7.07267">
        <ele>50.1</ele>
        <time>2013-12-08T09:47:07Z</time>
      </trkpt>
      <trkpt lat="43.68784" lon="7.07255">
        <ele>47.6</ele>
        <time>2013-12-08T09:48:13Z</time>
      </trkpt>
      <trkpt lat="43.68754" lon="7.0724">
        <ele>49.3</ele>
        <time>2013-12-08T09:53:37Z</time>
      </trkpt>
      <trkpt lat="43.68744" lon="7.07237">
        <ele>49.2</ele>
        <time>2013-12-08T09:53:40Z</time>
      </trkpt>
      <trkpt lat="43.68733" lon="7.07235">
        <ele>49.3</ele>
        <time>2013-12-08T09:53:43Z</time>
      </trkpt>
      <trkpt lat="43.68722" lon="7.07232">
        <ele>49.6</ele>
        <time>2013-12-08T09:53:46Z</time>
      </trkpt>
      <trkpt lat="43.6871" lon="7.07228">
        <ele>49</ele>
        <time>2013-12-08T09:53:49Z</time>
      </trkpt>
      <trkpt lat="43.68699" lon="7.07225">
        <ele>48.3</ele>
        <time>2013-12-08T09:53:52Z</time>
      </trkpt>
      <trkpt lat="43.68687" lon="7.07223">
        <ele>49.2</ele>
        <time>2013-12-08T09:53:55Z</time>
      </trkpt>
      <trkpt lat="43.68675" lon="7.0722">
        <ele>49.6</ele>
        <time>2013-12-08T09:53:58Z</time>
      </trkpt>
      <trkpt lat="43.68663" lon="7.07216">
        <ele>49.2</ele>
        <time>2013-12-08T09:54:01Z</time>
      </trkpt>
      <trkpt lat="43.68651" lon="7.07213">
        <ele>49.2</ele>
        <time>2013-12-08T09:54:04Z</time>
      </trkpt>
      <trkpt lat="43.68639" lon="7.0721">
        <ele>49.1</ele>
        <time>2013-12-08T09:54:07Z</time>
      </trkpt>
      <trkpt lat="43.68627" lon="7.07207">
        <ele>48.5</ele>
        <time>2013-12-08T09:54:10Z</time>
      </trkpt>
      <trkpt lat="43.68615" lon="7.07204">
        <ele>48.2</ele>
        <time>2013-12-08T09:54:13Z</time>
      </trkpt>
      <trkpt lat="43.68603" lon="7.07201">
        <ele>48.4</ele>
        <time>2013-12-08T09:54:16Z</time>
      </trkpt>
      <trkpt lat="43.6859" lon="7.07197">
        <ele>47.9</ele>
        <time>2013-12-08T09:54:19Z</time>
      </trkpt>
      <trkpt lat="43.68577" lon="7.07194">
        <ele>48</ele>
        <time>2013-12-08T09:54:22Z</time>
      </trkpt>
      <trkpt lat="43.68565" lon="7.07193">
        <ele>48.1</ele>
        <time>2013-12-08T09:54:25Z</time>
      </trkpt>
      <trkpt lat="43.68553" lon="7.07196">
        <ele>48.4</ele>
        <time>2013-12-08T09:54:28Z</time>
      </trkpt>
      <trkpt lat="43.68542" lon="7.07201">
        <ele>48.9</ele>
        <time>2013-12-08T09:54:31Z</time>
      </trkpt>
      <trkpt lat="43.68519" lon="7.07217">
        <ele>49.5</ele>
        <time>2013-12-08T09:54:37Z</time>
      </trkpt>
      <trkpt lat="43.68507" lon="7.07225">
        <ele>49.3</ele>
        <time>2013-12-08T09:54:40Z</time>
      </trkpt>
      <trkpt lat="43.68496" lon="7.07233">
        <ele>49.7</ele>
        <time>2013-12-08T09:54:43Z</time>
      </trkpt>
      <trkpt lat="43.68485" lon="7.07241">
        <ele>49.5</ele>
        <time>2013-12-08T09:54:46Z</time>
      </trkpt>
      <trkpt lat="43.68475" lon="7.07249">
        <ele>51.1</ele>
        <time>2013-12-08T09:54:49Z</time>
      </trkpt>
      <trkpt lat="43.68466" lon="7.07257">
        <ele>51</ele>
        <time>2013-12-08T09:54:52Z</time>
      </trkpt>
      <trkpt lat="43.68457" lon="7.07265">
        <ele>51</ele>
        <time>2013-12-08T09:54:55Z</time>
      </trkpt>
      <trkpt lat="43.68448" lon="7.07274">
        <ele>51</ele>
        <time>2013-12-08T09:54:58Z</time>
      </trkpt>
      <trkpt lat="43.68439" lon="7.07283">
        <ele>51.2</ele>
        <time>2013-12-08T09:55:01Z</time>
      </trkpt>
      <trkpt lat="43.6843" lon="7.07294">
        <ele>51.5</ele>
        <time>2013-12-08T09:55:04Z</time>
      </trkpt>
      <trkpt lat="43.68422" lon="7.07304">
        <ele>52.3</ele>
        <time>2013-12-08T09:55:07Z</time>
      </trkpt>
      <trkpt lat="43.68414" lon="7.07314">
        <ele>52.3</ele>
        <time>2013-12-08T09:55:10Z</time>
      </trkpt>
      <trkpt lat="43.68405" lon="7.07323">
        <ele>52.4</ele>
        <time>2013-12-08T09:55:13Z</time>
      </trkpt>
      <trkpt lat="43.68396" lon="7.07331">
        <ele>52.8</ele>
        <time>2013-12-08T09:55:16Z</time>
      </trkpt>
      <trkpt lat="43.68387" lon="7.07338">
        <ele>53.2</ele>
        <time>2013-12-08T09:55:19Z</time>
      </trkpt>
      <trkpt lat="43.68377" lon="7.07346">
        <ele>53.4</ele>
        <time>2013-12-08T09:55:22Z</time>
      </trkpt>
      <trkpt lat="43.68368" lon="7.07354">
        <ele>53.8</ele>
        <time>2013-12-08T09:55:25Z</time>
      </trkpt>
      <trkpt lat="43.6836" lon="7.07362">
        <ele>54</ele>
        <time>2013-12-08T09:55:28Z</time>
      </trkpt>
      <trkpt lat="43.68351" lon="7.07365">
        <ele>54.3</ele>
        <time>2013-12-08T09:55:32Z</time>
      </trkpt>
      <trkpt lat="43.68337" lon="7.07381">
        <ele>53.3</ele>
        <time>2013-12-08T09:55:41Z</time>
      </trkpt>
      <trkpt lat="43.68331" lon="7.07396">
        <ele>53.5</ele>
        <time>2013-12-08T09:55:43Z</time>
      </trkpt>
      <trkpt lat="43.68324" lon="7.07412">
        <ele>53.1</ele>
        <time>2013-12-08T09:55:45Z</time>
      </trkpt>
      <trkpt lat="43.68318" lon="7.07429">
        <ele>53</ele>
        <time>2013-12-08T09:55:47Z</time>
      </trkpt>
      <trkpt lat="43.68312" lon="7.07444">
        <ele>53</ele>
        <time>2013-12-08T09:55:49Z</time>
      </trkpt>
      <trkpt lat="43.68305" lon="7.07456">
        <ele>52.3</ele>
        <time>2013-12-08T09:55:51Z</time>
      </trkpt>
      <trkpt lat="43.68297" lon="7.07466">
        <ele>51.4</ele>
        <time>2013-12-08T09:55:53Z</time>
      </trkpt>
      <trkpt lat="43.6829" lon="7.07475">
        <ele>51.4</ele>
        <time>2013-12-08T09:55:55Z</time>
      </trkpt>
      <trkpt lat="43.68283" lon="7.07486">
        <ele>51.7</ele>
        <time>2013-12-08T09:55:57Z</time>
      </trkpt>
      <trkpt lat="43.68276" lon="7.07497">
        <ele>52</ele>
        <time>2013-12-08T09:55:59Z</time>
      </trkpt>
      <trkpt lat="43.68271" lon="7.0751">
        <ele>51.6</ele>
        <time>2013-12-08T09:56:01Z</time>
      </trkpt>
      <trkpt lat="43.68265" lon="7.07522">
        <ele>51.4</ele>
        <time>2013-12-08T09:56:03Z</time>
      </trkpt>
      <trkpt lat="43.68259" lon="7.07534">
        <ele>51.2</ele>
        <time>2013-12-08T09:56:05Z</time>
      </trkpt>
      <trkpt lat="43.68253" lon="7.07546">
        <ele>51</ele>
        <time>2013-12-08T09:56:07Z</time>
      </trkpt>
      <trkpt lat="43.68248" lon="7.07559">
        <ele>51</ele>
        <time>2013-12-08T09:56:09Z</time>
      </trkpt>
      <trkpt lat="43.68242" lon="7.07571">
        <ele>51.3</ele>
        <time>2013-12-08T09:56:11Z</time>
      </trkpt>
      <trkpt lat="43.68236" lon="7.07582">
        <ele>51.3</ele>
        <time>2013-12-08T09:56:13Z</time>
      </trkpt>
      <trkpt lat="43.6823" lon="7.07594">
        <ele>51.1</ele>
        <time>2013-12-08T09:56:15Z</time>
      </trkpt>
      <trkpt lat="43.68224" lon="7.07606">
        <ele>50.6</ele>
        <time>2013-12-08T09:56:17Z</time>
      </trkpt>
      <trkpt lat="43.68218" lon="7.07618">
        <ele>50.4</ele>
        <time>2013-12-08T09:56:19Z</time>
      </trkpt>
      <trkpt lat="43.68211" lon="7.07629">
        <ele>50.3</ele>
        <time>2013-12-08T09:56:21Z</time>
      </trkpt>
      <trkpt lat="43.68203" lon="7.0764">
        <ele>49.8</ele>
        <time>2013-12-08T09:56:23Z</time>
      </trkpt>
      <trkpt lat="43.68195" lon="7.0765">
        <ele>49</ele>
        <time>2013-12-08T09:56:25Z</time>
      </trkpt>
      <trkpt lat="43.68187" lon="7.07659">
        <ele>48.7</ele>
        <time>2013-12-08T09:56:27Z</time>
      </trkpt>
      <trkpt lat="43.68179" lon="7.07668">
        <ele>48.7</ele>
        <time>2013-12-08T09:56:29Z</time>
      </trkpt>
      <trkpt lat="43.6817" lon="7.07676">
        <ele>48.8</ele>
        <time>2013-12-08T09:56:31Z</time>
      </trkpt>
      <trkpt lat="43.68161" lon="7.07685">
        <ele>49.3</ele>
        <time>2013-12-08T09:56:33Z</time>
      </trkpt>
      <trkpt lat="43.68142" lon="7.07701">
        <ele>50.1</ele>
        <time>2013-12-08T09:56:37Z</time>
      </trkpt>
      <trkpt lat="43.68132" lon="7.0771">
        <ele>49.5</ele>
        <time>2013-12-08T09:56:39Z</time>
      </trkpt>
      <trkpt lat="43.68123" lon="7.07719">
        <ele>48.6</ele>
        <time>2013-12-08T09:56:41Z</time>
      </trkpt>
      <trkpt lat="43.68114" lon="7.07728">
        <ele>48.8</ele>
        <time>2013-12-08T09:56:43Z</time>
      </trkpt>
      <trkpt lat="43.68106" lon="7.07737">
        <ele>48.6</ele>
        <time>2013-12-08T09:56:45Z</time>
      </trkpt>
      <trkpt lat="43.68099" lon="7.07747">
        <ele>48.2</ele>
        <time>2013-12-08T09:56:47Z</time>
      </trkpt>
      <trkpt lat="43.68092" lon="7.07758">
        <ele>47.8</ele>
        <time>2013-12-08T09:56:49Z</time>
      </trkpt>
      <trkpt lat="43.68086" lon="7.07769">
        <ele>47.8</ele>
        <time>2013-12-08T09:56:51Z</time>
      </trkpt>
      <trkpt lat="43.68081" lon="7.0778">
        <ele>47.9</ele>
        <time>2013-12-08T09:56:53Z</time>
      </trkpt>
      <trkpt lat="43.68076" lon="7.07792">
        <ele>47.7</ele>
        <time>2013-12-08T09:56:55Z</time>
      </trkpt>
      <trkpt lat="43.68071" lon="7.07803">
        <ele>47.5</ele>
        <time>2013-12-08T09:56:57Z</time>
      </trkpt>
      <trkpt lat="43.68066" lon="7.07815">
        <ele>47.4</ele>
        <time>2013-12-08T09:56:59Z</time>
      </trkpt>
      <trkpt lat="43.68061" lon="7.07828">
        <ele>46.9</ele>
        <time>2013-12-08T09:57:01Z</time>
      </trkpt>
      <trkpt lat="43.68056" lon="7.07842">
        <ele>46.2</ele>
        <time>2013-12-08T09:57:03Z</time>
      </trkpt>
      <trkpt lat="43.68049" lon="7.07857">
        <ele>45.8</ele>
        <time>2013-12-08T09:57:05Z</time>
      </trkpt>
      <trkpt lat="43.68042" lon="7.07873">
        <ele>45.9</ele>
        <time>2013-12-08T09:57:07Z</time>
      </trkpt>
      <trkpt lat="43.68035" lon="7.07888">
        <ele>46.2</ele>
        <time>2013-12-08T09:57:09Z</time>
      </trkpt>
      <trkpt lat="43.68028" lon="7.07903">
        <ele>46.3</ele>
        <time>2013-12-08T09:57:11Z</time>
      </trkpt>
      <trkpt lat="43.68022" lon="7.07917">
        <ele>46.3</ele>
        <time>2013-12-08T09:57:13Z</time>
      </trkpt>
      <trkpt lat="43.68017" lon="7.0793">
        <ele>45.8</ele>
        <time>2013-12-08T09:57:15Z</time>
      </trkpt>
      <trkpt lat="43.68013" lon="7.07944">
        <ele>45.4</ele>
        <time>2013-12-08T09:57:17Z</time>
      </trkpt>
      <trkpt lat="43.6801" lon="7.07957">
        <ele>45</ele>
        <time>2013-12-08T09:57:19Z</time>
      </trkpt>
      <trkpt lat="43.6801" lon="7.07971">
        <ele>44.7</ele>
        <time>2013-12-08T09:57:21Z</time>
      </trkpt>
      <trkpt lat="43.68011" lon="7.07984">
        <ele>44.2</ele>
        <time>2013-12-08T09:57:23Z</time>
      </trkpt>
      <trkpt lat="43.68014" lon="7.08001">
        <ele>43.8</ele>
        <time>2013-12-08T09:57:26Z</time>
      </trkpt>
      <trkpt lat="43.68016" lon="7.08016">
        <ele>43.9</ele>
        <time>2013-12-08T09:57:29Z</time>
      </trkpt>
      <trkpt lat="43.68015" lon="7.0803">
        <ele>44.9</ele>
        <time>2013-12-08T09:57:33Z</time>
      </trkpt>
      <trkpt lat="43.68008" lon="7.0802">
        <ele>44.4</ele>
        <time>2013-12-08T09:57:40Z</time>
      </trkpt>
      <trkpt lat="43.67992" lon="7.08033">
        <ele>47.7</ele>
        <time>2013-12-08T09:57:53Z</time>
      </trkpt>
      <trkpt lat="43.67983" lon="7.08037">
        <ele>50.5</ele>
        <time>2013-12-08T09:57:59Z</time>
      </trkpt>
      <trkpt lat="43.67973" lon="7.08039">
        <ele>52.6</ele>
        <time>2013-12-08T09:58:06Z</time>
      </trkpt>
      <trkpt lat="43.67964" lon="7.08042">
        <ele>55.5</ele>
        <time>2013-12-08T09:58:12Z</time>
      </trkpt>
      <trkpt lat="43.67955" lon="7.08045">
        <ele>58.6</ele>
        <time>2013-12-08T09:58:19Z</time>
      </trkpt>
      <trkpt lat="43.67947" lon="7.08039">
        <ele>61.4</ele>
        <time>2013-12-08T09:58:30Z</time>
      </trkpt>
      <trkpt lat="43.6794" lon="7.08032">
        <ele>63.7</ele>
        <time>2013-12-08T09:58:39Z</time>
      </trkpt>
      <trkpt lat="43.67932" lon="7.0804">
        <ele>65.2</ele>
        <time>2013-12-08T09:58:46Z</time>
      </trkpt>
      <trkpt lat="43.67917" lon="7.08057">
        <ele>66.9</ele>
        <time>2013-12-08T09:59:00Z</time>
      </trkpt>
      <trkpt lat="43.67909" lon="7.08063">
        <ele>68.8</ele>
        <time>2013-12-08T09:59:06Z</time>
      </trkpt>
      <trkpt lat="43.67901" lon="7.08069">
        <ele>69.1</ele>
        <time>2013-12-08T09:59:12Z</time>
      </trkpt>
      <trkpt lat="43.67893" lon="7.08076">
        <ele>69.6</ele>
        <time>2013-12-08T09:59:18Z</time>
      </trkpt>
      <trkpt lat="43.67884" lon="7.08084">
        <ele>69.9</ele>
        <time>2013-12-08T09:59:24Z</time>
      </trkpt>
      <trkpt lat="43.67878" lon="7.08094">
        <ele>70.4</ele>
        <time>2013-12-08T09:59:30Z</time>
      </trkpt>
      <trkpt lat="43.67876" lon="7.08107">
        <ele>71.7</ele>
        <time>2013-12-08T09:59:36Z</time>
      </trkpt>
      <trkpt lat="43.67876" lon="7.08119">
        <ele>73.1</ele>
        <time>2013-12-08T09:59:42Z</time>
      </trkpt>
      <trkpt lat="43.67876" lon="7.08132">
        <ele>75.1</ele>
        <time>2013-12-08T09:59:49Z</time>
      </trkpt>
      <trkpt lat="43.67878" lon="7.08158">
        <ele>78.2</ele>
        <time>2013-12-08T10:00:03Z</time>
      </trkpt>
      <trkpt lat="43.67878" lon="7.08172">
        <ele>78.9</ele>
        <time>2013-12-08T10:00:10Z</time>
      </trkpt>
      <trkpt lat="43.67879" lon="7.08185">
        <ele>81.1</ele>
        <time>2013-12-08T10:00:17Z</time>
      </trkpt>
      <trkpt lat="43.6788" lon="7.08198">
        <ele>82.4</ele>
        <time>2013-12-08T10:00:24Z</time>
      </trkpt>
      <trkpt lat="43.67881" lon="7.08211">
        <ele>84</ele>
        <time>2013-12-08T10:00:30Z</time>
      </trkpt>
      <trkpt lat="43.67883" lon="7.08225">
        <ele>84.3</ele>
        <time>2013-12-08T10:00:36Z</time>
      </trkpt>
      <trkpt lat="43.67884" lon="7.08239">
        <ele>86.6</ele>
        <time>2013-12-08T10:00:42Z</time>
      </trkpt>
      <trkpt lat="43.67885" lon="7.08251">
        <ele>87.4</ele>
        <time>2013-12-08T10:00:47Z</time>
      </trkpt>
      <trkpt lat="43.67885" lon="7.08264">
        <ele>88.2</ele>
        <time>2013-12-08T10:00:52Z</time>
      </trkpt>
      <trkpt lat="43.67884" lon="7.08293">
        <ele>92.3</ele>
        <time>2013-12-08T10:01:04Z</time>
      </trkpt>
      <trkpt lat="43.6788" lon="7.08304">
        <ele>93.5</ele>
        <time>2013-12-08T10:01:10Z</time>
      </trkpt>
      <trkpt lat="43.67875" lon="7.08315">
        <ele>95.2</ele>
        <time>2013-12-08T10:01:16Z</time>
      </trkpt>
      <trkpt lat="43.67869" lon="7.08325">
        <ele>96.9</ele>
        <time>2013-12-08T10:01:21Z</time>
      </trkpt>
      <trkpt lat="43.67861" lon="7.08334">
        <ele>98.8</ele>
        <time>2013-12-08T10:01:26Z</time>
      </trkpt>
      <trkpt lat="43.67854" lon="7.08342">
        <ele>100.1</ele>
        <time>2013-12-08T10:01:31Z</time>
      </trkpt>
      <trkpt lat="43.67846" lon="7.0835">
        <ele>101.8</ele>
        <time>2013-12-08T10:01:38Z</time>
      </trkpt>
      <trkpt lat="43.67838" lon="7.08359">
        <ele>102.2</ele>
        <time>2013-12-08T10:01:44Z</time>
      </trkpt>
      <trkpt lat="43.67831" lon="7.08369">
        <ele>102.9</ele>
        <time>2013-12-08T10:01:51Z</time>
      </trkpt>
      <trkpt lat="43.67824" lon="7.0838">
        <ele>104.3</ele>
        <time>2013-12-08T10:01:57Z</time>
      </trkpt>
      <trkpt lat="43.67809" lon="7.08398">
        <ele>106.2</ele>
        <time>2013-12-08T10:02:03Z</time>
      </trkpt>
      <trkpt lat="43.67803" lon="7.08408">
        <ele>107.7</ele>
        <time>2013-12-08T10:02:08Z</time>
      </trkpt>
      <trkpt lat="43.67796" lon="7.08419">
        <ele>108.6</ele>
        <time>2013-12-08T10:02:13Z</time>
      </trkpt>
      <trkpt lat="43.67792" lon="7.0843">
        <ele>107.9</ele>
        <time>2013-12-08T10:02:17Z</time>
      </trkpt>
      <trkpt lat="43.67786" lon="7.08441">
        <ele>108</ele>
        <time>2013-12-08T10:02:21Z</time>
      </trkpt>
      <trkpt lat="43.67778" lon="7.08448">
        <ele>109.5</ele>
        <time>2013-12-08T10:02:25Z</time>
      </trkpt>
      <trkpt lat="43.6777" lon="7.08454">
        <ele>109.3</ele>
        <time>2013-12-08T10:02:29Z</time>
      </trkpt>
      <trkpt lat="43.67761" lon="7.0846">
        <ele>110.1</ele>
        <time>2013-12-08T10:02:33Z</time>
      </trkpt>
      <trkpt lat="43.67752" lon="7.08467">
        <ele>110.8</ele>
        <time>2013-12-08T10:02:37Z</time>
      </trkpt>
      <trkpt lat="43.67742" lon="7.08475">
        <ele>111.4</ele>
        <time>2013-12-08T10:02:42Z</time>
      </trkpt>
      <trkpt lat="43.67733" lon="7.08482">
        <ele>111.1</ele>
        <time>2013-12-08T10:02:46Z</time>
      </trkpt>
      <trkpt lat="43.67725" lon="7.08489">
        <ele>111.2</ele>
        <time>2013-12-08T10:02:49Z</time>
      </trkpt>
      <trkpt lat="43.67716" lon="7.08495">
        <ele>111.4</ele>
        <time>2013-12-08T10:02:52Z</time>
      </trkpt>
      <trkpt lat="43.67706" lon="7.08502">
        <ele>110.9</ele>
        <time>2013-12-08T10:02:56Z</time>
      </trkpt>
      <trkpt lat="43.67699" lon="7.08509">
        <ele>110.8</ele>
        <time>2013-12-08T10:03:00Z</time>
      </trkpt>
      <trkpt lat="43.67681" lon="7.08523">
        <ele>110.7</ele>
        <time>2013-12-08T10:03:10Z</time>
      </trkpt>
      <trkpt lat="43.67671" lon="7.08529">
        <ele>110.3</ele>
        <time>2013-12-08T10:03:14Z</time>
      </trkpt>
      <trkpt lat="43.6766" lon="7.08532">
        <ele>110</ele>
        <time>2013-12-08T10:03:18Z</time>
      </trkpt>
      <trkpt lat="43.67649" lon="7.08535">
        <ele>110.3</ele>
        <time>2013-12-08T10:03:22Z</time>
      </trkpt>
      <trkpt lat="43.67638" lon="7.08536">
        <ele>111.8</ele>
        <time>2013-12-08T10:03:26Z</time>
      </trkpt>
      <trkpt lat="43.67627" lon="7.08537">
        <ele>111.8</ele>
        <time>2013-12-08T10:03:30Z</time>
      </trkpt>
      <trkpt lat="43.67617" lon="7.08538">
        <ele>113</ele>
        <time>2013-12-08T10:03:34Z</time>
      </trkpt>
      <trkpt lat="43.67606" lon="7.08539">
        <ele>113.9</ele>
        <time>2013-12-08T10:03:38Z</time>
      </trkpt>
      <trkpt lat="43.67595" lon="7.08542">
        <ele>114.1</ele>
        <time>2013-12-08T10:03:42Z</time>
      </trkpt>
      <trkpt lat="43.67585" lon="7.08545">
        <ele>115.1</ele>
        <time>2013-12-08T10:03:46Z</time>
      </trkpt>
      <trkpt lat="43.67574" lon="7.0855">
        <ele>115.4</ele>
        <time>2013-12-08T10:03:50Z</time>
      </trkpt>
      <trkpt lat="43.67564" lon="7.08557">
        <ele>115.3</ele>
        <time>2013-12-08T10:03:53Z</time>
      </trkpt>
      <trkpt lat="43.67555" lon="7.08563">
        <ele>115</ele>
        <time>2013-12-08T10:03:55Z</time>
      </trkpt>
      <trkpt lat="43.67544" lon="7.08569">
        <ele>114.7</ele>
        <time>2013-12-08T10:03:57Z</time>
      </trkpt>
      <trkpt lat="43.67531" lon="7.08578">
        <ele>113.9</ele>
        <time>2013-12-08T10:03:59Z</time>
      </trkpt>
      <trkpt lat="43.67517" lon="7.08585">
        <ele>113</ele>
        <time>2013-12-08T10:04:01Z</time>
      </trkpt>
      <trkpt lat="43.67492" lon="7.0859">
        <ele>111.2</ele>
        <time>2013-12-08T10:04:05Z</time>
      </trkpt>
      <trkpt lat="43.6748" lon="7.08591">
        <ele>110</ele>
        <time>2013-12-08T10:04:08Z</time>
      </trkpt>
      <trkpt lat="43.67469" lon="7.08592">
        <ele>110.6</ele>
        <time>2013-12-08T10:04:11Z</time>
      </trkpt>
      <trkpt lat="43.67458" lon="7.0859">
        <ele>111.1</ele>
        <time>2013-12-08T10:04:14Z</time>
      </trkpt>
      <trkpt lat="43.67449" lon="7.08588">
        <ele>111.9</ele>
        <time>2013-12-08T10:04:17Z</time>
      </trkpt>
      <trkpt lat="43.67438" lon="7.08584">
        <ele>112.4</ele>
        <time>2013-12-08T10:04:21Z</time>
      </trkpt>
      <trkpt lat="43.67428" lon="7.0858">
        <ele>113</ele>
        <time>2013-12-08T10:04:25Z</time>
      </trkpt>
      <trkpt lat="43.67419" lon="7.08576">
        <ele>113.8</ele>
        <time>2013-12-08T10:04:29Z</time>
      </trkpt>
      <trkpt lat="43.67408" lon="7.08571">
        <ele>114.9</ele>
        <time>2013-12-08T10:04:34Z</time>
      </trkpt>
      <trkpt lat="43.67399" lon="7.08566">
        <ele>115.9</ele>
        <time>2013-12-08T10:04:38Z</time>
      </trkpt>
      <trkpt lat="43.6739" lon="7.0856">
        <ele>116.3</ele>
        <time>2013-12-08T10:04:42Z</time>
      </trkpt>
      <trkpt lat="43.67382" lon="7.08556">
        <ele>118</ele>
        <time>2013-12-08T10:04:46Z</time>
      </trkpt>
      <trkpt lat="43.67372" lon="7.08551">
        <ele>120.3</ele>
        <time>2013-12-08T10:04:51Z</time>
      </trkpt>
      <trkpt lat="43.67363" lon="7.08548">
        <ele>121.6</ele>
        <time>2013-12-08T10:04:56Z</time>
      </trkpt>
      <trkpt lat="43.67353" lon="7.08542">
        <ele>123.1</ele>
        <time>2013-12-08T10:05:03Z</time>
      </trkpt>
      <trkpt lat="43.67337" lon="7.08529">
        <ele>125.3</ele>
        <time>2013-12-08T10:05:15Z</time>
      </trkpt>
      <trkpt lat="43.67329" lon="7.08523">
        <ele>127</ele>
        <time>2013-12-08T10:05:21Z</time>
      </trkpt>
      <trkpt lat="43.6732" lon="7.08515">
        <ele>129.2</ele>
        <time>2013-12-08T10:05:36Z</time>
      </trkpt>
      <trkpt lat="43.67311" lon="7.08511">
        <ele>129.6</ele>
        <time>2013-12-08T10:05:42Z</time>
      </trkpt>
      <trkpt lat="43.67302" lon="7.08505">
        <ele>130.5</ele>
        <time>2013-12-08T10:05:48Z</time>
      </trkpt>
      <trkpt lat="43.67292" lon="7.08499">
        <ele>130.9</ele>
        <time>2013-12-08T10:05:54Z</time>
      </trkpt>
      <trkpt lat="43.67284" lon="7.08494">
        <ele>132.5</ele>
        <time>2013-12-08T10:05:59Z</time>
      </trkpt>
      <trkpt lat="43.67276" lon="7.08487">
        <ele>134.3</ele>
        <time>2013-12-08T10:06:04Z</time>
      </trkpt>
      <trkpt lat="43.67261" lon="7.0847">
        <ele>137.1</ele>
        <time>2013-12-08T10:06:17Z</time>
      </trkpt>
      <trkpt lat="43.67254" lon="7.0846">
        <ele>138</ele>
        <time>2013-12-08T10:06:23Z</time>
      </trkpt>
      <trkpt lat="43.67247" lon="7.08449">
        <ele>140</ele>
        <time>2013-12-08T10:06:29Z</time>
      </trkpt>
      <trkpt lat="43.67239" lon="7.08441">
        <ele>142.4</ele>
        <time>2013-12-08T10:06:35Z</time>
      </trkpt>
      <trkpt lat="43.67231" lon="7.08434">
        <ele>143.5</ele>
        <time>2013-12-08T10:06:40Z</time>
      </trkpt>
      <trkpt lat="43.67222" lon="7.08428">
        <ele>144.1</ele>
        <time>2013-12-08T10:06:45Z</time>
      </trkpt>
      <trkpt lat="43.67214" lon="7.08422">
        <ele>144.3</ele>
        <time>2013-12-08T10:06:50Z</time>
      </trkpt>
      <trkpt lat="43.67206" lon="7.08415">
        <ele>145.9</ele>
        <time>2013-12-08T10:06:55Z</time>
      </trkpt>
      <trkpt lat="43.67197" lon="7.08411">
        <ele>146.8</ele>
        <time>2013-12-08T10:07:01Z</time>
      </trkpt>
      <trkpt lat="43.67189" lon="7.08407">
        <ele>147.3</ele>
        <time>2013-12-08T10:07:07Z</time>
      </trkpt>
      <trkpt lat="43.6717" lon="7.08413">
        <ele>149.4</ele>
        <time>2013-12-08T10:07:19Z</time>
      </trkpt>
      <trkpt lat="43.67161" lon="7.08416">
        <ele>150.6</ele>
        <time>2013-12-08T10:07:24Z</time>
      </trkpt>
      <trkpt lat="43.67151" lon="7.08419">
        <ele>151.6</ele>
        <time>2013-12-08T10:07:30Z</time>
      </trkpt>
      <trkpt lat="43.67141" lon="7.08422">
        <ele>153.9</ele>
        <time>2013-12-08T10:07:36Z</time>
      </trkpt>
      <trkpt lat="43.67132" lon="7.08424">
        <ele>155</ele>
        <time>2013-12-08T10:07:41Z</time>
      </trkpt>
      <trkpt lat="43.67123" lon="7.08427">
        <ele>157</ele>
        <time>2013-12-08T10:07:46Z</time>
      </trkpt>
      <trkpt lat="43.67114" lon="7.08432">
        <ele>157.6</ele>
        <time>2013-12-08T10:07:52Z</time>
      </trkpt>
      <trkpt lat="43.67106" lon="7.0844">
        <ele>159.6</ele>
        <time>2013-12-08T10:07:59Z</time>
      </trkpt>
      <trkpt lat="43.67097" lon="7.08446">
        <ele>159.5</ele>
        <time>2013-12-08T10:08:05Z</time>
      </trkpt>
      <trkpt lat="43.67088" lon="7.08452">
        <ele>161.2</ele>
        <time>2013-12-08T10:08:12Z</time>
      </trkpt>
      <trkpt lat="43.67069" lon="7.08461">
        <ele>163.9</ele>
        <time>2013-12-08T10:08:23Z</time>
      </trkpt>
      <trkpt lat="43.6706" lon="7.08463">
        <ele>164.5</ele>
        <time>2013-12-08T10:08:28Z</time>
      </trkpt>
      <trkpt lat="43.6705" lon="7.08465">
        <ele>164.5</ele>
        <time>2013-12-08T10:08:34Z</time>
      </trkpt>
      <trkpt lat="43.6704" lon="7.08467">
        <ele>166.5</ele>
        <time>2013-12-08T10:08:40Z</time>
      </trkpt>
      <trkpt lat="43.6703" lon="7.08468">
        <ele>167.6</ele>
        <time>2013-12-08T10:08:46Z</time>
      </trkpt>
      <trkpt lat="43.6702" lon="7.08469">
        <ele>168</ele>
        <time>2013-12-08T10:08:51Z</time>
      </trkpt>
      <trkpt lat="43.67011" lon="7.0847">
        <ele>169.2</ele>
        <time>2013-12-08T10:08:56Z</time>
      </trkpt>
      <trkpt lat="43.67" lon="7.08471">
        <ele>170.6</ele>
        <time>2013-12-08T10:09:01Z</time>
      </trkpt>
      <trkpt lat="43.66989" lon="7.08468">
        <ele>172.2</ele>
        <time>2013-12-08T10:09:05Z</time>
      </trkpt>
      <trkpt lat="43.66978" lon="7.08464">
        <ele>173.2</ele>
        <time>2013-12-08T10:09:09Z</time>
      </trkpt>
      <trkpt lat="43.66968" lon="7.08461">
        <ele>173.9</ele>
        <time>2013-12-08T10:09:13Z</time>
      </trkpt>
      <trkpt lat="43.66951" lon="7.08452">
        <ele>176.2</ele>
        <time>2013-12-08T10:09:21Z</time>
      </trkpt>
      <trkpt lat="43.6694" lon="7.08447">
        <ele>177</ele>
        <time>2013-12-08T10:09:26Z</time>
      </trkpt>
      <trkpt lat="43.66931" lon="7.08443">
        <ele>177</ele>
        <time>2013-12-08T10:09:30Z</time>
      </trkpt>
      <trkpt lat="43.66922" lon="7.08437">
        <ele>176.6</ele>
        <time>2013-12-08T10:09:34Z</time>
      </trkpt>
      <trkpt lat="43.66913" lon="7.0843">
        <ele>176.9</ele>
        <time>2013-12-08T10:09:39Z</time>
      </trkpt>
      <trkpt lat="43.66905" lon="7.08424">
        <ele>177.2</ele>
        <time>2013-12-08T10:09:44Z</time>
      </trkpt>
      <trkpt lat="43.66898" lon="7.08416">
        <ele>179</ele>
        <time>2013-12-08T10:09:55Z</time>
      </trkpt>
      <trkpt lat="43.66892" lon="7.08405">
        <ele>179</ele>
        <time>2013-12-08T10:10:18Z</time>
      </trkpt>
      <trkpt lat="43.66889" lon="7.08417">
        <ele>179.7</ele>
        <time>2013-12-08T10:25:42Z</time>
      </trkpt>
      <trkpt lat="43.66881" lon="7.08438">
        <ele>180.7</ele>
        <time>2013-12-08T10:25:50Z</time>
      </trkpt>
      <trkpt lat="43.66886" lon="7.08448">
        <ele>180.8</ele>
        <time>2013-12-08T10:25:52Z</time>
      </trkpt>
      <trkpt lat="43.6689" lon="7.08463">
        <ele>180.5</ele>
        <time>2013-12-08T10:25:54Z</time>
      </trkpt>
      <trkpt lat="43.66888" lon="7.08481">
        <ele>180.1</ele>
        <time>2013-12-08T10:25:56Z</time>
      </trkpt>
      <trkpt lat="43.66888" lon="7.085">
        <ele>178.3</ele>
        <time>2013-12-08T10:25:58Z</time>
      </trkpt>
      <trkpt lat="43.66891" lon="7.08518">
        <ele>177.3</ele>
        <time>2013-12-08T10:26:00Z</time>
      </trkpt>
      <trkpt lat="43.66897" lon="7.08535">
        <ele>175.9</ele>
        <time>2013-12-08T10:26:02Z</time>
      </trkpt>
      <trkpt lat="43.66902" lon="7.08552">
        <ele>175.1</ele>
        <time>2013-12-08T10:26:04Z</time>
      </trkpt>
      <trkpt lat="43.66902" lon="7.08569">
        <ele>174.7</ele>
        <time>2013-12-08T10:26:06Z</time>
      </trkpt>
      <trkpt lat="43.66902" lon="7.08584">
        <ele>173.3</ele>
        <time>2013-12-08T10:26:08Z</time>
      </trkpt>
      <trkpt lat="43.66903" lon="7.08601">
        <ele>171.9</ele>
        <time>2013-12-08T10:26:11Z</time>
      </trkpt>
      <trkpt lat="43.66902" lon="7.08613">
        <ele>171.4</ele>
        <time>2013-12-08T10:26:19Z</time>
      </trkpt>
      <trkpt lat="43.669" lon="7.08626">
        <ele>171.7</ele>
        <time>2013-12-08T10:26:40Z</time>
      </trkpt>
      <trkpt lat="43.66899" lon="7.08639">
        <ele>172.4</ele>
        <time>2013-12-08T10:26:46Z</time>
      </trkpt>
      <trkpt lat="43.66899" lon="7.08665">
        <ele>172.4</ele>
        <time>2013-12-08T10:27:04Z</time>
      </trkpt>
      <trkpt lat="43.66897" lon="7.08679">
        <ele>172.5</ele>
        <time>2013-12-08T10:27:09Z</time>
      </trkpt>
      <trkpt lat="43.66895" lon="7.08693">
        <ele>173.4</ele>
        <time>2013-12-08T10:27:45Z</time>
      </trkpt>
      <trkpt lat="43.66896" lon="7.08709">
        <ele>173.5</ele>
        <time>2013-12-08T10:27:49Z</time>
      </trkpt>
      <trkpt lat="43.66898" lon="7.08737">
        <ele>173.2</ele>
        <time>2013-12-08T10:27:53Z</time>
      </trkpt>
      <trkpt lat="43.669" lon="7.08753">
        <ele>172.4</ele>
        <time>2013-12-08T10:27:55Z</time>
      </trkpt>
      <trkpt lat="43.66901" lon="7.08773">
        <ele>171.6</ele>
        <time>2013-12-08T10:27:57Z</time>
      </trkpt>
      <trkpt lat="43.669" lon="7.08795">
        <ele>170.1</ele>
        <time>2013-12-08T10:27:59Z</time>
      </trkpt>
      <trkpt lat="43.66897" lon="7.08813">
        <ele>168.5</ele>
        <time>2013-12-08T10:28:01Z</time>
      </trkpt>
      <trkpt lat="43.66894" lon="7.08827">
        <ele>165.6</ele>
        <time>2013-12-08T10:28:03Z</time>
      </trkpt>
      <trkpt lat="43.66891" lon="7.08839">
        <ele>161.8</ele>
        <time>2013-12-08T10:28:06Z</time>
      </trkpt>
      <trkpt lat="43.66888" lon="7.08852">
        <ele>159.1</ele>
        <time>2013-12-08T10:28:09Z</time>
      </trkpt>
      <trkpt lat="43.66885" lon="7.08864">
        <ele>158.1</ele>
        <time>2013-12-08T10:28:11Z</time>
      </trkpt>
      <trkpt lat="43.66882" lon="7.08877">
        <ele>157.5</ele>
        <time>2013-12-08T10:28:13Z</time>
      </trkpt>
      <trkpt lat="43.66879" lon="7.08889">
        <ele>155.1</ele>
        <time>2013-12-08T10:28:17Z</time>
      </trkpt>
      <trkpt lat="43.66875" lon="7.089">
        <ele>152.2</ele>
        <time>2013-12-08T10:28:48Z</time>
      </trkpt>
      <trkpt lat="43.66883" lon="7.08909">
        <ele>153.2</ele>
        <time>2013-12-08T10:29:21Z</time>
      </trkpt>
      <trkpt lat="43.6687" lon="7.08927">
        <ele>150.5</ele>
        <time>2013-12-08T10:29:35Z</time>
      </trkpt>
      <trkpt lat="43.66864" lon="7.08939">
        <ele>150</ele>
        <time>2013-12-08T10:29:43Z</time>
      </trkpt>
      <trkpt lat="43.66857" lon="7.08947">
        <ele>148.9</ele>
        <time>2013-12-08T10:29:50Z</time>
      </trkpt>
      <trkpt lat="43.66851" lon="7.08958">
        <ele>148.6</ele>
        <time>2013-12-08T10:32:36Z</time>
      </trkpt>
      <trkpt lat="43.66842" lon="7.08982">
        <ele>147.6</ele>
        <time>2013-12-08T10:32:45Z</time>
      </trkpt>
      <trkpt lat="43.66848" lon="7.08993">
        <ele>145.5</ele>
        <time>2013-12-08T10:32:56Z</time>
      </trkpt>
      <trkpt lat="43.66854" lon="7.09004">
        <ele>145.1</ele>
        <time>2013-12-08T10:33:01Z</time>
      </trkpt>
      <trkpt lat="43.66849" lon="7.09014">
        <ele>144.3</ele>
        <time>2013-12-08T10:33:08Z</time>
      </trkpt>
      <trkpt lat="43.6684" lon="7.09024">
        <ele>145</ele>
        <time>2013-12-08T10:33:15Z</time>
      </trkpt>
      <trkpt lat="43.66833" lon="7.09034">
        <ele>145.9</ele>
        <time>2013-12-08T10:33:19Z</time>
      </trkpt>
      <trkpt lat="43.66826" lon="7.09043">
        <ele>146.4</ele>
        <time>2013-12-08T10:33:23Z</time>
      </trkpt>
      <trkpt lat="43.66824" lon="7.09057">
        <ele>146.4</ele>
        <time>2013-12-08T10:33:29Z</time>
      </trkpt>
      <trkpt lat="43.66825" lon="7.0907">
        <ele>146</ele>
        <time>2013-12-08T10:33:33Z</time>
      </trkpt>
      <trkpt lat="43.66818" lon="7.09081">
        <ele>145</ele>
        <time>2013-12-08T10:33:38Z</time>
      </trkpt>
      <trkpt lat="43.66812" lon="7.09105">
        <ele>144.2</ele>
        <time>2013-12-08T10:33:44Z</time>
      </trkpt>
      <trkpt lat="43.6681" lon="7.09119">
        <ele>144.6</ele>
        <time>2013-12-08T10:33:49Z</time>
      </trkpt>
      <trkpt lat="43.66806" lon="7.09131">
        <ele>145.3</ele>
        <time>2013-12-08T10:33:54Z</time>
      </trkpt>
      <trkpt lat="43.66807" lon="7.09144">
        <ele>145.2</ele>
        <time>2013-12-08T10:34:00Z</time>
      </trkpt>
      <trkpt lat="43.66801" lon="7.09155">
        <ele>146</ele>
        <time>2013-12-08T10:34:05Z</time>
      </trkpt>
      <trkpt lat="43.66792" lon="7.09163">
        <ele>145.5</ele>
        <time>2013-12-08T10:34:10Z</time>
      </trkpt>
      <trkpt lat="43.66783" lon="7.09168">
        <ele>145.9</ele>
        <time>2013-12-08T10:34:14Z</time>
      </trkpt>
      <trkpt lat="43.66774" lon="7.09175">
        <ele>144.2</ele>
        <time>2013-12-08T10:34:18Z</time>
      </trkpt>
      <trkpt lat="43.66765" lon="7.09172">
        <ele>143.7</ele>
        <time>2013-12-08T10:34:24Z</time>
      </trkpt>
      <trkpt lat="43.66755" lon="7.0917">
        <ele>142.4</ele>
        <time>2013-12-08T10:34:29Z</time>
      </trkpt>
      <trkpt lat="43.66747" lon="7.09177">
        <ele>139.5</ele>
        <time>2013-12-08T10:34:35Z</time>
      </trkpt>
      <trkpt lat="43.66739" lon="7.09183">
        <ele>138.7</ele>
        <time>2013-12-08T10:34:40Z</time>
      </trkpt>
      <trkpt lat="43.66723" lon="7.09198">
        <ele>135.7</ele>
        <time>2013-12-08T10:34:46Z</time>
      </trkpt>
      <trkpt lat="43.66711" lon="7.09201">
        <ele>134.4</ele>
        <time>2013-12-08T10:34:49Z</time>
      </trkpt>
      <trkpt lat="43.66703" lon="7.0921">
        <ele>132.4</ele>
        <time>2013-12-08T10:34:51Z</time>
      </trkpt>
      <trkpt lat="43.66694" lon="7.09223">
        <ele>131.3</ele>
        <time>2013-12-08T10:34:53Z</time>
      </trkpt>
      <trkpt lat="43.66688" lon="7.09235">
        <ele>130.1</ele>
        <time>2013-12-08T10:34:55Z</time>
      </trkpt>
      <trkpt lat="43.66685" lon="7.09247">
        <ele>127.7</ele>
        <time>2013-12-08T10:34:58Z</time>
      </trkpt>
      <trkpt lat="43.66684" lon="7.0926">
        <ele>123.3</ele>
        <time>2013-12-08T10:35:03Z</time>
      </trkpt>
      <trkpt lat="43.66684" lon="7.09276">
        <ele>122.1</ele>
        <time>2013-12-08T10:35:05Z</time>
      </trkpt>
      <trkpt lat="43.66693" lon="7.09281">
        <ele>119.4</ele>
        <time>2013-12-08T10:35:09Z</time>
      </trkpt>
      <trkpt lat="43.66703" lon="7.09283">
        <ele>117.9</ele>
        <time>2013-12-08T10:35:13Z</time>
      </trkpt>
      <trkpt lat="43.66713" lon="7.09284">
        <ele>117.6</ele>
        <time>2013-12-08T10:35:16Z</time>
      </trkpt>
      <trkpt lat="43.66722" lon="7.09288">
        <ele>117.9</ele>
        <time>2013-12-08T10:35:19Z</time>
      </trkpt>
      <trkpt lat="43.66732" lon="7.09292">
        <ele>118.3</ele>
        <time>2013-12-08T10:35:22Z</time>
      </trkpt>
      <trkpt lat="43.66743" lon="7.09297">
        <ele>118.3</ele>
        <time>2013-12-08T10:35:25Z</time>
      </trkpt>
      <trkpt lat="43.66752" lon="7.09301">
        <ele>118.2</ele>
        <time>2013-12-08T10:35:28Z</time>
      </trkpt>
      <trkpt lat="43.66761" lon="7.09305">
        <ele>118</ele>
        <time>2013-12-08T10:35:31Z</time>
      </trkpt>
      <trkpt lat="43.6677" lon="7.09309">
        <ele>117.9</ele>
        <time>2013-12-08T10:35:34Z</time>
      </trkpt>
      <trkpt lat="43.66778" lon="7.09314">
        <ele>117.7</ele>
        <time>2013-12-08T10:35:37Z</time>
      </trkpt>
      <trkpt lat="43.6679" lon="7.09318">
        <ele>117.6</ele>
        <time>2013-12-08T10:35:41Z</time>
      </trkpt>
      <trkpt lat="43.66807" lon="7.0933">
        <ele>117.3</ele>
        <time>2013-12-08T10:36:05Z</time>
      </trkpt>
      <trkpt lat="43.66818" lon="7.09337">
        <ele>118.1</ele>
        <time>2013-12-08T10:36:08Z</time>
      </trkpt>
      <trkpt lat="43.66828" lon="7.09343">
        <ele>118.1</ele>
        <time>2013-12-08T10:36:11Z</time>
      </trkpt>
      <trkpt lat="43.66837" lon="7.09347">
        <ele>117.7</ele>
        <time>2013-12-08T10:36:15Z</time>
      </trkpt>
      <trkpt lat="43.6684" lon="7.0936">
        <ele>117.6</ele>
        <time>2013-12-08T10:36:21Z</time>
      </trkpt>
      <trkpt lat="43.66837" lon="7.09373">
        <ele>117.3</ele>
        <time>2013-12-08T10:36:23Z</time>
      </trkpt>
      <trkpt lat="43.66834" lon="7.09385">
        <ele>116.8</ele>
        <time>2013-12-08T10:36:25Z</time>
      </trkpt>
      <trkpt lat="43.66832" lon="7.09399">
        <ele>117.8</ele>
        <time>2013-12-08T10:36:27Z</time>
      </trkpt>
      <trkpt lat="43.66834" lon="7.09412">
        <ele>117.8</ele>
        <time>2013-12-08T10:36:29Z</time>
      </trkpt>
      <trkpt lat="43.66835" lon="7.09425">
        <ele>117.4</ele>
        <time>2013-12-08T10:36:31Z</time>
      </trkpt>
      <trkpt lat="43.66832" lon="7.09439">
        <ele>116.7</ele>
        <time>2013-12-08T10:36:33Z</time>
      </trkpt>
      <trkpt lat="43.66828" lon="7.09454">
        <ele>116.1</ele>
        <time>2013-12-08T10:36:35Z</time>
      </trkpt>
      <trkpt lat="43.66823" lon="7.09469">
        <ele>114.7</ele>
        <time>2013-12-08T10:36:37Z</time>
      </trkpt>
      <trkpt lat="43.66816" lon="7.0948">
        <ele>113.4</ele>
        <time>2013-12-08T10:36:39Z</time>
      </trkpt>
      <trkpt lat="43.66808" lon="7.09488">
        <ele>112.3</ele>
        <time>2013-12-08T10:36:41Z</time>
      </trkpt>
      <trkpt lat="43.66799" lon="7.095">
        <ele>112</ele>
        <time>2013-12-08T10:36:44Z</time>
      </trkpt>
      <trkpt lat="43.66779" lon="7.09507">
        <ele>110.5</ele>
        <time>2013-12-08T10:37:58Z</time>
      </trkpt>
      <trkpt lat="43.66772" lon="7.09529">
        <ele>110.9</ele>
        <time>2013-12-08T10:38:07Z</time>
      </trkpt>
      <trkpt lat="43.66768" lon="7.09546">
        <ele>108.6</ele>
        <time>2013-12-08T10:38:11Z</time>
      </trkpt>
      <trkpt lat="43.66763" lon="7.09563">
        <ele>107.1</ele>
        <time>2013-12-08T10:38:14Z</time>
      </trkpt>
      <trkpt lat="43.66759" lon="7.09576">
        <ele>106.5</ele>
        <time>2013-12-08T10:38:16Z</time>
      </trkpt>
      <trkpt lat="43.66755" lon="7.0959">
        <ele>105.7</ele>
        <time>2013-12-08T10:38:19Z</time>
      </trkpt>
      <trkpt lat="43.66751" lon="7.09605">
        <ele>104.8</ele>
        <time>2013-12-08T10:38:22Z</time>
      </trkpt>
      <trkpt lat="43.66747" lon="7.09618">
        <ele>103.9</ele>
        <time>2013-12-08T10:38:24Z</time>
      </trkpt>
      <trkpt lat="43.66743" lon="7.09632">
        <ele>102.9</ele>
        <time>2013-12-08T10:38:26Z</time>
      </trkpt>
      <trkpt lat="43.66738" lon="7.09647">
        <ele>101</ele>
        <time>2013-12-08T10:38:28Z</time>
      </trkpt>
      <trkpt lat="43.66734" lon="7.09662">
        <ele>99.9</ele>
        <time>2013-12-08T10:38:30Z</time>
      </trkpt>
      <trkpt lat="43.6673" lon="7.09675">
        <ele>98.7</ele>
        <time>2013-12-08T10:38:32Z</time>
      </trkpt>
      <trkpt lat="43.66723" lon="7.09684">
        <ele>98.4</ele>
        <time>2013-12-08T10:38:34Z</time>
      </trkpt>
      <trkpt lat="43.66717" lon="7.09696">
        <ele>98.5</ele>
        <time>2013-12-08T10:38:36Z</time>
      </trkpt>
      <trkpt lat="43.66713" lon="7.09709">
        <ele>97.6</ele>
        <time>2013-12-08T10:38:38Z</time>
      </trkpt>
      <trkpt lat="43.66707" lon="7.09724">
        <ele>96.9</ele>
        <time>2013-12-08T10:38:40Z</time>
      </trkpt>
      <trkpt lat="43.667" lon="7.09739">
        <ele>96.3</ele>
        <time>2013-12-08T10:38:42Z</time>
      </trkpt>
      <trkpt lat="43.66696" lon="7.09756">
        <ele>95.6</ele>
        <time>2013-12-08T10:38:44Z</time>
      </trkpt>
      <trkpt lat="43.66692" lon="7.09773">
        <ele>95.2</ele>
        <time>2013-12-08T10:38:46Z</time>
      </trkpt>
      <trkpt lat="43.66693" lon="7.09791">
        <ele>95</ele>
        <time>2013-12-08T10:38:48Z</time>
      </trkpt>
      <trkpt lat="43.66689" lon="7.09808">
        <ele>94.6</ele>
        <time>2013-12-08T10:38:50Z</time>
      </trkpt>
      <trkpt lat="43.66683" lon="7.09822">
        <ele>94.1</ele>
        <time>2013-12-08T10:38:52Z</time>
      </trkpt>
      <trkpt lat="43.66677" lon="7.09835">
        <ele>93.4</ele>
        <time>2013-12-08T10:38:54Z</time>
      </trkpt>
      <trkpt lat="43.66669" lon="7.09849">
        <ele>92.9</ele>
        <time>2013-12-08T10:38:56Z</time>
      </trkpt>
      <trkpt lat="43.66665" lon="7.09866">
        <ele>92.5</ele>
        <time>2013-12-08T10:38:58Z</time>
      </trkpt>
      <trkpt lat="43.66665" lon="7.09883">
        <ele>92.3</ele>
        <time>2013-12-08T10:39:00Z</time>
      </trkpt>
      <trkpt lat="43.66654" lon="7.09916">
        <ele>91.2</ele>
        <time>2013-12-08T10:39:04Z</time>
      </trkpt>
      <trkpt lat="43.66649" lon="7.09933">
        <ele>90</ele>
        <time>2013-12-08T10:39:06Z</time>
      </trkpt>
      <trkpt lat="43.66649" lon="7.09953">
        <ele>88.9</ele>
        <time>2013-12-08T10:39:08Z</time>
      </trkpt>
      <trkpt lat="43.66647" lon="7.09972">
        <ele>88.1</ele>
        <time>2013-12-08T10:39:10Z</time>
      </trkpt>
      <trkpt lat="43.6664" lon="7.09986">
        <ele>86.6</ele>
        <time>2013-12-08T10:39:12Z</time>
      </trkpt>
      <trkpt lat="43.66636" lon="7.1">
        <ele>84.9</ele>
        <time>2013-12-08T10:39:14Z</time>
      </trkpt>
      <trkpt lat="43.66627" lon="7.10004">
        <ele>82.5</ele>
        <time>2013-12-08T10:39:18Z</time>
      </trkpt>
      <trkpt lat="43.66623" lon="7.10017">
        <ele>81.4</ele>
        <time>2013-12-08T10:39:22Z</time>
      </trkpt>
      <trkpt lat="43.66617" lon="7.10029">
        <ele>81.8</ele>
        <time>2013-12-08T10:39:25Z</time>
      </trkpt>
      <trkpt lat="43.66617" lon="7.10042">
        <ele>81</ele>
        <time>2013-12-08T10:39:28Z</time>
      </trkpt>
      <trkpt lat="43.66623" lon="7.10056">
        <ele>79.1</ele>
        <time>2013-12-08T10:39:31Z</time>
      </trkpt>
      <trkpt lat="43.66632" lon="7.10067">
        <ele>78.2</ele>
        <time>2013-12-08T10:39:33Z</time>
      </trkpt>
      <trkpt lat="43.66635" lon="7.10082">
        <ele>75</ele>
        <time>2013-12-08T10:39:35Z</time>
      </trkpt>
      <trkpt lat="43.66638" lon="7.10098">
        <ele>73.2</ele>
        <time>2013-12-08T10:39:37Z</time>
      </trkpt>
      <trkpt lat="43.66639" lon="7.10117">
        <ele>70.4</ele>
        <time>2013-12-08T10:39:39Z</time>
      </trkpt>
      <trkpt lat="43.66646" lon="7.10131">
        <ele>68.1</ele>
        <time>2013-12-08T10:39:41Z</time>
      </trkpt>
      <trkpt lat="43.66656" lon="7.10141">
        <ele>66.2</ele>
        <time>2013-12-08T10:39:43Z</time>
      </trkpt>
      <trkpt lat="43.66667" lon="7.10147">
        <ele>61.9</ele>
        <time>2013-12-08T10:39:46Z</time>
      </trkpt>
      <trkpt lat="43.66677" lon="7.10153">
        <ele>59.1</ele>
        <time>2013-12-08T10:39:50Z</time>
      </trkpt>
      <trkpt lat="43.66686" lon="7.1016">
        <ele>57.8</ele>
        <time>2013-12-08T10:39:53Z</time>
      </trkpt>
      <trkpt lat="43.66694" lon="7.1017">
        <ele>56.6</ele>
        <time>2013-12-08T10:39:56Z</time>
      </trkpt>
      <trkpt lat="43.66701" lon="7.10185">
        <ele>55.8</ele>
        <time>2013-12-08T10:39:59Z</time>
      </trkpt>
      <trkpt lat="43.66711" lon="7.10196">
        <ele>54.3</ele>
        <time>2013-12-08T10:40:02Z</time>
      </trkpt>
      <trkpt lat="43.66725" lon="7.10218">
        <ele>50.8</ele>
        <time>2013-12-08T10:40:10Z</time>
      </trkpt>
      <trkpt lat="43.66733" lon="7.10229">
        <ele>48.4</ele>
        <time>2013-12-08T10:40:14Z</time>
      </trkpt>
      <trkpt lat="43.66739" lon="7.10239">
        <ele>47.5</ele>
        <time>2013-12-08T10:40:17Z</time>
      </trkpt>
      <trkpt lat="43.66742" lon="7.10253">
        <ele>46.2</ele>
        <time>2013-12-08T10:40:20Z</time>
      </trkpt>
      <trkpt lat="43.66749" lon="7.10264">
        <ele>44.4</ele>
        <time>2013-12-08T10:40:24Z</time>
      </trkpt>
      <trkpt lat="43.66758" lon="7.10276">
        <ele>43.9</ele>
        <time>2013-12-08T10:40:29Z</time>
      </trkpt>
      <trkpt lat="43.66768" lon="7.10288">
        <ele>43.4</ele>
        <time>2013-12-08T10:40:32Z</time>
      </trkpt>
      <trkpt lat="43.66776" lon="7.10299">
        <ele>42.5</ele>
        <time>2013-12-08T10:40:34Z</time>
      </trkpt>
      <trkpt lat="43.66785" lon="7.10309">
        <ele>42</ele>
        <time>2013-12-08T10:40:36Z</time>
      </trkpt>
      <trkpt lat="43.66792" lon="7.1032">
        <ele>40.2</ele>
        <time>2013-12-08T10:40:39Z</time>
      </trkpt>
      <trkpt lat="43.668" lon="7.10327">
        <ele>38.8</ele>
        <time>2013-12-08T10:40:42Z</time>
      </trkpt>
      <trkpt lat="43.66805" lon="7.10342">
        <ele>37.5</ele>
        <time>2013-12-08T10:40:45Z</time>
      </trkpt>
      <trkpt lat="43.6681" lon="7.10352">
        <ele>36.4</ele>
        <time>2013-12-08T10:40:48Z</time>
      </trkpt>
      <trkpt lat="43.66809" lon="7.10366">
        <ele>34.1</ele>
        <time>2013-12-08T10:40:54Z</time>
      </trkpt>
      <trkpt lat="43.66812" lon="7.10381">
        <ele>31.8</ele>
        <time>2013-12-08T10:40:59Z</time>
      </trkpt>
      <trkpt lat="43.66816" lon="7.10395">
        <ele>30.9</ele>
        <time>2013-12-08T10:41:02Z</time>
      </trkpt>
      <trkpt lat="43.66812" lon="7.10406">
        <ele>29.2</ele>
        <time>2013-12-08T10:41:08Z</time>
      </trkpt>
      <trkpt lat="43.66833" lon="7.10409">
        <ele>26.3</ele>
        <time>2013-12-08T10:41:20Z</time>
      </trkpt>
      <trkpt lat="43.66842" lon="7.10407">
        <ele>26.8</ele>
        <time>2013-12-08T10:41:24Z</time>
      </trkpt>
      <trkpt lat="43.66852" lon="7.10407">
        <ele>25.9</ele>
        <time>2013-12-08T10:41:31Z</time>
      </trkpt>
      <trkpt lat="43.66863" lon="7.10405">
        <ele>25.8</ele>
        <time>2013-12-08T10:41:36Z</time>
      </trkpt>
      <trkpt lat="43.66874" lon="7.10403">
        <ele>25.9</ele>
        <time>2013-12-08T10:41:40Z</time>
      </trkpt>
      <trkpt lat="43.66884" lon="7.10404">
        <ele>25.9</ele>
        <time>2013-12-08T10:41:43Z</time>
      </trkpt>
      <trkpt lat="43.66894" lon="7.10408">
        <ele>26.4</ele>
        <time>2013-12-08T10:41:46Z</time>
      </trkpt>
      <trkpt lat="43.66905" lon="7.10416">
        <ele>26.6</ele>
        <time>2013-12-08T10:41:49Z</time>
      </trkpt>
      <trkpt lat="43.66915" lon="7.10424">
        <ele>26.2</ele>
        <time>2013-12-08T10:41:52Z</time>
      </trkpt>
      <trkpt lat="43.66926" lon="7.1043">
        <ele>25.9</ele>
        <time>2013-12-08T10:41:55Z</time>
      </trkpt>
      <trkpt lat="43.66937" lon="7.10435">
        <ele>26</ele>
        <time>2013-12-08T10:42:01Z</time>
      </trkpt>
      <trkpt lat="43.66942" lon="7.10447">
        <ele>26</ele>
        <time>2013-12-08T10:42:04Z</time>
      </trkpt>
      <trkpt lat="43.66943" lon="7.10463">
        <ele>26.8</ele>
        <time>2013-12-08T10:42:07Z</time>
      </trkpt>
      <trkpt lat="43.66941" lon="7.10476">
        <ele>26.1</ele>
        <time>2013-12-08T10:42:10Z</time>
      </trkpt>
      <trkpt lat="43.66933" lon="7.10503">
        <ele>25.5</ele>
        <time>2013-12-08T10:42:16Z</time>
      </trkpt>
      <trkpt lat="43.66928" lon="7.10517">
        <ele>25.1</ele>
        <time>2013-12-08T10:42:19Z</time>
      </trkpt>
      <trkpt lat="43.66924" lon="7.1053">
        <ele>25.8</ele>
        <time>2013-12-08T10:42:23Z</time>
      </trkpt>
      <trkpt lat="43.6692" lon="7.10542">
        <ele>24.9</ele>
        <time>2013-12-08T10:42:27Z</time>
      </trkpt>
      <trkpt lat="43.66916" lon="7.10555">
        <ele>24.6</ele>
        <time>2013-12-08T10:42:31Z</time>
      </trkpt>
      <trkpt lat="43.66913" lon="7.10567">
        <ele>23.6</ele>
        <time>2013-12-08T10:42:35Z</time>
      </trkpt>
      <trkpt lat="43.66907" lon="7.10576">
        <ele>23.5</ele>
        <time>2013-12-08T10:42:42Z</time>
      </trkpt>
      <trkpt lat="43.66903" lon="7.10589">
        <ele>25</ele>
        <time>2013-12-08T10:46:32Z</time>
      </trkpt>
      <trkpt lat="43.66896" lon="7.10616">
        <ele>24.7</ele>
        <time>2013-12-08T10:46:39Z</time>
      </trkpt>
      <trkpt lat="43.66893" lon="7.10629">
        <ele>24.8</ele>
        <time>2013-12-08T10:46:42Z</time>
      </trkpt>
      <trkpt lat="43.6689" lon="7.10642">
        <ele>24.8</ele>
        <time>2013-12-08T10:46:45Z</time>
      </trkpt>
      <trkpt lat="43.66887" lon="7.10656">
        <ele>24.7</ele>
        <time>2013-12-08T10:46:48Z</time>
      </trkpt>
      <trkpt lat="43.66883" lon="7.1067">
        <ele>23.8</ele>
        <time>2013-12-08T10:46:51Z</time>
      </trkpt>
      <trkpt lat="43.6688" lon="7.10685">
        <ele>24.5</ele>
        <time>2013-12-08T10:46:54Z</time>
      </trkpt>
      <trkpt lat="43.66875" lon="7.107">
        <ele>24</ele>
        <time>2013-12-08T10:46:57Z</time>
      </trkpt>
      <trkpt lat="43.6687" lon="7.10716">
        <ele>24</ele>
        <time>2013-12-08T10:47:00Z</time>
      </trkpt>
      <trkpt lat="43.66865" lon="7.10731">
        <ele>24.7</ele>
        <time>2013-12-08T10:47:03Z</time>
      </trkpt>
      <trkpt lat="43.66861" lon="7.10746">
        <ele>24.6</ele>
        <time>2013-12-08T10:47:06Z</time>
      </trkpt>
      <trkpt lat="43.66856" lon="7.10762">
        <ele>24.6</ele>
        <time>2013-12-08T10:47:09Z</time>
      </trkpt>
      <trkpt lat="43.66853" lon="7.10778">
        <ele>24.5</ele>
        <time>2013-12-08T10:47:12Z</time>
      </trkpt>
      <trkpt lat="43.66849" lon="7.10793">
        <ele>24.3</ele>
        <time>2013-12-08T10:47:15Z</time>
      </trkpt>
      <trkpt lat="43.66846" lon="7.10808">
        <ele>24.5</ele>
        <time>2013-12-08T10:47:18Z</time>
      </trkpt>
      <trkpt lat="43.66845" lon="7.10825">
        <ele>24</ele>
        <time>2013-12-08T10:47:21Z</time>
      </trkpt>
      <trkpt lat="43.66842" lon="7.10843">
        <ele>23.2</ele>
        <time>2013-12-08T10:47:24Z</time>
      </trkpt>
      <trkpt lat="43.66838" lon="7.1086">
        <ele>23.1</ele>
        <time>2013-12-08T10:47:27Z</time>
      </trkpt>
      <trkpt lat="43.66833" lon="7.10874">
        <ele>23</ele>
        <time>2013-12-08T10:47:30Z</time>
      </trkpt>
      <trkpt lat="43.66828" lon="7.10887">
        <ele>23.6</ele>
        <time>2013-12-08T10:47:33Z</time>
      </trkpt>
      <trkpt lat="43.66818" lon="7.10919">
        <ele>23.5</ele>
        <time>2013-12-08T10:47:39Z</time>
      </trkpt>
      <trkpt lat="43.66816" lon="7.10932">
        <ele>23.9</ele>
        <time>2013-12-08T10:47:41Z</time>
      </trkpt>
      <trkpt lat="43.66815" lon="7.10945">
        <ele>24.1</ele>
        <time>2013-12-08T10:47:43Z</time>
      </trkpt>
      <trkpt lat="43.66813" lon="7.10957">
        <ele>24.3</ele>
        <time>2013-12-08T10:47:45Z</time>
      </trkpt>
      <trkpt lat="43.6681" lon="7.1097">
        <ele>23.9</ele>
        <time>2013-12-08T10:47:47Z</time>
      </trkpt>
      <trkpt lat="43.66801" lon="7.10983">
        <ele>23.6</ele>
        <time>2013-12-08T10:47:50Z</time>
      </trkpt>
      <trkpt lat="43.66793" lon="7.10995">
        <ele>22.9</ele>
        <time>2013-12-08T10:47:53Z</time>
      </trkpt>
      <trkpt lat="43.66785" lon="7.1101">
        <ele>22.8</ele>
        <time>2013-12-08T10:47:56Z</time>
      </trkpt>
      <trkpt lat="43.66778" lon="7.11024">
        <ele>22.9</ele>
        <time>2013-12-08T10:47:59Z</time>
      </trkpt>
      <trkpt lat="43.6677" lon="7.11039">
        <ele>22.7</ele>
        <time>2013-12-08T10:48:02Z</time>
      </trkpt>
      <trkpt lat="43.66764" lon="7.11048">
        <ele>23.1</ele>
        <time>2013-12-08T10:48:04Z</time>
      </trkpt>
      <trkpt lat="43.66754" lon="7.11061">
        <ele>23.6</ele>
        <time>2013-12-08T10:48:07Z</time>
      </trkpt>
      <trkpt lat="43.66747" lon="7.11069">
        <ele>22.9</ele>
        <time>2013-12-08T10:48:09Z</time>
      </trkpt>
      <trkpt lat="43.6674" lon="7.11078">
        <ele>22.5</ele>
        <time>2013-12-08T10:48:11Z</time>
      </trkpt>
      <trkpt lat="43.66733" lon="7.11085">
        <ele>22.4</ele>
        <time>2013-12-08T10:48:13Z</time>
      </trkpt>
      <trkpt lat="43.66722" lon="7.11095">
        <ele>22.3</ele>
        <time>2013-12-08T10:48:16Z</time>
      </trkpt>
      <trkpt lat="43.66712" lon="7.11105">
        <ele>22.7</ele>
        <time>2013-12-08T10:48:19Z</time>
      </trkpt>
      <trkpt lat="43.66703" lon="7.11116">
        <ele>22.9</ele>
        <time>2013-12-08T10:48:22Z</time>
      </trkpt>
      <trkpt lat="43.66692" lon="7.11128">
        <ele>22.2</ele>
        <time>2013-12-08T10:48:25Z</time>
      </trkpt>
      <trkpt lat="43.66681" lon="7.11136">
        <ele>22.1</ele>
        <time>2013-12-08T10:48:28Z</time>
      </trkpt>
      <trkpt lat="43.66669" lon="7.11145">
        <ele>22.5</ele>
        <time>2013-12-08T10:48:31Z</time>
      </trkpt>
      <trkpt lat="43.66657" lon="7.11151">
        <ele>22.4</ele>
        <time>2013-12-08T10:48:34Z</time>
      </trkpt>
      <trkpt lat="43.66634" lon="7.11165">
        <ele>22</ele>
        <time>2013-12-08T10:48:40Z</time>
      </trkpt>
      <trkpt lat="43.66626" lon="7.1117">
        <ele>22.2</ele>
        <time>2013-12-08T10:48:42Z</time>
      </trkpt>
      <trkpt lat="43.66617" lon="7.11175">
        <ele>22.2</ele>
        <time>2013-12-08T10:48:44Z</time>
      </trkpt>
      <trkpt lat="43.66609" lon="7.1118">
        <ele>22.1</ele>
        <time>2013-12-08T10:48:46Z</time>
      </trkpt>
      <trkpt lat="43.66595" lon="7.11183">
        <ele>21.3</ele>
        <time>2013-12-08T10:48:49Z</time>
      </trkpt>
      <trkpt lat="43.66586" lon="7.11183">
        <ele>21.4</ele>
        <time>2013-12-08T10:48:51Z</time>
      </trkpt>
      <trkpt lat="43.66573" lon="7.11185">
        <ele>21.7</ele>
        <time>2013-12-08T10:48:54Z</time>
      </trkpt>
      <trkpt lat="43.66564" lon="7.11188">
        <ele>21.9</ele>
        <time>2013-12-08T10:48:56Z</time>
      </trkpt>
      <trkpt lat="43.66555" lon="7.11191">
        <ele>22</ele>
        <time>2013-12-08T10:48:58Z</time>
      </trkpt>
      <trkpt lat="43.66546" lon="7.11195">
        <ele>21.8</ele>
        <time>2013-12-08T10:49:00Z</time>
      </trkpt>
      <trkpt lat="43.66537" lon="7.11199">
        <ele>21.7</ele>
        <time>2013-12-08T10:49:02Z</time>
      </trkpt>
      <trkpt lat="43.66525" lon="7.11206">
        <ele>20.8</ele>
        <time>2013-12-08T10:49:05Z</time>
      </trkpt>
      <trkpt lat="43.66512" lon="7.11213">
        <ele>21.5</ele>
        <time>2013-12-08T10:49:08Z</time>
      </trkpt>
      <trkpt lat="43.665" lon="7.1122">
        <ele>20.4</ele>
        <time>2013-12-08T10:49:11Z</time>
      </trkpt>
      <trkpt lat="43.66492" lon="7.11226">
        <ele>21</ele>
        <time>2013-12-08T10:49:13Z</time>
      </trkpt>
      <trkpt lat="43.66483" lon="7.11233">
        <ele>21.4</ele>
        <time>2013-12-08T10:49:15Z</time>
      </trkpt>
      <trkpt lat="43.66475" lon="7.1124">
        <ele>21.5</ele>
        <time>2013-12-08T10:49:17Z</time>
      </trkpt>
      <trkpt lat="43.66468" lon="7.11247">
        <ele>21.4</ele>
        <time>2013-12-08T10:49:19Z</time>
      </trkpt>
      <trkpt lat="43.66458" lon="7.1126">
        <ele>20.8</ele>
        <time>2013-12-08T10:49:22Z</time>
      </trkpt>
      <trkpt lat="43.66449" lon="7.11275">
        <ele>20.6</ele>
        <time>2013-12-08T10:49:25Z</time>
      </trkpt>
      <trkpt lat="43.66442" lon="7.11283">
        <ele>21</ele>
        <time>2013-12-08T10:49:27Z</time>
      </trkpt>
      <trkpt lat="43.66433" lon="7.11283">
        <ele>20.8</ele>
        <time>2013-12-08T10:49:29Z</time>
      </trkpt>
      <trkpt lat="43.6642" lon="7.11287">
        <ele>21.5</ele>
        <time>2013-12-08T10:49:32Z</time>
      </trkpt>
      <trkpt lat="43.66413" lon="7.11294">
        <ele>22</ele>
        <time>2013-12-08T10:49:34Z</time>
      </trkpt>
      <trkpt lat="43.66402" lon="7.11305">
        <ele>21.3</ele>
        <time>2013-12-08T10:49:37Z</time>
      </trkpt>
      <trkpt lat="43.66383" lon="7.11322">
        <ele>21.3</ele>
        <time>2013-12-08T10:49:42Z</time>
      </trkpt>
      <trkpt lat="43.66371" lon="7.11328">
        <ele>20.9</ele>
        <time>2013-12-08T10:49:45Z</time>
      </trkpt>
      <trkpt lat="43.66358" lon="7.11332">
        <ele>20.6</ele>
        <time>2013-12-08T10:49:48Z</time>
      </trkpt>
      <trkpt lat="43.66345" lon="7.11338">
        <ele>20.4</ele>
        <time>2013-12-08T10:49:51Z</time>
      </trkpt>
      <trkpt lat="43.66333" lon="7.11344">
        <ele>20</ele>
        <time>2013-12-08T10:49:54Z</time>
      </trkpt>
      <trkpt lat="43.66321" lon="7.1135">
        <ele>19.6</ele>
        <time>2013-12-08T10:49:57Z</time>
      </trkpt>
      <trkpt lat="43.66309" lon="7.11354">
        <ele>19.5</ele>
        <time>2013-12-08T10:50:00Z</time>
      </trkpt>
      <trkpt lat="43.66296" lon="7.11356">
        <ele>19.6</ele>
        <time>2013-12-08T10:50:03Z</time>
      </trkpt>
      <trkpt lat="43.66284" lon="7.11358">
        <ele>19.9</ele>
        <time>2013-12-08T10:50:06Z</time>
      </trkpt>
      <trkpt lat="43.66275" lon="7.11359">
        <ele>20.6</ele>
        <time>2013-12-08T10:50:08Z</time>
      </trkpt>
      <trkpt lat="43.66261" lon="7.11361">
        <ele>20.3</ele>
        <time>2013-12-08T10:50:11Z</time>
      </trkpt>
      <trkpt lat="43.66251" lon="7.11363">
        <ele>20</ele>
        <time>2013-12-08T10:50:13Z</time>
      </trkpt>
      <trkpt lat="43.66243" lon="7.11366">
        <ele>19.8</ele>
        <time>2013-12-08T10:50:15Z</time>
      </trkpt>
      <trkpt lat="43.66233" lon="7.1137">
        <ele>19.8</ele>
        <time>2013-12-08T10:50:17Z</time>
      </trkpt>
      <trkpt lat="43.66224" lon="7.11376">
        <ele>19.8</ele>
        <time>2013-12-08T10:50:19Z</time>
      </trkpt>
      <trkpt lat="43.66215" lon="7.11383">
        <ele>19.7</ele>
        <time>2013-12-08T10:50:21Z</time>
      </trkpt>
      <trkpt lat="43.66206" lon="7.1139">
        <ele>19.5</ele>
        <time>2013-12-08T10:50:23Z</time>
      </trkpt>
      <trkpt lat="43.66196" lon="7.11396">
        <ele>19.3</ele>
        <time>2013-12-08T10:50:25Z</time>
      </trkpt>
      <trkpt lat="43.66187" lon="7.11401">
        <ele>19.6</ele>
        <time>2013-12-08T10:50:27Z</time>
      </trkpt>
      <trkpt lat="43.66178" lon="7.11405">
        <ele>19.8</ele>
        <time>2013-12-08T10:50:29Z</time>
      </trkpt>
      <trkpt lat="43.6617" lon="7.11411">
        <ele>19.9</ele>
        <time>2013-12-08T10:50:31Z</time>
      </trkpt>
      <trkpt lat="43.66162" lon="7.11418">
        <ele>20.1</ele>
        <time>2013-12-08T10:50:33Z</time>
      </trkpt>
      <trkpt lat="43.66154" lon="7.11425">
        <ele>20.3</ele>
        <time>2013-12-08T10:50:35Z</time>
      </trkpt>
      <trkpt lat="43.66146" lon="7.11431">
        <ele>20.5</ele>
        <time>2013-12-08T10:50:37Z</time>
      </trkpt>
      <trkpt lat="43.66139" lon="7.11438">
        <ele>21.3</ele>
        <time>2013-12-08T10:50:39Z</time>
      </trkpt>
      <trkpt lat="43.66119" lon="7.11457">
        <ele>21.5</ele>
        <time>2013-12-08T10:50:44Z</time>
      </trkpt>
      <trkpt lat="43.66111" lon="7.11465">
        <ele>21.2</ele>
        <time>2013-12-08T10:50:46Z</time>
      </trkpt>
      <trkpt lat="43.66103" lon="7.11474">
        <ele>20.9</ele>
        <time>2013-12-08T10:50:48Z</time>
      </trkpt>
      <trkpt lat="43.66095" lon="7.11484">
        <ele>20.7</ele>
        <time>2013-12-08T10:50:50Z</time>
      </trkpt>
      <trkpt lat="43.66087" lon="7.11494">
        <ele>20.3</ele>
        <time>2013-12-08T10:50:52Z</time>
      </trkpt>
      <trkpt lat="43.66081" lon="7.11505">
        <ele>20.1</ele>
        <time>2013-12-08T10:50:54Z</time>
      </trkpt>
      <trkpt lat="43.66076" lon="7.11515">
        <ele>20</ele>
        <time>2013-12-08T10:50:56Z</time>
      </trkpt>
      <trkpt lat="43.66072" lon="7.11532">
        <ele>19.9</ele>
        <time>2013-12-08T10:50:59Z</time>
      </trkpt>
      <trkpt lat="43.66067" lon="7.11548">
        <ele>19.9</ele>
        <time>2013-12-08T10:51:02Z</time>
      </trkpt>
      <trkpt lat="43.66061" lon="7.11564">
        <ele>19.6</ele>
        <time>2013-12-08T10:51:05Z</time>
      </trkpt>
      <trkpt lat="43.66056" lon="7.11576">
        <ele>19.6</ele>
        <time>2013-12-08T10:51:07Z</time>
      </trkpt>
      <trkpt lat="43.66052" lon="7.11588">
        <ele>19.8</ele>
        <time>2013-12-08T10:51:09Z</time>
      </trkpt>
      <trkpt lat="43.66047" lon="7.11601">
        <ele>19</ele>
        <time>2013-12-08T10:51:11Z</time>
      </trkpt>
      <trkpt lat="43.66042" lon="7.11614">
        <ele>18.6</ele>
        <time>2013-12-08T10:51:13Z</time>
      </trkpt>
      <trkpt lat="43.66038" lon="7.11627">
        <ele>18.4</ele>
        <time>2013-12-08T10:51:15Z</time>
      </trkpt>
      <trkpt lat="43.66034" lon="7.11639">
        <ele>18.3</ele>
        <time>2013-12-08T10:51:17Z</time>
      </trkpt>
      <trkpt lat="43.66029" lon="7.11654">
        <ele>18.4</ele>
        <time>2013-12-08T10:51:20Z</time>
      </trkpt>
      <trkpt lat="43.66024" lon="7.11666">
        <ele>18.1</ele>
        <time>2013-12-08T10:51:23Z</time>
      </trkpt>
      <trkpt lat="43.66016" lon="7.11677">
        <ele>18.9</ele>
        <time>2013-12-08T10:51:28Z</time>
      </trkpt>
      <trkpt lat="43.6601" lon="7.11689">
        <ele>19.3</ele>
        <time>2013-12-08T10:51:31Z</time>
      </trkpt>
      <trkpt lat="43.66006" lon="7.117">
        <ele>19.3</ele>
        <time>2013-12-08T10:51:33Z</time>
      </trkpt>
      <trkpt lat="43.66" lon="7.11711">
        <ele>19.1</ele>
        <time>2013-12-08T10:51:35Z</time>
      </trkpt>
      <trkpt lat="43.65994" lon="7.11721">
        <ele>18.1</ele>
        <time>2013-12-08T10:51:37Z</time>
      </trkpt>
      <trkpt lat="43.65988" lon="7.11737">
        <ele>17.8</ele>
        <time>2013-12-08T10:51:40Z</time>
      </trkpt>
      <trkpt lat="43.65978" lon="7.11759">
        <ele>18.2</ele>
        <time>2013-12-08T10:51:44Z</time>
      </trkpt>
      <trkpt lat="43.65973" lon="7.1177">
        <ele>18.3</ele>
        <time>2013-12-08T10:51:46Z</time>
      </trkpt>
      <trkpt lat="43.65967" lon="7.11784">
        <ele>18.2</ele>
        <time>2013-12-08T10:51:49Z</time>
      </trkpt>
      <trkpt lat="43.6596" lon="7.11796">
        <ele>18.1</ele>
        <time>2013-12-08T10:51:52Z</time>
      </trkpt>
      <trkpt lat="43.65953" lon="7.11808">
        <ele>18.5</ele>
        <time>2013-12-08T10:51:55Z</time>
      </trkpt>
      <trkpt lat="43.65946" lon="7.11824">
        <ele>18.9</ele>
        <time>2013-12-08T10:51:58Z</time>
      </trkpt>
      <trkpt lat="43.65941" lon="7.11838">
        <ele>18.4</ele>
        <time>2013-12-08T10:52:01Z</time>
      </trkpt>
      <trkpt lat="43.65934" lon="7.11854">
        <ele>17.4</ele>
        <time>2013-12-08T10:52:04Z</time>
      </trkpt>
      <trkpt lat="43.65929" lon="7.11866">
        <ele>17.7</ele>
        <time>2013-12-08T10:52:06Z</time>
      </trkpt>
      <trkpt lat="43.65923" lon="7.11877">
        <ele>18.2</ele>
        <time>2013-12-08T10:52:08Z</time>
      </trkpt>
      <trkpt lat="43.65917" lon="7.11886">
        <ele>18.7</ele>
        <time>2013-12-08T10:52:10Z</time>
      </trkpt>
      <trkpt lat="43.6591" lon="7.11896">
        <ele>18.5</ele>
        <time>2013-12-08T10:52:12Z</time>
      </trkpt>
      <trkpt lat="43.65903" lon="7.11905">
        <ele>18.9</ele>
        <time>2013-12-08T10:52:14Z</time>
      </trkpt>
      <trkpt lat="43.65896" lon="7.11914">
        <ele>19.6</ele>
        <time>2013-12-08T10:52:16Z</time>
      </trkpt>
      <trkpt lat="43.65889" lon="7.11922">
        <ele>19.1</ele>
        <time>2013-12-08T10:52:18Z</time>
      </trkpt>
      <trkpt lat="43.65882" lon="7.11932">
        <ele>18.9</ele>
        <time>2013-12-08T10:52:20Z</time>
      </trkpt>
      <trkpt lat="43.65875" lon="7.11942">
        <ele>18.7</ele>
        <time>2013-12-08T10:52:22Z</time>
      </trkpt>
      <trkpt lat="43.65869" lon="7.11951">
        <ele>18.6</ele>
        <time>2013-12-08T10:52:24Z</time>
      </trkpt>
      <trkpt lat="43.65862" lon="7.1196">
        <ele>18.4</ele>
        <time>2013-12-08T10:52:26Z</time>
      </trkpt>
      <trkpt lat="43.65854" lon="7.11972">
        <ele>18.6</ele>
        <time>2013-12-08T10:52:29Z</time>
      </trkpt>
      <trkpt lat="43.65844" lon="7.11985">
        <ele>17.8</ele>
        <time>2013-12-08T10:52:32Z</time>
      </trkpt>
      <trkpt lat="43.65837" lon="7.11993">
        <ele>17.4</ele>
        <time>2013-12-08T10:52:34Z</time>
      </trkpt>
      <trkpt lat="43.65827" lon="7.12003">
        <ele>17.2</ele>
        <time>2013-12-08T10:52:37Z</time>
      </trkpt>
      <trkpt lat="43.65816" lon="7.12011">
        <ele>17</ele>
        <time>2013-12-08T10:52:40Z</time>
      </trkpt>
      <trkpt lat="43.65806" lon="7.12019">
        <ele>16.6</ele>
        <time>2013-12-08T10:52:43Z</time>
      </trkpt>
      <trkpt lat="43.65785" lon="7.12031">
        <ele>17.6</ele>
        <time>2013-12-08T10:52:49Z</time>
      </trkpt>
      <trkpt lat="43.65776" lon="7.12035">
        <ele>17.7</ele>
        <time>2013-12-08T10:52:52Z</time>
      </trkpt>
      <trkpt lat="43.65766" lon="7.12036">
        <ele>18.1</ele>
        <time>2013-12-08T10:52:55Z</time>
      </trkpt>
      <trkpt lat="43.65756" lon="7.12037">
        <ele>18.1</ele>
        <time>2013-12-08T10:52:58Z</time>
      </trkpt>
      <trkpt lat="43.65745" lon="7.12034">
        <ele>17.4</ele>
        <time>2013-12-08T10:53:01Z</time>
      </trkpt>
      <trkpt lat="43.65734" lon="7.12032">
        <ele>17.5</ele>
        <time>2013-12-08T10:53:04Z</time>
      </trkpt>
      <trkpt lat="43.65724" lon="7.12039">
        <ele>18</ele>
        <time>2013-12-08T10:53:07Z</time>
      </trkpt>
      <trkpt lat="43.65715" lon="7.12049">
        <ele>18.3</ele>
        <time>2013-12-08T10:53:10Z</time>
      </trkpt>
      <trkpt lat="43.65707" lon="7.12064">
        <ele>17.7</ele>
        <time>2013-12-08T10:53:13Z</time>
      </trkpt>
      <trkpt lat="43.65695" lon="7.12072">
        <ele>17</ele>
        <time>2013-12-08T10:53:16Z</time>
      </trkpt>
      <trkpt lat="43.65685" lon="7.1207">
        <ele>16.6</ele>
        <time>2013-12-08T10:53:18Z</time>
      </trkpt>
      <trkpt lat="43.65677" lon="7.12074">
        <ele>16.4</ele>
        <time>2013-12-08T10:53:20Z</time>
      </trkpt>
      <trkpt lat="43.65669" lon="7.12085">
        <ele>17.1</ele>
        <time>2013-12-08T10:53:22Z</time>
      </trkpt>
      <trkpt lat="43.6566" lon="7.12093">
        <ele>17.4</ele>
        <time>2013-12-08T10:53:24Z</time>
      </trkpt>
      <trkpt lat="43.65654" lon="7.12102">
        <ele>17.4</ele>
        <time>2013-12-08T10:53:26Z</time>
      </trkpt>
      <trkpt lat="43.65648" lon="7.12118">
        <ele>17.2</ele>
        <time>2013-12-08T10:53:29Z</time>
      </trkpt>
      <trkpt lat="43.65641" lon="7.12131">
        <ele>17.1</ele>
        <time>2013-12-08T10:53:32Z</time>
      </trkpt>
      <trkpt lat="43.65635" lon="7.12144">
        <ele>16.4</ele>
        <time>2013-12-08T10:53:36Z</time>
      </trkpt>
      <trkpt lat="43.65631" lon="7.12158">
        <ele>17.8</ele>
        <time>2013-12-08T10:53:40Z</time>
      </trkpt>
      <trkpt lat="43.65628" lon="7.12173">
        <ele>18.4</ele>
        <time>2013-12-08T10:53:43Z</time>
      </trkpt>
      <trkpt lat="43.65623" lon="7.12191">
        <ele>18.7</ele>
        <time>2013-12-08T10:53:46Z</time>
      </trkpt>
      <trkpt lat="43.65618" lon="7.12215">
        <ele>18.9</ele>
        <time>2013-12-08T10:53:50Z</time>
      </trkpt>
      <trkpt lat="43.65616" lon="7.12227">
        <ele>18.7</ele>
        <time>2013-12-08T10:53:52Z</time>
      </trkpt>
      <trkpt lat="43.65613" lon="7.12243">
        <ele>17.3</ele>
        <time>2013-12-08T10:53:55Z</time>
      </trkpt>
      <trkpt lat="43.6561" lon="7.12257">
        <ele>17.6</ele>
        <time>2013-12-08T10:53:58Z</time>
      </trkpt>
      <trkpt lat="43.65607" lon="7.1227">
        <ele>17</ele>
        <time>2013-12-08T10:54:01Z</time>
      </trkpt>
      <trkpt lat="43.65604" lon="7.12286">
        <ele>16.7</ele>
        <time>2013-12-08T10:54:04Z</time>
      </trkpt>
      <trkpt lat="43.656" lon="7.12302">
        <ele>16.8</ele>
        <time>2013-12-08T10:54:07Z</time>
      </trkpt>
      <trkpt lat="43.65596" lon="7.12319">
        <ele>16.7</ele>
        <time>2013-12-08T10:54:10Z</time>
      </trkpt>
      <trkpt lat="43.65591" lon="7.12336">
        <ele>16.7</ele>
        <time>2013-12-08T10:54:13Z</time>
      </trkpt>
      <trkpt lat="43.65587" lon="7.12351">
        <ele>16.6</ele>
        <time>2013-12-08T10:54:16Z</time>
      </trkpt>
      <trkpt lat="43.65594" lon="7.12359">
        <ele>16.5</ele>
        <time>2013-12-08T10:54:19Z</time>
      </trkpt>
      <trkpt lat="43.65606" lon="7.12365">
        <ele>16.8</ele>
        <time>2013-12-08T10:54:22Z</time>
      </trkpt>
      <trkpt lat="43.65617" lon="7.12374">
        <ele>17</ele>
        <time>2013-12-08T10:54:25Z</time>
      </trkpt>
      <trkpt lat="43.65621" lon="7.1239">
        <ele>16.8</ele>
        <time>2013-12-08T10:54:28Z</time>
      </trkpt>
      <trkpt lat="43.65622" lon="7.12408">
        <ele>17.2</ele>
        <time>2013-12-08T10:54:31Z</time>
      </trkpt>
      <trkpt lat="43.65624" lon="7.1242">
        <ele>17.1</ele>
        <time>2013-12-08T10:54:33Z</time>
      </trkpt>
      <trkpt lat="43.65627" lon="7.12438">
        <ele>16.6</ele>
        <time>2013-12-08T10:54:36Z</time>
      </trkpt>
      <trkpt lat="43.6563" lon="7.12451">
        <ele>16.5</ele>
        <time>2013-12-08T10:54:38Z</time>
      </trkpt>
      <trkpt lat="43.65633" lon="7.12463">
        <ele>16.6</ele>
        <time>2013-12-08T10:54:40Z</time>
      </trkpt>
      <trkpt lat="43.65636" lon="7.12476">
        <ele>16.1</ele>
        <time>2013-12-08T10:54:42Z</time>
      </trkpt>
      <trkpt lat="43.6564" lon="7.12488">
        <ele>16.4</ele>
        <time>2013-12-08T10:54:44Z</time>
      </trkpt>
      <trkpt lat="43.65641" lon="7.12506">
        <ele>16.8</ele>
        <time>2013-12-08T10:54:47Z</time>
      </trkpt>
      <trkpt lat="43.65628" lon="7.12534">
        <ele>16.5</ele>
        <time>2013-12-08T10:54:53Z</time>
      </trkpt>
      <trkpt lat="43.65622" lon="7.12545">
        <ele>16.6</ele>
        <time>2013-12-08T10:54:55Z</time>
      </trkpt>
      <trkpt lat="43.65616" lon="7.12556">
        <ele>16.5</ele>
        <time>2013-12-08T10:54:57Z</time>
      </trkpt>
      <trkpt lat="43.6561" lon="7.12567">
        <ele>16.4</ele>
        <time>2013-12-08T10:54:59Z</time>
      </trkpt>
      <trkpt lat="43.65604" lon="7.12578">
        <ele>16.3</ele>
        <time>2013-12-08T10:55:01Z</time>
      </trkpt>
      <trkpt lat="43.65598" lon="7.1259">
        <ele>16.8</ele>
        <time>2013-12-08T10:55:03Z</time>
      </trkpt>
      <trkpt lat="43.65592" lon="7.126">
        <ele>17.5</ele>
        <time>2013-12-08T10:55:05Z</time>
      </trkpt>
      <trkpt lat="43.65586" lon="7.1261">
        <ele>17.1</ele>
        <time>2013-12-08T10:55:07Z</time>
      </trkpt>
      <trkpt lat="43.6558" lon="7.1262">
        <ele>16.3</ele>
        <time>2013-12-08T10:55:09Z</time>
      </trkpt>
      <trkpt lat="43.65575" lon="7.1263">
        <ele>15.8</ele>
        <time>2013-12-08T10:55:11Z</time>
      </trkpt>
      <trkpt lat="43.65569" lon="7.1264">
        <ele>15.8</ele>
        <time>2013-12-08T10:55:13Z</time>
      </trkpt>
      <trkpt lat="43.65562" lon="7.1265">
        <ele>16.1</ele>
        <time>2013-12-08T10:55:15Z</time>
      </trkpt>
      <trkpt lat="43.65555" lon="7.12659">
        <ele>15.8</ele>
        <time>2013-12-08T10:55:17Z</time>
      </trkpt>
      <trkpt lat="43.6555" lon="7.1267">
        <ele>15.6</ele>
        <time>2013-12-08T10:55:19Z</time>
      </trkpt>
      <trkpt lat="43.65546" lon="7.12682">
        <ele>15.6</ele>
        <time>2013-12-08T10:55:21Z</time>
      </trkpt>
      <trkpt lat="43.65544" lon="7.12694">
        <ele>15.5</ele>
        <time>2013-12-08T10:55:23Z</time>
      </trkpt>
      <trkpt lat="43.65544" lon="7.12707">
        <ele>15.4</ele>
        <time>2013-12-08T10:55:25Z</time>
      </trkpt>
      <trkpt lat="43.65547" lon="7.12719">
        <ele>15.5</ele>
        <time>2013-12-08T10:55:27Z</time>
      </trkpt>
      <trkpt lat="43.65553" lon="7.12734">
        <ele>15.7</ele>
        <time>2013-12-08T10:55:30Z</time>
      </trkpt>
      <trkpt lat="43.65556" lon="7.1275">
        <ele>15.6</ele>
        <time>2013-12-08T10:55:33Z</time>
      </trkpt>
      <trkpt lat="43.65547" lon="7.12758">
        <ele>15</ele>
        <time>2013-12-08T10:55:36Z</time>
      </trkpt>
      <trkpt lat="43.65537" lon="7.12763">
        <ele>15.3</ele>
        <time>2013-12-08T10:55:39Z</time>
      </trkpt>
      <trkpt lat="43.65532" lon="7.12777">
        <ele>15.2</ele>
        <time>2013-12-08T10:55:42Z</time>
      </trkpt>
      <trkpt lat="43.65526" lon="7.1279">
        <ele>14.7</ele>
        <time>2013-12-08T10:55:45Z</time>
      </trkpt>
      <trkpt lat="43.6552" lon="7.12802">
        <ele>15</ele>
        <time>2013-12-08T10:55:48Z</time>
      </trkpt>
      <trkpt lat="43.65524" lon="7.12828">
        <ele>15.1</ele>
        <time>2013-12-08T10:55:55Z</time>
      </trkpt>
      <trkpt lat="43.65533" lon="7.1283">
        <ele>14.8</ele>
        <time>2013-12-08T10:56:00Z</time>
      </trkpt>
      <trkpt lat="43.65523" lon="7.12829">
        <ele>14</ele>
        <time>2013-12-08T10:56:19Z</time>
      </trkpt>
      <trkpt lat="43.65512" lon="7.12833">
        <ele>14.5</ele>
        <time>2013-12-08T10:56:23Z</time>
      </trkpt>
      <trkpt lat="43.65508" lon="7.12836">
        <ele>13.7</ele>
        <time>2013-12-08T10:56:39Z</time>
      </trkpt>
    </trkseg>
  </trk>
</gpx>